ECMWFNIL_250_spd_000.txt.gz
Wind_Speed
47 46 45 43 43 42 42 43 43 43 43 43 43 44 44 43 43 42 42 42 42 43 43 43 43 44 44 45 46 46 47 48 49 50 51 51 52 57 62 63 61 60
50 49 48 47 46 45 44 44 44 44 45 45 45 45 45 45 45 44 44 43 44 44 44 45 45 45 46 46 47 48 49 49 50 51 51 52 52 54 61 66 66 65
52 51 51 50 49 49 48 47 46 46 46 46 46 46 46 47 47 47 46 46 46 45 45 45 46 47 47 48 49 49 50 52 52 53 53 54 55 55 57 62 67 69
56 54 53 52 52 51 51 50 50 49 48 47 48 48 48 48 49 48 48 48 48 47 47 47 48 48 49 49 50 51 52 53 54 55 56 57 58 58 58 60 63 67
60 59 57 56 54 54 53 53 52 52 51 50 50 50 50 50 50 51 50 50 50 50 50 50 50 50 50 51 51 52 53 54 56 57 58 59 60 61 61 62 63 64
63 63 61 59 58 57 56 55 54 54 54 53 53 52 52 52 52 53 53 53 53 52 52 52 52 52 53 53 53 54 55 56 57 58 59 60 61 63 64 65 65 66
64 65 64 62 61 60 59 57 56 56 56 56 56 55 55 55 55 55 55 55 56 56 55 55 55 55 55 55 56 56 57 58 59 60 61 62 63 64 65 66 67 68
65 65 65 65 65 64 62 60 59 59 59 59 59 59 59 59 59 58 58 58 59 59 59 58 58 58 58 58 59 59 60 60 61 61 62 64 65 66 66 67 68 69
67 67 67 67 67 66 65 63 62 61 61 61 62 62 62 62 62 62 62 62 62 63 63 62 62 61 61 61 62 62 62 62 63 63 64 65 66 67 68 69 70 71
71 71 70 68 68 67 67 65 64 64 63 64 64 65 65 65 65 65 65 65 66 66 66 66 65 65 64 64 64 64 64 64 65 65 65 65 66 67 68 70 71 72
77 76 73 72 70 69 68 68 67 66 66 67 67 68 68 69 69 69 69 69 69 69 69 69 69 68 68 68 67 67 67 67 67 67 67 67 67 68 70 71 72 73
80 79 77 76 75 73 72 70 69 68 68 69 69 70 72 73 73 72 72 72 72 72 72 72 71 71 71 71 71 70 70 70 70 69 69 69 70 71 72 72 73 73
81 81 81 80 79 77 76 74 72 71 71 71 71 73 75 76 76 75 75 75 76 75 75 75 74 74 74 74 74 74 73 73 73 73 73 73 74 74 74 74 74 74
81 82 82 82 81 80 79 77 76 75 75 74 74 76 78 79 78 78 78 79 79 78 77 77 77 77 77 77 77 77 77 76 76 76 76 77 77 77 77 77 77 77
81 82 82 82 82 81 80 79 79 79 79 78 78 79 81 81 81 80 81 81 81 79 79 79 79 79 79 80 80 80 80 79 79 80 80 80 80 80 80 80 80 81
80 81 82 82 82 82 81 79 79 80 80 80 82 84 85 85 84 84 84 84 83 81 81 80 81 81 81 81 82 82 82 82 83 83 83 82 82 82 83 83 83 83
81 81 82 83 83 82 80 79 79 81 81 82 84 87 88 88 87 87 88 88 87 85 84 83 82 83 83 83 83 83 84 84 85 85 85 85 85 85 85 85 85 84
81 82 82 83 83 82 79 74 74 77 80 83 87 89 90 90 90 90 91 91 91 90 89 87 86 86 85 84 84 85 85 86 86 86 87 86 86 87 87 87 87 86
79 81 83 83 82 81 77 72 71 74 78 82 87 90 91 92 92 93 94 94 94 93 92 91 90 89 89 88 88 88 88 87 87 87 87 87 88 88 88 88 88 88
78 79 81 82 82 80 77 75 77 78 78 82 87 89 90 92 93 93 94 95 95 96 95 94 93 92 91 91 92 92 91 91 90 89 89 90 90 90 90 90 89 89
76 77 77 79 79 79 77 76 77 78 80 83 86 87 89 91 92 92 92 94 96 98 99 97 95 93 93 94 94 94 94 93 93 93 93 93 93 94 93 93 93 92
74 74 73 73 75 76 76 75 75 78 84 86 86 87 88 88 90 91 92 94 96 98 100 99 97 96 95 96 96 95 95 95 95 95 95 96 96 97 97 96 95 95
71 70 69 69 69 70 71 74 76 79 83 85 86 87 87 87 89 91 92 93 94 97 100 99 98 97 97 96 96 96 96 96 95 95 96 97 98 98 98 97 97 96
67 67 66 65 65 65 68 72 75 77 79 81 83 85 86 87 90 91 92 92 93 97 99 99 98 98 97 95 94 94 94 95 96 96 96 97 97 98 97 97 96 95
61 62 62 62 63 63 65 69 72 74 75 77 80 83 85 87 89 90 90 90 92 96 99 99 98 98 97 94 90 88 88 90 91 92 93 94 95 96 96 95 94 93
56 56 57 58 61 62 64 67 70 72 74 76 79 82 84 85 86 87 88 89 91 95 98 99 99 99 98 95 89 85 83 83 84 85 86 87 88 89 90 91 91 91

ECMWFNIL_250_spd_003.txt.gz
Wind_Speed
44 44 44 44 44 43 42 41 39 38 37 36 36 37 37 37 37 36 36 37 38 38 39 39 39 39 39 39 40 41 42 44 47 50 52 54 57 59 61 62 60 57
47 46 45 45 45 45 44 44 43 42 40 39 39 39 39 39 39 39 39 39 39 40 41 42 42 42 42 42 42 43 44 45 47 48 50 53 54 57 59 62 63 62
51 50 49 48 47 46 46 45 45 45 44 43 42 41 41 41 41 41 42 42 42 42 43 44 44 45 45 45 45 45 46 46 48 49 50 52 53 55 57 59 61 62
53 53 52 51 50 49 48 47 47 47 47 46 46 45 45 44 44 44 44 45 45 46 46 46 47 47 47 48 48 48 49 49 49 50 51 52 53 55 56 58 59 60
56 55 54 53 53 52 52 51 50 50 49 49 49 49 49 48 48 47 47 47 48 49 49 49 49 49 49 50 50 51 51 51 51 52 52 53 54 56 56 57 59 59
58 57 56 56 56 56 55 55 54 53 52 52 52 52 52 52 52 51 51 51 51 51 51 51 51 51 52 52 52 53 53 53 53 54 54 55 55 56 58 58 59 60
60 59 59 59 59 59 59 58 57 56 55 55 55 55 55 55 55 55 55 54 54 54 54 54 54 54 54 54 55 55 55 55 55 56 56 56 57 58 59 59 60 61
63 62 62 62 61 61 62 62 61 60 58 58 58 58 58 58 58 58 57 57 57 57 57 56 56 56 57 57 57 57 57 57 57 57 57 58 58 59 59 60 61 62
67 67 67 65 64 64 65 64 64 62 61 61 60 60 60 61 61 61 61 60 60 60 60 59 59 59 59 59 59 59 59 59 59 59 59 59 59 60 61 61 62 63
71 71 70 68 68 69 68 67 66 65 64 63 63 63 62 62 63 64 64 63 63 62 62 62 62 62 62 62 62 62 62 62 61 61 61 61 61 61 62 62 63 64
72 72 72 71 72 72 72 72 70 68 67 66 66 66 65 65 65 66 67 67 66 65 65 65 65 65 66 66 65 65 65 65 64 64 64 64 63 63 63 64 64 65
70 71 72 73 73 74 74 74 73 72 72 70 69 68 68 68 68 69 70 70 69 68 68 68 69 69 69 69 69 69 69 68 68 68 68 67 67 66 66 66 66 67
69 70 71 72 73 73 74 74 75 75 75 74 73 72 71 71 71 72 72 72 72 71 71 72 72 72 72 71 72 72 72 72 72 71 71 70 70 70 69 69 69 69
70 70 70 71 71 72 72 73 74 75 76 76 75 74 74 74 75 75 75 76 75 75 75 76 76 75 74 74 75 75 75 75 75 75 74 74 73 73 73 73 73 72
71 71 71 71 71 71 71 71 72 73 74 75 75 74 74 76 78 80 80 80 80 79 79 79 79 78 77 77 78 78 78 78 78 78 77 77 77 77 76 76 76 76
73 73 73 72 72 71 71 71 71 70 71 72 71 72 73 75 79 83 84 83 84 83 83 83 82 81 80 81 81 81 80 80 80 80 80 80 79 79 80 80 79 79
74 74 74 74 74 73 73 72 71 70 70 68 67 69 73 76 80 83 84 84 86 87 87 87 86 85 84 84 84 83 83 83 83 82 82 82 82 82 82 82 82 82
76 76 76 75 75 75 74 73 72 71 71 69 68 70 73 76 79 82 84 85 86 87 89 91 91 89 88 87 87 86 85 85 85 85 84 84 84 84 84 85 85 85
77 77 77 76 76 76 75 75 75 74 73 70 69 70 73 76 79 82 83 84 85 88 90 91 91 91 90 90 90 90 89 88 88 87 86 86 86 86 87 87 87 87
78 78 77 77 77 77 76 76 76 76 75 73 71 71 72 75 78 81 82 82 84 87 90 91 91 91 90 91 93 94 93 93 92 90 90 89 89 89 89 89 89 89
79 78 78 78 78 78 78 77 77 76 76 75 75 74 74 75 77 80 81 82 84 85 86 88 90 91 91 91 93 95 96 96 95 94 93 93 92 92 91 91 91 91
79 78 78 78 78 78 77 77 77 77 76 76 76 75 75 76 78 80 82 84 84 83 83 83 86 88 90 91 93 95 97 98 97 96 95 95 95 95 95 94 94 94
79 78 78 79 79 78 77 76 76 77 77 77 76 75 75 76 78 81 84 84 82 81 81 81 83 85 87 89 91 93 96 98 98 97 96 97 97 97 97 97 97 97
78 78 78 78 78 78 77 76 75 75 76 77 76 75 75 76 78 81 85 84 80 79 80 80 82 84 85 86 87 88 90 93 95 95 95 96 97 97 98 98 98 98
78 77 77 77 77 77 76 75 74 74 75 76 76 76 76 77 78 81 83 83 80 78 78 78 79 81 83 84 84 85 86 88 90 91 91 91 93 95 96 96 97 98
75 75 75 75 75 75 74 74 73 74 74 74 75 76 78 78 79 79 81 81 79 77 75 75 76 77 79 80 81 82 83 84 86 88 88 87 87 89 90 91 93 94

ECMWFNIL_250_spd_006.txt.gz
Wind_Speed
45 45 44 44 43 43 43 43 43 42 41 40 39 38 37 37 37 37 38 39 40 40 40 40 40 40 39 40 40 41 42 44 46 48 52 55 58 60 62 61 58 55
48 47 47 46 46 46 46 46 46 45 45 44 43 42 42 41 40 40 40 40 41 41 41 41 42 42 42 41 41 42 42 43 45 47 50 53 56 59 61 63 63 61
50 50 50 49 49 48 48 48 48 48 48 47 46 46 45 45 44 44 43 42 42 42 42 43 43 43 44 44 43 43 43 43 44 46 48 50 53 56 59 61 63 64
52 52 52 52 52 52 51 51 51 50 50 49 49 48 48 48 48 48 47 46 45 44 44 44 44 44 45 46 46 45 45 45 45 46 47 49 51 53 56 59 62 64
54 54 54 54 54 54 54 54 54 53 53 52 51 51 50 50 50 50 50 49 48 48 47 46 46 46 46 47 47 47 48 48 48 48 48 48 50 51 53 56 59 62
55 55 55 55 56 57 57 56 56 56 56 55 54 53 53 53 52 52 52 51 51 51 50 50 49 49 48 48 48 49 49 50 50 51 51 50 50 51 52 54 56 58
57 57 57 57 58 59 59 58 58 58 58 57 57 57 56 56 55 55 54 53 53 53 53 53 53 53 52 51 51 50 50 51 52 53 53 53 52 52 53 54 55 56
61 60 60 60 61 61 61 61 60 60 60 60 60 59 59 59 59 58 57 57 56 55 55 56 56 57 56 56 54 53 53 52 53 53 54 55 55 55 55 55 56 56
63 64 64 64 64 64 64 63 63 62 62 62 62 62 62 62 62 61 61 60 60 59 59 59 59 59 60 59 59 57 57 56 56 55 55 56 56 57 58 58 57 58
65 66 66 66 66 66 66 66 66 65 65 64 64 64 64 64 64 64 64 64 63 63 63 63 63 63 63 63 62 62 61 61 60 59 58 58 58 59 59 60 60 60
66 67 67 67 66 66 68 69 69 68 68 68 67 67 66 66 66 66 66 66 66 66 66 67 68 68 67 66 65 65 65 65 65 64 63 62 62 62 62 62 63 63
64 65 66 65 63 63 67 70 70 70 70 71 70 70 69 69 68 68 68 68 69 69 69 70 71 71 71 70 69 68 68 68 68 68 68 67 66 65 65 64 64 65
63 64 64 62 59 59 64 67 68 69 70 71 72 72 72 72 72 71 72 72 72 72 73 73 74 74 74 73 73 72 71 71 71 71 71 71 70 69 68 68 67 67
64 64 63 61 59 59 62 65 66 67 68 70 71 71 72 72 72 74 75 76 76 77 77 77 77 76 75 75 75 75 75 74 74 74 74 74 74 73 72 72 71 70
66 66 64 62 61 61 63 64 65 65 66 68 69 69 69 69 71 73 75 76 78 79 80 81 80 80 79 78 78 77 78 78 78 78 77 77 76 76 76 76 75 75
69 69 67 65 64 64 64 65 65 66 66 67 68 68 68 67 69 70 71 72 76 78 80 81 83 83 83 83 81 80 79 79 80 80 81 80 79 79 79 79 79 78
71 71 70 69 67 66 66 66 66 67 67 68 67 67 67 67 67 68 68 69 73 76 77 79 82 85 87 86 86 85 83 81 81 82 83 83 83 82 82 82 82 82
73 73 73 72 71 70 69 69 69 69 69 69 69 68 67 67 67 68 68 69 72 74 74 76 80 83 86 88 89 88 86 84 84 84 84 84 85 85 85 85 85 85
75 75 75 74 73 72 72 72 71 72 72 72 71 70 69 68 67 68 69 70 72 72 72 76 80 82 85 87 88 88 87 87 88 87 87 86 86 87 87 88 88 88
77 77 76 75 75 74 74 73 73 74 74 74 74 73 72 70 69 69 70 72 72 72 72 76 80 82 83 84 84 84 86 89 90 90 90 90 90 90 90 90 90 90
79 78 78 77 76 75 75 75 75 75 76 75 75 75 74 73 72 72 73 73 74 74 73 75 78 80 82 81 80 80 82 86 88 90 91 92 92 93 93 93 92 92
81 81 80 80 79 77 77 76 76 77 77 77 77 76 76 75 75 75 75 75 75 75 75 76 78 80 80 79 78 79 81 83 85 86 88 91 93 95 96 96 95 95
83 83 82 82 81 80 79 78 78 78 78 78 78 78 77 77 77 77 77 77 77 77 77 78 79 80 79 78 78 79 80 81 82 83 85 87 90 93 95 96 97 98
84 84 83 82 82 81 80 79 79 79 78 79 79 79 79 79 79 79 79 79 78 79 79 79 80 80 79 78 79 79 79 79 80 81 82 83 86 88 91 93 96 98
83 83 82 81 81 80 80 79 79 79 79 79 79 80 80 80 81 80 80 80 80 80 80 79 79 80 80 79 79 79 78 78 78 79 79 80 81 83 85 88 91 94
82 81 80 79 79 79 78 78 79 79 79 79 80 80 80 81 81 81 81 82 82 81 79 79 79 81 81 80 78 77 77 76 77 76 76 76 78 79 82 84 87 90

ECMWFNIL_250_spd_009.txt.gz
Wind_Speed
44 44 43 42 42 41 41 41 41 41 41 40 39 39 40 39 38 37 37 36 35 35 36 37 38 39 40 40 39 39 39 40 43 46 50 53 53 52 55 59 60 59
47 47 46 46 45 45 45 45 45 44 44 43 42 42 41 42 41 41 40 39 38 37 36 36 37 39 40 42 42 41 41 41 43 46 49 51 52 52 54 57 61 62
49 49 48 48 48 48 48 48 48 47 47 46 46 45 44 44 44 44 43 43 41 40 39 38 37 38 39 41 43 43 43 43 44 46 49 51 52 52 53 55 59 62
50 50 50 49 49 49 49 50 50 50 49 49 48 48 48 48 47 47 47 46 46 45 44 42 41 40 39 40 42 44 45 45 45 46 48 51 53 53 53 54 57 60
51 52 52 51 51 51 51 50 50 51 52 52 52 52 52 51 51 50 50 49 49 49 48 47 46 44 43 42 42 43 45 46 46 47 48 50 53 55 55 55 56 58
52 53 52 51 51 52 52 51 50 51 52 53 54 55 55 55 55 54 53 52 52 51 51 50 50 49 48 46 45 44 44 46 47 47 48 50 52 55 57 57 58 58
55 54 53 52 51 51 52 52 51 52 53 53 55 57 57 58 58 58 57 56 55 54 53 53 52 52 52 51 50 48 47 47 47 48 49 50 52 54 56 58 59 60
58 58 57 56 54 54 52 50 50 52 54 54 55 57 59 59 59 60 60 59 58 57 56 56 55 55 55 54 54 53 52 51 50 49 49 50 52 53 55 57 58 60
60 61 60 59 58 57 55 51 49 52 55 56 56 56 59 61 61 60 61 61 61 61 60 60 59 59 58 57 57 57 56 56 54 53 52 51 52 53 55 57 58 59
62 62 62 61 59 58 58 55 52 54 57 58 58 58 59 60 61 62 63 62 62 63 63 63 63 63 62 61 60 59 59 59 58 57 57 55 55 55 56 57 58 60
61 60 60 60 58 55 56 57 57 61 64 62 60 59 59 59 60 63 64 64 64 65 65 66 66 65 65 64 63 63 62 62 61 61 61 60 59 58 58 59 59 60
58 57 56 57 53 47 47 52 57 62 66 65 63 61 61 62 62 63 63 64 67 68 68 69 68 67 67 66 66 66 66 65 65 64 64 64 64 63 63 62 62 62
57 55 56 57 55 49 49 54 59 62 64 66 66 63 63 66 66 64 64 66 70 70 69 70 70 70 69 69 69 69 69 69 68 68 67 67 67 67 67 67 66 66
59 58 58 59 59 59 62 65 66 67 67 67 65 62 62 64 66 65 64 66 70 70 69 71 72 72 73 72 72 72 72 72 71 71 71 70 70 70 70 70 70 69
62 61 61 61 61 63 65 67 69 69 69 67 64 62 63 64 66 65 63 65 69 69 68 70 72 74 74 75 76 76 75 75 75 74 73 73 73 73 72 73 73 73
65 64 64 64 64 64 65 66 67 68 68 67 64 63 65 65 65 64 62 64 68 68 67 70 72 74 74 76 78 78 78 79 78 77 76 75 75 75 76 76 77 76
68 68 68 67 66 67 67 67 67 67 67 67 65 64 65 65 64 63 62 63 65 67 68 70 71 73 75 77 78 79 80 81 81 79 78 78 78 78 78 79 79 79
71 71 71 70 69 70 70 70 70 69 69 69 67 65 65 66 66 66 67 66 66 68 69 70 70 73 75 76 77 79 81 82 82 81 81 81 81 81 82 82 81 81
73 73 73 72 72 72 72 72 72 72 72 72 70 68 67 68 68 68 69 70 69 70 70 69 70 73 75 76 77 78 79 81 81 80 82 83 82 83 84 85 84 84
75 75 75 74 75 75 75 75 75 75 75 75 74 73 71 71 71 71 71 71 71 71 70 68 71 74 75 76 77 77 77 79 80 80 81 82 82 83 85 86 87 86
76 76 76 76 77 77 76 77 77 77 77 77 77 76 75 74 74 73 73 73 72 72 69 68 71 75 76 76 76 76 76 78 79 80 81 81 80 81 84 85 86 87
77 77 78 78 78 78 78 78 78 78 78 78 79 78 77 77 76 76 76 75 73 72 69 68 71 75 75 75 75 75 77 78 79 80 81 81 80 81 82 83 84 85
79 79 79 80 80 80 80 79 79 79 79 79 79 79 78 78 78 78 77 75 74 72 69 69 73 75 73 73 74 75 77 79 80 81 81 81 81 81 82 82 82 84
81 81 81 81 81 81 81 81 81 80 80 80 80 80 80 80 79 79 79 76 74 74 73 73 75 74 72 73 74 75 77 79 80 81 82 82 82 81 81 81 82 83
82 82 82 82 82 82 82 82 82 81 81 81 81 81 81 81 80 81 80 77 76 77 76 76 75 74 73 74 75 76 77 79 80 81 81 81 81 81 81 82 82 83
82 83 83 83 83 83 82 82 82 82 82 82 82 82 82 82 82 82 81 79 78 79 78 76 75 75 76 76 77 78 79 79 80 81 81 80 81 81 81 81 82 83

ECMWFNIL_250_spd_012.txt.gz
Wind_Speed
46 45 45 45 44 44 43 42 40 38 37 36 36 36 36 35 35 35 36 36 36 35 35 35 34 35 36 37 39 40 41 41 41 42 43 44 46 48 49 49 50 50
46 46 46 46 46 46 46 45 44 43 42 40 39 39 38 38 38 38 38 38 38 38 37 37 36 36 36 36 38 40 42 42 42 43 43 44 45 47 49 49 50 52
47 47 47 47 47 47 47 47 46 46 45 45 44 43 42 42 41 41 40 40 40 40 40 39 39 38 38 37 37 38 41 43 44 44 44 44 45 46 49 50 50 52
47 47 47 48 48 49 49 49 48 48 48 47 47 47 47 46 45 44 44 43 43 42 42 42 42 42 41 40 39 39 39 41 43 45 46 46 46 47 48 50 51 52
49 48 48 49 50 50 51 50 50 50 49 49 49 49 49 49 48 48 47 46 46 45 45 45 45 45 45 44 43 42 41 41 42 44 46 48 48 48 48 50 51 52
52 51 51 51 51 51 52 52 52 51 51 51 51 51 51 51 50 50 50 50 49 49 48 48 48 47 48 48 48 47 46 45 44 43 44 46 48 49 50 50 51 53
55 53 53 53 53 53 52 52 52 52 52 54 53 53 53 53 52 52 52 52 52 52 52 52 51 51 50 50 50 50 50 49 48 47 46 46 47 49 51 51 52 53
58 57 57 56 56 55 54 54 54 53 52 53 53 52 53 53 53 54 54 54 53 53 54 54 54 54 54 53 52 52 52 52 52 51 50 50 49 49 50 52 52 53
59 58 59 60 60 57 55 54 54 53 52 53 53 53 54 54 54 55 54 54 55 55 55 55 56 56 56 56 56 55 55 55 55 55 54 54 53 53 52 52 53 54
53 49 48 54 59 60 58 57 56 55 55 56 56 57 58 57 56 56 54 54 55 55 56 56 57 57 58 59 59 59 59 58 58 58 58 57 57 56 56 55 55 55
46 43 43 48 56 57 57 57 58 58 58 58 58 59 60 59 57 56 56 55 57 57 57 57 58 59 59 60 60 61 62 61 61 61 61 60 60 59 59 59 58 57
48 49 52 56 59 57 52 51 54 57 58 59 58 57 58 58 56 54 55 55 57 59 59 59 59 60 60 61 61 62 63 64 64 64 64 63 63 63 62 61 61 61
53 54 57 61 63 60 54 50 50 53 56 58 57 56 57 57 51 47 49 51 53 57 60 61 60 60 60 62 63 64 65 65 65 66 66 66 66 66 65 65 64 64
55 56 57 59 61 61 58 54 51 51 53 55 55 55 57 57 49 41 43 49 54 56 58 60 61 61 61 63 65 66 66 66 66 66 66 68 68 68 68 68 68 67
56 56 57 59 60 60 59 57 53 52 52 53 54 53 54 57 55 49 48 54 58 58 57 56 58 60 61 65 69 69 68 68 67 66 67 68 69 69 70 70 71 71
58 58 59 60 60 60 60 60 57 54 54 54 55 55 54 57 61 60 57 59 59 57 56 56 56 58 62 67 72 74 72 70 69 69 70 70 70 71 72 72 73 73
59 60 61 61 62 62 62 62 61 59 58 57 57 58 57 58 62 62 61 61 61 59 60 62 61 61 64 67 71 75 75 72 71 71 72 72 73 73 74 75 75 75
62 63 63 63 63 64 64 65 64 63 62 60 60 61 62 63 65 66 66 66 66 66 67 66 64 62 64 66 68 72 74 74 73 72 71 71 72 74 76 76 76 77
65 66 66 66 66 67 67 67 68 67 66 65 64 64 65 66 68 69 71 71 71 72 72 70 66 66 68 69 70 71 72 73 74 73 71 71 72 73 75 76 76 77
68 68 68 69 69 70 70 70 70 71 70 69 69 69 68 69 70 71 72 73 72 72 73 72 70 70 72 73 73 72 72 73 74 74 72 72 74 74 74 74 75 76
70 70 70 71 71 72 72 73 73 73 73 73 73 73 73 73 73 73 74 74 74 72 71 70 71 73 75 76 75 74 74 75 76 75 74 75 78 78 77 77 77 77
71 71 72 72 72 73 73 74 74 74 75 75 75 76 76 76 76 76 76 76 76 74 70 69 71 74 76 77 77 76 76 76 77 77 77 78 79 80 80 80 80 80
72 73 73 72 73 73 73 74 75 75 76 76 76 77 77 78 78 78 77 77 77 75 71 70 73 76 77 79 79 78 78 79 80 80 80 80 80 80 80 81 81 82
74 74 74 74 74 74 74 74 75 76 76 76 77 77 77 78 78 78 78 77 76 74 72 72 75 77 78 79 79 78 79 80 82 83 83 83 82 82 81 82 82 82
75 75 76 76 76 76 76 76 76 76 77 77 77 76 77 77 78 78 77 76 74 73 72 74 77 78 78 79 79 79 79 80 82 83 83 82 82 82 83 83 83 83
76 76 76 77 77 77 77 78 78 78 78 78 78 77 77 77 78 78 77 74 73 73 74 75 76 77 77 78 79 79 80 80 82 82 82 81 81 82 83 83 84 84

ECMWFNIL_250_spd_015.txt.gz
Wind_Speed
44 44 44 44 44 45 45 46 46 47 46 47 47 45 43 41 40 39 39 39 39 39 39 39 39 38 37 36 36 35 36 37 38 39 39 39 38 38 38 38 39 42
48 47 46 45 46 47 47 47 47 48 48 48 48 48 47 46 44 43 42 42 42 42 42 42 41 41 40 39 39 38 37 37 38 40 40 41 41 41 40 40 40 40
51 50 49 49 49 50 50 50 49 48 48 48 49 49 49 49 48 48 46 45 45 45 44 44 44 43 43 42 41 41 40 38 38 39 40 42 42 43 43 43 42 41
50 50 50 49 50 51 51 51 50 50 49 49 49 50 51 51 51 50 50 49 48 48 47 47 46 45 45 44 43 43 42 41 40 40 41 41 42 43 44 44 44 44
47 48 49 48 49 49 50 50 51 52 53 52 51 51 51 52 52 52 52 52 51 51 50 49 48 48 47 47 46 46 45 44 43 43 42 43 43 43 44 45 46 46
47 47 48 49 50 49 49 49 50 52 54 55 54 54 53 53 53 53 53 53 53 53 52 52 51 51 50 50 49 49 48 48 47 46 45 45 44 43 43 44 45 47
51 52 52 52 54 55 52 49 48 50 53 55 56 57 56 56 55 55 54 54 54 54 53 53 53 53 53 53 53 52 51 51 50 49 48 48 47 46 45 45 45 46
55 56 55 52 54 60 61 56 52 52 53 55 57 57 57 57 57 57 56 55 55 55 55 54 54 55 55 55 55 55 55 54 53 52 51 51 50 50 49 48 47 47
57 57 56 52 51 56 60 59 56 54 54 55 57 58 58 57 57 58 57 57 56 56 56 56 56 57 57 57 57 57 57 57 56 55 54 54 53 53 52 52 52 51
57 56 55 51 47 48 52 54 55 56 55 55 56 58 58 57 58 59 58 58 58 57 58 58 58 58 58 58 58 58 58 58 58 58 57 57 56 56 56 55 55 55
56 57 56 52 49 50 53 56 57 58 60 61 61 59 58 58 57 58 59 58 58 58 59 60 60 59 59 59 59 59 59 59 59 60 60 59 59 58 58 58 57 57
53 55 57 59 60 63 62 58 56 56 57 61 63 60 58 57 54 53 55 57 59 60 61 62 62 62 62 62 62 62 61 61 60 60 61 61 61 61 61 60 60 60
51 52 54 58 63 66 64 60 56 53 51 55 60 61 58 56 53 52 53 55 58 60 63 65 65 65 66 67 66 65 64 63 62 61 61 62 62 63 63 62 62 62
51 52 54 57 60 61 61 61 61 60 58 60 64 65 62 59 57 57 57 56 56 58 62 65 66 66 67 68 69 68 67 66 65 63 63 64 64 65 65 65 64 64
52 53 54 57 60 61 62 64 66 67 68 68 68 67 65 63 61 61 61 60 59 59 61 63 64 64 65 66 67 68 67 66 66 66 66 66 67 68 67 66 66 65
54 55 55 57 59 62 65 67 69 69 69 69 67 66 65 64 62 62 61 60 60 60 61 61 62 62 62 63 64 66 66 64 64 66 67 67 67 68 68 68 67 66
54 55 56 56 58 60 62 64 66 67 67 67 66 65 65 64 62 62 62 60 59 59 59 60 61 61 62 62 63 65 65 63 62 63 64 64 63 64 65 67 67 67
55 56 56 57 58 59 61 62 63 64 65 65 65 65 65 64 64 63 63 62 60 59 59 60 61 62 63 64 65 65 65 64 64 64 64 62 61 61 63 65 67 67
56 57 57 58 60 61 62 63 63 64 65 65 65 66 66 65 65 64 64 63 62 61 60 61 62 63 65 66 67 67 66 66 67 67 67 65 64 64 66 68 69 68
58 58 58 59 61 63 64 64 65 65 66 67 67 67 67 67 67 66 66 65 64 63 63 62 63 65 67 67 67 67 67 67 68 69 68 67 68 70 72 74 74 73
59 59 60 62 63 64 65 65 66 67 68 69 69 69 70 70 69 69 68 67 65 64 65 65 66 67 69 69 70 70 70 71 73 73 71 71 74 76 77 78 78 78
62 62 63 64 65 65 66 67 67 68 69 70 70 71 71 71 71 71 71 69 67 66 66 68 70 71 72 72 73 73 74 75 76 76 76 77 79 81 80 79 79 79
65 65 66 67 67 68 68 69 69 70 71 71 71 72 72 72 72 72 72 71 69 68 68 70 73 74 75 75 75 76 77 78 79 79 79 80 81 82 82 82 81 81
68 68 69 69 70 70 71 71 71 72 72 72 72 72 73 73 73 73 72 71 70 70 71 73 75 76 76 76 76 77 78 80 81 81 81 82 82 83 83 83 83 83
70 70 71 72 72 73 73 74 74 74 74 73 73 73 73 73 73 72 71 71 71 72 72 74 76 77 77 77 77 78 79 80 81 82 82 83 83 84 85 85 85 85
72 72 73 74 74 75 76 76 76 75 75 74 74 74 73 73 72 70 70 70 71 73 73 74 76 77 77 78 78 78 80 81 81 82 82 83 83 84 85 85 85 85

ECMWFNIL_250_spd_018.txt.gz
Wind_Speed
52 51 54 55 50 46 47 48 48 49 49 49 49 47 43 39 37 38 40 41 42 42 41 40 39 37 37 37 37 37 37 37 38 38 38 37 36 35 34 34 35 35
54 55 56 56 51 47 48 47 46 48 50 51 50 49 47 44 41 40 41 42 43 43 43 43 42 41 39 39 38 38 39 39 39 40 39 39 39 38 37 36 36 36
55 57 57 54 52 51 51 49 49 50 50 50 50 49 48 46 44 43 43 43 43 44 44 44 44 44 43 42 41 41 41 41 42 42 42 41 41 40 39 38 38 38
53 56 56 56 56 58 58 55 52 50 49 50 50 49 48 46 45 45 46 46 45 45 44 45 45 46 46 46 45 45 44 44 44 44 44 44 43 42 41 41 40 40
53 55 56 58 61 62 60 57 54 52 51 50 51 50 49 49 49 49 48 49 48 47 46 45 45 46 47 48 48 48 48 48 47 47 47 47 46 45 44 43 43 42
55 55 57 61 62 62 61 58 57 56 55 54 52 51 51 50 49 48 48 48 49 49 49 48 47 47 47 48 49 50 50 50 50 50 50 50 49 48 48 47 46 45
54 56 58 59 60 61 62 62 60 59 59 58 56 54 52 50 49 49 49 50 51 52 51 51 50 49 49 48 49 50 51 52 52 52 52 52 52 51 51 50 49 48
51 54 57 58 60 62 65 65 64 62 61 61 60 59 57 56 56 56 56 56 55 55 54 53 53 53 51 50 50 50 51 52 53 54 54 54 54 54 53 53 53 52
55 57 59 62 64 65 66 66 66 64 63 62 63 63 63 63 63 64 64 63 62 60 58 56 55 55 54 53 53 53 53 53 53 54 55 55 55 55 56 56 56 55
59 61 63 64 64 64 64 64 66 66 65 65 65 66 68 69 69 69 70 70 69 66 63 59 56 55 56 56 56 56 56 55 54 54 54 55 55 56 57 58 58 58
62 63 64 63 62 61 61 61 63 66 66 66 66 66 69 72 73 72 72 72 69 65 60 56 53 52 53 56 58 59 58 57 56 56 56 55 55 56 58 59 59 60
57 58 59 60 60 59 59 60 62 64 64 64 63 61 63 67 70 70 70 69 67 64 59 55 54 53 52 53 55 57 59 60 59 59 59 58 57 58 59 59 59 60
44 49 53 55 56 56 57 60 61 61 61 62 61 59 59 63 67 69 69 68 67 65 62 59 56 53 52 52 53 53 55 57 59 60 61 61 60 60 60 60 59 59
50 53 55 55 56 56 57 59 60 59 59 58 57 59 63 66 68 69 68 68 68 67 64 60 56 54 53 54 56 55 55 55 57 59 61 62 63 63 63 62 61 61
57 58 58 57 57 57 57 59 59 59 59 57 56 59 66 69 70 70 68 69 70 70 67 63 61 60 60 60 61 61 60 59 59 60 61 62 63 65 66 66 65 66
59 58 58 58 58 58 58 59 60 60 60 59 59 61 65 67 69 70 70 70 71 71 69 67 65 65 65 65 65 64 64 64 64 63 63 63 63 64 66 67 68 69
60 59 59 59 59 59 60 60 61 61 61 61 61 62 64 65 66 67 68 68 68 68 68 68 68 69 69 69 68 67 66 66 66 66 66 65 66 66 66 67 67 68
61 60 60 61 61 61 61 61 62 62 62 63 63 63 64 65 66 66 66 67 67 68 69 71 72 73 73 72 71 69 67 66 67 67 67 67 68 68 68 67 66 66
61 61 61 62 62 62 62 62 62 62 63 63 63 64 65 66 67 68 68 69 70 72 73 74 75 75 75 73 72 70 69 68 67 67 68 69 69 70 70 70 68 67
61 61 62 62 63 63 62 62 62 62 62 62 63 63 64 65 66 67 69 70 71 73 74 74 75 75 74 73 73 72 71 70 69 69 69 70 71 72 73 72 72 71
61 60 61 62 63 63 62 62 61 61 61 62 62 63 63 64 65 66 68 69 71 72 73 73 74 74 74 74 74 74 73 72 72 72 71 71 72 73 74 75 75 75
61 61 62 63 63 63 62 62 61 62 62 62 62 63 64 65 66 67 68 69 71 72 73 74 74 75 75 75 75 76 76 75 75 75 74 74 74 75 76 77 77 78
62 63 63 63 63 62 62 62 62 62 63 63 64 64 65 66 67 68 69 70 71 73 74 75 75 75 76 77 78 78 78 78 78 78 78 78 77 77 78 78 79 80
62 63 63 63 63 63 64 64 64 64 65 66 66 67 68 68 69 69 70 71 72 73 75 76 77 77 77 78 79 80 80 81 81 81 80 80 80 80 80 81 81 81
63 64 64 65 65 66 66 66 67 67 68 68 69 70 70 71 71 71 71 72 73 74 76 76 77 78 78 79 80 80 81 82 82 82 82 82 82 82 82 83 83 83
66 66 67 67 68 69 69 69 70 70 71 71 72 73 73 72 71 71 71 72 73 75 76 77 77 77 78 79 80 81 81 82 83 83 83 83 83 83 83 84 84 85

ECMWFNIL_250_spd_021.txt.gz
Wind_Speed
48 48 50 51 51 48 47 47 48 47 48 48 47 45 45 46 46 45 42 41 40 41 43 44 43 43 42 39 37 36 37 38 38 36 34 33 33 33 33 33 32 31
45 47 50 53 54 52 49 48 48 49 49 49 49 47 47 48 48 46 43 42 42 44 45 46 46 46 45 43 40 38 38 39 40 40 39 37 36 35 35 35 35 34
44 45 48 52 54 54 52 50 48 49 50 50 51 51 51 51 50 49 46 46 47 48 48 47 47 47 46 45 43 42 40 40 41 42 42 41 40 38 37 37 37 36
50 49 50 51 53 53 53 52 49 48 49 51 52 53 54 54 53 53 52 52 52 51 49 47 46 46 45 45 44 43 43 42 43 43 43 44 44 43 41 40 39 38
56 55 54 54 54 54 54 54 53 51 51 52 53 54 55 55 54 55 54 54 54 53 51 49 48 46 45 45 45 44 43 43 43 43 43 44 45 45 45 44 43 42
59 58 57 57 57 55 55 55 55 55 55 55 55 55 55 55 55 56 56 56 55 53 52 51 50 49 47 46 45 45 44 43 43 43 43 44 45 46 47 47 47 46
59 59 59 58 57 56 56 56 57 58 58 57 56 56 56 57 57 58 59 59 57 56 55 54 53 52 50 49 48 47 47 46 45 45 45 45 45 47 48 49 49 49
59 60 59 58 57 56 55 56 57 59 59 59 58 58 58 59 60 61 62 62 61 60 59 58 57 56 55 54 53 53 52 51 50 50 49 49 48 49 49 49 50 50
60 60 61 60 59 58 56 56 58 60 61 61 60 59 59 60 61 62 63 64 64 64 63 61 60 59 58 58 58 58 57 56 56 55 55 54 53 52 51 51 51 51
59 60 61 61 61 61 61 60 61 62 63 63 63 63 63 63 63 64 65 66 66 65 63 62 61 61 61 61 60 60 60 59 59 59 58 57 55 54 53 53 52 52
57 58 59 59 60 61 62 63 63 63 63 64 65 66 67 66 65 65 66 66 65 64 62 61 61 61 61 61 61 61 61 60 60 59 58 56 53 52 52 53 54 53
54 55 55 57 58 58 59 60 62 63 63 63 64 65 67 68 68 67 66 65 63 62 61 60 59 60 59 59 59 60 60 59 58 56 55 53 52 52 53 54 54 55
53 53 53 54 54 54 53 55 58 60 61 62 63 64 65 65 66 65 63 61 59 57 58 59 58 58 57 57 57 57 58 57 56 56 55 55 54 54 55 55 54 54
54 54 53 52 52 52 51 52 55 56 57 59 61 62 61 58 57 57 56 56 55 54 54 54 56 58 55 53 53 54 55 57 57 58 58 57 55 54 54 54 52 51
55 54 54 53 53 54 54 56 58 56 55 56 55 55 55 52 50 50 50 51 52 53 50 46 49 57 57 53 52 53 55 57 59 60 60 60 58 55 54 55 54 53
55 55 56 55 55 56 56 57 58 55 54 53 51 50 53 54 54 53 52 52 53 55 53 50 52 60 63 59 56 55 56 57 59 60 61 62 61 60 58 59 60 60
57 58 58 58 57 57 57 57 58 58 58 57 56 54 55 57 58 57 56 55 55 55 58 60 61 63 64 63 62 61 60 59 59 60 60 61 62 62 62 63 64 64
59 59 59 59 59 59 59 59 60 62 62 62 61 60 60 61 62 61 58 57 56 57 61 63 63 63 64 65 66 66 65 64 63 63 63 62 61 62 63 64 65 66
60 60 60 60 60 61 61 61 62 63 63 63 63 63 65 67 68 67 65 63 62 64 66 67 66 66 67 68 68 68 67 67 67 67 67 67 66 66 67 68 69 69
61 61 61 61 62 63 64 65 65 65 66 66 66 66 67 69 69 69 69 68 68 69 70 71 70 70 70 70 70 69 69 69 69 70 71 71 72 72 73 73 72 72
62 62 62 63 64 65 66 67 67 67 67 67 68 68 69 70 70 70 70 69 70 71 72 72 72 71 71 70 70 70 70 70 71 72 73 74 75 76 76 76 76 75
63 63 63 64 65 66 67 68 68 68 67 66 66 67 69 69 70 70 70 70 71 71 72 72 72 71 71 71 71 71 71 71 71 72 73 74 75 77 78 78 78 78
63 63 64 65 66 67 67 67 67 66 66 65 65 65 66 68 69 70 70 70 70 70 71 71 71 71 71 71 71 71 71 71 72 72 73 74 76 77 78 79 80 80
62 62 64 65 66 67 67 66 66 65 64 64 65 65 65 66 67 68 69 70 70 70 70 71 71 71 71 71 72 72 72 72 73 74 75 76 77 78 79 80 81 82
60 61 63 65 65 66 67 67 66 65 65 65 65 66 65 65 66 67 68 69 70 70 71 71 72 72 72 72 73 73 73 74 75 76 77 78 79 80 81 82 83 83
59 60 63 65 65 66 67 67 67 67 67 67 66 66 65 65 66 66 68 69 70 71 72 72 73 73 72 73 73 74 75 76 77 78 79 80 81 81 82 83 84 84

ECMWFNIL_250_spd_024.txt.gz
Wind_Speed
38 37 37 38 38 39 45 45 41 40 41 41 42 41 41 42 42 44 44 44 44 43 42 40 38 36 35 35 34 34 34 35 35 35 35 35 35 35 34 33 32 32
42 41 41 41 40 40 44 46 45 44 44 44 45 44 44 44 43 44 44 45 45 44 44 42 40 39 38 38 39 39 38 38 38 37 37 37 37 37 36 35 34 34
42 43 44 44 43 43 45 46 47 48 49 49 49 48 47 45 44 43 44 45 46 46 45 44 44 43 43 43 44 44 44 43 41 40 39 38 38 37 37 37 36 36
42 43 45 46 46 46 47 48 49 50 52 52 52 51 50 48 46 45 44 44 44 45 46 46 46 47 47 48 48 47 47 46 44 42 41 40 39 39 39 39 38 37
47 46 47 49 50 50 51 52 54 54 55 55 54 54 54 52 50 49 48 46 45 45 46 46 47 48 49 49 49 49 48 47 45 44 43 42 42 42 41 40 39 38
53 52 52 53 54 53 53 54 56 57 58 57 56 56 56 55 54 52 51 50 49 48 48 48 49 49 49 49 49 49 49 48 48 46 45 45 44 44 43 42 41 39
55 56 55 56 56 55 53 52 52 54 56 57 57 57 57 57 57 55 53 52 52 52 52 52 51 51 51 51 51 51 51 51 51 50 49 48 47 46 45 44 43 42
57 58 58 58 58 58 57 56 54 55 56 57 58 57 57 57 58 58 56 55 54 54 54 54 53 53 52 53 53 53 53 53 53 53 52 51 50 48 47 47 47 47
58 59 60 61 61 61 62 62 62 61 61 60 60 59 58 58 59 59 59 58 57 55 55 55 55 54 54 55 55 55 55 56 55 54 54 54 52 51 50 51 52 52
58 59 59 61 62 62 63 64 64 64 63 63 62 62 62 61 60 59 59 59 59 58 57 57 57 58 58 58 59 59 60 59 58 57 56 56 54 52 52 52 53 54
58 58 58 59 60 61 62 62 63 63 62 62 62 62 62 62 61 60 60 59 60 60 60 59 59 60 60 61 61 62 61 61 60 60 59 58 56 54 53 52 53 53
57 57 57 57 57 58 59 60 60 60 60 59 59 60 60 60 60 60 59 59 60 60 60 60 60 61 61 62 62 62 62 62 62 62 61 58 56 55 54 53 52 51
56 56 56 55 55 56 56 57 57 56 56 56 56 57 57 57 57 58 58 58 58 58 58 58 58 59 61 61 62 62 61 61 60 58 57 55 54 53 53 53 52 51
55 55 55 54 54 55 55 55 54 54 54 54 54 54 54 55 55 55 56 57 57 56 56 56 57 59 60 60 61 60 58 56 55 55 54 52 51 50 50 51 50 49
55 55 55 55 55 55 55 55 54 53 53 53 52 51 53 54 55 55 57 58 57 56 55 54 55 55 58 60 58 56 55 55 56 57 55 52 48 46 46 47 46 46
57 57 57 57 57 57 57 56 55 54 54 53 52 51 52 54 55 57 60 60 59 57 53 51 52 53 57 61 59 55 56 57 57 57 56 51 47 45 46 47 46 46
57 58 58 58 58 58 58 57 56 56 56 55 55 54 53 54 54 57 60 60 59 57 54 52 55 56 58 62 61 59 58 58 57 58 58 55 51 49 50 50 49 50
58 59 59 59 58 58 58 58 57 58 57 57 56 54 53 55 57 57 59 59 58 58 56 56 59 59 59 62 63 60 57 56 56 59 61 62 60 58 57 56 55 55
61 60 60 59 59 60 59 59 59 59 59 58 57 54 54 58 60 59 59 59 59 60 60 60 61 62 63 65 64 62 59 60 62 64 65 66 66 65 64 63 61 60
64 63 62 62 61 61 61 61 61 61 60 60 59 57 58 61 62 61 60 59 60 62 63 64 64 65 66 67 66 66 66 67 68 69 69 69 69 69 68 67 66 65
67 66 65 65 64 63 63 63 63 62 61 61 60 60 61 64 64 64 63 62 62 64 66 68 69 70 71 71 71 71 71 70 70 71 72 71 71 71 70 69 69 68
68 68 67 67 67 66 65 64 63 62 61 61 62 62 63 65 67 68 68 68 68 69 70 72 73 73 74 74 75 74 73 72 72 72 72 73 73 72 72 71 70 69
67 67 68 68 67 67 65 64 64 63 63 63 64 65 66 67 69 70 71 72 73 73 74 74 75 76 76 76 76 75 74 73 72 71 72 72 73 73 73 72 71 71
63 65 66 66 65 65 64 64 64 65 65 66 67 68 69 70 71 71 72 73 74 75 75 75 76 76 76 76 75 74 73 72 71 71 71 72 72 73 73 72 72 72
61 61 61 61 61 61 61 62 63 64 65 66 68 69 70 70 71 72 73 74 75 75 76 76 76 76 76 75 74 72 72 72 71 71 71 71 72 72 72 73 72 72
61 60 60 59 59 59 58 59 61 62 63 65 66 67 69 70 71 72 73 74 74 74 75 75 74 74 73 72 71 71 71 71 72 72 71 71 71 72 72 72 72 73

ECMWFNIL_250_spd_027.txt.gz
Wind_Speed
36 35 35 36 37 36 37 37 37 37 36 35 35 36 36 36 36 35 34 34 33 33 34 35 36 36 37 38 39 40 40 39 38 36 35 34 33 31 30 30 30 29
38 38 37 38 38 37 37 37 38 39 39 39 39 38 37 37 37 36 35 35 34 34 35 36 37 37 36 37 38 39 40 40 40 39 37 36 35 34 34 34 34 32
41 40 38 38 39 39 39 39 39 40 41 42 43 42 40 40 39 39 39 38 37 37 37 37 37 37 37 37 37 38 40 40 41 41 40 39 38 38 37 36 35 34
44 43 41 40 40 41 41 42 42 43 43 45 46 46 45 44 43 43 42 41 41 40 40 40 39 39 39 39 39 39 40 41 42 43 43 42 42 41 39 38 36 35
47 46 46 45 44 44 44 44 45 46 47 49 49 49 49 49 49 48 47 46 45 44 43 42 42 41 41 41 41 41 41 42 42 43 43 43 43 42 41 39 38 37
49 49 48 48 48 48 48 49 50 51 52 53 53 52 51 52 53 53 52 51 49 48 47 46 45 45 45 45 45 44 44 44 43 44 44 44 44 44 42 41 40 40
51 51 50 50 51 51 51 51 52 54 54 54 54 54 54 54 54 54 53 52 51 49 49 48 48 48 48 48 48 48 47 47 46 46 46 46 46 46 45 44 43 42
51 52 52 52 52 52 52 52 53 54 54 55 55 56 56 55 54 53 53 52 51 50 50 50 50 50 50 50 50 50 50 50 50 49 49 49 48 48 47 46 45 44
53 53 54 54 54 53 53 53 53 54 54 55 56 58 59 59 58 57 56 56 57 56 56 55 55 55 54 54 53 53 53 53 52 52 52 51 50 50 49 49 48 48
55 56 56 57 56 56 55 54 54 54 54 54 55 57 59 60 62 62 62 62 62 62 61 60 59 58 57 56 55 54 54 54 54 54 54 54 53 52 52 52 51 51
58 59 59 59 59 58 57 57 56 56 56 55 56 56 57 58 59 61 62 63 63 63 62 61 60 59 58 56 54 53 53 54 54 55 55 55 54 54 54 53 53 52
61 61 62 61 61 60 59 58 58 57 57 57 56 56 56 56 56 57 58 59 60 60 59 59 58 57 56 55 54 53 53 53 54 54 55 55 55 54 53 53 52 51
63 63 63 62 62 62 61 60 59 58 58 58 57 56 55 55 54 54 55 56 56 55 55 54 54 53 54 54 54 54 54 54 54 53 53 53 52 52 52 51 50 49
63 63 63 63 63 63 63 62 61 60 59 58 57 56 55 54 54 54 54 53 53 53 53 52 52 52 53 54 54 54 53 53 52 52 51 50 50 50 50 49 47 45
64 64 64 64 64 64 64 63 62 61 60 58 57 56 55 54 53 53 52 52 52 52 52 52 52 53 53 54 54 54 54 53 53 52 51 50 49 49 48 47 45 44
66 66 66 65 65 65 64 64 63 62 60 59 57 56 56 56 55 54 54 53 53 52 51 52 53 54 54 54 55 55 55 55 55 54 52 51 50 49 48 48 47 47
69 69 68 68 67 66 65 64 63 62 60 59 57 57 57 57 57 56 56 56 56 55 53 53 54 54 54 55 55 55 55 55 56 55 54 53 52 51 50 50 50 49
71 71 71 70 69 67 66 65 64 62 61 59 58 57 58 59 60 59 57 57 57 57 56 56 55 54 55 55 54 54 54 55 56 57 57 56 56 54 52 51 51 52
73 73 72 71 70 69 68 66 65 63 61 59 57 56 57 60 62 62 59 59 58 57 56 57 57 56 57 58 56 54 53 55 57 58 58 58 58 57 55 54 53 54
74 74 74 73 72 71 70 68 67 65 63 60 58 57 58 61 64 63 61 60 59 57 55 55 55 56 58 60 59 57 56 56 58 59 60 59 58 58 58 57 57 57
76 76 76 75 74 73 71 70 69 68 65 63 61 61 61 63 65 65 64 63 62 61 60 59 58 58 60 62 63 63 62 61 60 60 61 61 60 60 60 60 61 62
77 77 77 76 75 73 72 71 70 69 68 66 65 65 65 66 67 67 66 65 64 65 65 65 65 65 66 67 67 68 67 66 64 63 63 63 63 63 63 64 65 66
75 76 76 75 73 72 71 71 71 70 69 68 68 68 68 69 69 69 68 67 67 67 68 69 70 70 70 71 71 71 70 69 68 67 66 66 66 67 67 68 68 69
71 72 72 72 71 69 69 69 69 69 69 68 68 68 69 69 70 70 70 70 71 71 71 71 72 73 73 73 73 73 73 72 71 70 69 68 69 70 70 70 71 71
68 68 69 69 68 66 65 65 65 65 65 65 65 66 66 67 67 68 69 70 71 72 73 73 74 74 74 74 74 74 74 74 73 72 71 71 71 72 72 72 72 71
67 67 68 68 67 65 63 61 61 62 61 61 61 62 62 62 63 64 65 67 69 70 72 73 74 75 75 75 75 75 76 75 75 74 73 73 73 73 73 72 72 70

ECMWFNIL_250_spd_030.txt.gz
Wind_Speed
28 29 31 33 34 33 32 31 31 32 33 33 32 31 31 31 31 31 31 31 31 32 32 32 33 33 33 33 32 32 31 32 32 33 34 35 36 37 38 38 38 37
32 33 35 38 38 37 36 34 33 33 34 34 34 33 32 32 32 32 32 32 32 33 33 32 32 33 33 33 33 33 33 33 33 33 34 34 34 36 37 39 40 40
38 38 40 43 43 41 39 38 37 36 36 36 36 35 35 34 34 34 34 33 33 34 34 35 35 35 35 36 36 36 36 36 35 35 34 34 35 35 36 38 40 42
43 43 44 43 41 40 41 41 41 41 40 39 39 38 38 38 37 36 36 36 35 36 36 37 38 38 39 39 39 39 39 39 38 38 37 37 37 37 37 38 39 41
47 47 46 44 42 41 41 42 43 43 43 43 42 41 41 40 40 39 39 38 38 38 38 39 40 41 41 41 41 41 41 41 41 41 40 39 39 40 40 40 40 41
50 50 50 49 48 46 43 42 42 43 45 46 46 46 45 45 45 45 44 42 41 41 41 42 42 43 43 43 43 43 43 43 42 42 42 41 41 41 41 42 42 42
50 51 52 52 52 49 44 42 42 44 47 49 49 49 48 48 49 49 49 48 47 47 46 46 46 46 46 47 47 47 46 46 45 44 44 43 43 43 44 44 44 44
50 51 53 53 53 50 47 45 46 48 50 52 52 51 50 49 49 49 50 51 51 51 51 51 52 52 52 51 51 50 50 49 49 49 49 48 48 48 48 48 48 48
52 53 54 55 55 54 51 50 52 54 54 55 54 52 50 49 49 49 50 51 52 53 53 53 54 55 56 56 56 56 55 55 55 55 55 55 55 54 53 52 51 51
54 54 56 57 59 59 56 54 56 59 59 58 56 55 54 53 52 52 52 52 53 53 53 53 53 54 55 57 59 60 60 60 60 60 60 60 59 58 56 54 52 52
55 55 55 57 60 61 60 58 60 61 61 59 58 57 57 56 56 56 55 55 54 54 54 54 54 54 55 56 57 58 58 59 60 60 60 60 58 57 55 52 51 50
62 62 62 62 62 61 61 61 63 63 62 60 59 59 59 59 59 58 57 57 56 56 56 56 56 56 56 56 56 56 56 56 56 57 57 57 56 54 52 50 48 47
70 70 70 67 64 62 62 64 65 65 63 62 62 62 62 62 61 60 59 58 58 58 58 58 58 57 57 57 56 56 55 55 55 55 54 54 53 52 50 49 48 47
71 70 68 66 64 64 66 67 67 66 65 64 64 64 64 64 63 62 61 60 60 60 59 59 59 58 58 57 56 55 55 54 53 53 53 52 52 51 49 48 47 47
69 68 67 67 68 69 70 70 69 68 67 66 66 66 66 65 65 64 63 62 62 61 61 60 59 58 58 57 55 54 53 52 51 51 51 51 51 50 49 48 46 46
73 73 73 73 73 72 72 71 71 70 69 68 66 66 66 66 66 65 65 64 64 63 62 60 59 58 58 57 56 56 55 54 53 54 54 53 52 51 50 48 47 47
78 77 77 76 74 73 73 72 72 72 71 69 68 67 67 67 67 66 66 65 65 63 62 61 60 59 58 58 58 58 57 56 56 56 56 56 54 53 52 51 50 50
75 75 74 74 74 74 74 74 73 73 72 71 70 69 69 69 69 68 67 66 64 62 61 60 60 59 59 59 59 59 59 57 56 56 56 56 55 54 54 52 51 52
73 74 74 74 75 75 76 76 75 75 74 74 73 72 72 71 70 69 68 66 64 63 61 60 60 60 60 60 61 61 60 59 58 58 58 56 55 55 54 53 51 51
75 76 76 76 77 77 78 78 78 78 77 76 75 74 73 72 72 71 70 68 67 65 64 62 62 63 62 62 62 61 61 60 60 60 59 57 55 55 55 54 54 54
77 78 78 79 79 80 80 81 81 80 80 79 77 76 75 73 73 74 73 71 70 69 68 66 65 64 63 62 62 62 61 60 59 59 58 56 56 56 57 58 59 59
80 81 81 82 82 83 83 83 83 83 82 81 80 79 77 76 76 76 76 74 72 71 71 69 67 66 65 65 64 64 64 63 62 61 61 61 61 61 62 63 63 64
84 84 85 85 85 85 85 85 85 85 84 83 81 80 78 77 76 76 75 74 73 72 72 71 69 69 69 68 68 68 67 67 66 67 67 67 67 67 67 67 67 68
84 84 84 83 83 82 82 82 82 82 81 80 79 78 76 75 74 73 73 73 73 72 71 70 71 71 71 72 72 72 71 71 71 71 72 72 71 70 70 70 71 71
77 77 77 76 75 75 75 75 75 75 75 75 75 74 73 71 70 70 71 73 74 74 72 72 72 73 73 74 75 75 75 75 75 75 75 75 74 74 73 73 74 74
72 72 72 71 71 70 70 70 71 71 71 70 71 71 69 68 67 68 68 70 72 73 73 72 72 72 73 74 75 76 76 77 76 76 75 76 75 75 76 76 76 77

ECMWFNIL_250_spd_033.txt.gz
Wind_Speed
36 31 28 28 30 31 31 30 29 28 27 26 26 25 24 23 23 23 24 24 25 25 25 26 28 29 30 30 31 31 32 34 35 36 36 37 38 39 39 39 40 40
44 40 37 37 38 37 35 33 33 33 32 31 32 31 29 28 26 26 26 26 26 26 26 27 28 29 29 29 30 30 30 31 32 33 34 35 36 37 37 38 38 39
48 47 47 45 44 43 41 39 38 37 36 36 36 36 35 33 32 31 30 29 29 29 29 30 30 31 31 31 32 32 32 32 33 34 35 36 37 38 38 39 39 39
52 51 50 48 47 47 46 45 43 41 40 40 40 39 38 37 37 37 34 32 31 31 31 31 32 32 32 33 34 34 34 35 36 36 37 38 39 40 41 41 41 41
57 55 52 50 49 48 48 47 45 43 43 43 42 41 40 40 41 40 38 35 34 34 34 34 34 34 34 34 35 36 36 37 38 39 40 41 42 42 43 43 43 43
56 54 51 49 47 47 47 46 46 46 46 45 44 44 44 44 44 43 41 39 38 38 38 38 38 38 38 38 38 38 39 39 40 40 41 42 43 44 44 44 44 44
55 54 52 50 49 48 48 47 48 48 48 47 46 46 47 46 45 43 41 40 40 40 40 41 42 42 42 42 42 42 42 42 42 42 43 44 44 45 45 45 45 45
55 55 55 54 52 51 49 49 49 48 47 47 47 47 47 47 46 45 43 43 43 43 43 44 45 46 46 46 46 46 46 46 46 46 46 46 47 47 47 48 48 48
55 55 55 55 54 53 51 50 50 50 49 49 49 48 48 48 48 48 48 49 48 48 48 48 49 49 49 49 49 49 48 48 49 49 50 50 50 50 50 51 51 52
58 58 57 57 57 56 55 54 54 54 53 53 52 52 51 51 51 50 49 51 53 53 52 51 51 51 52 52 52 52 51 51 51 52 51 51 52 52 52 52 53 53
61 63 63 62 62 61 59 58 58 57 57 56 55 54 54 54 52 50 50 53 56 56 55 55 54 54 54 54 55 55 54 54 54 54 53 53 53 53 52 52 52 52
64 67 68 68 67 65 63 62 61 61 60 59 58 57 56 55 54 55 58 60 59 58 58 58 57 56 56 57 58 58 57 57 56 55 55 55 54 53 52 52 51 51
68 69 70 71 70 68 67 66 65 65 65 64 63 61 60 60 61 64 65 63 60 59 59 59 59 59 60 60 60 60 59 58 58 57 57 56 55 54 52 51 50 50
71 72 72 72 71 70 68 68 68 68 68 69 68 67 66 67 68 67 65 62 61 61 61 61 62 62 62 63 63 62 61 60 59 58 57 56 55 54 52 50 49 48
76 76 76 74 73 71 68 67 67 67 68 68 69 70 70 69 68 66 64 63 63 63 62 62 63 63 64 65 64 63 63 62 60 59 57 56 55 53 51 49 47 46
77 78 79 77 76 75 72 70 70 71 71 71 72 72 71 70 69 67 67 66 65 65 64 64 64 64 65 66 65 64 64 62 60 59 58 56 54 51 49 47 45 45
74 75 77 77 78 77 76 76 78 78 77 75 74 72 71 71 70 69 69 68 67 67 66 65 64 63 64 64 64 63 63 62 61 60 58 56 53 49 47 46 44 42
73 73 74 75 76 77 78 79 81 80 79 77 75 73 71 71 71 71 69 68 68 68 67 67 65 63 63 63 62 62 62 61 60 58 56 54 52 49 49 47 44 42
73 74 74 73 74 74 76 77 78 78 79 78 77 75 71 68 69 69 69 68 68 68 68 67 64 62 62 62 61 62 62 61 60 58 57 56 54 53 52 49 46 46
72 73 74 74 74 74 74 74 75 75 75 75 75 73 71 69 70 70 69 69 70 69 69 68 65 63 64 65 65 65 65 64 65 63 61 59 58 54 49 43 43 47
72 73 74 74 74 74 75 75 75 75 75 75 75 74 74 75 74 74 74 74 73 72 71 70 68 68 71 72 72 72 72 71 71 69 65 62 59 56 52 49 49 51
72 73 74 74 75 76 76 76 76 76 76 77 77 77 77 78 78 79 79 78 78 78 77 76 74 75 77 78 78 78 77 75 74 71 67 64 61 61 61 61 62 61
73 74 75 76 76 77 78 78 79 79 79 79 80 80 80 80 81 81 81 82 81 82 82 81 80 81 82 81 81 80 78 76 73 70 68 65 63 63 63 64 65 66
75 76 77 78 79 80 80 80 81 81 82 82 83 83 83 83 84 84 84 84 83 83 83 82 79 79 80 80 78 77 75 74 71 69 67 65 64 65 65 66 67 69
77 78 79 80 82 83 83 83 84 84 84 85 85 86 86 86 86 85 83 83 81 80 79 77 73 72 73 73 72 71 70 69 67 66 66 67 67 67 68 69 69 70
75 76 78 79 80 81 82 82 83 83 83 83 83 83 83 82 80 79 78 77 75 74 72 70 68 67 67 68 68 68 67 67 66 65 67 69 69 68 70 71 71 72

ECMWFNIL_250_spd_036.txt.gz
Wind_Speed
41 42 42 43 45 43 41 38 34 30 28 27 27 27 27 28 29 29 27 25 24 23 22 21 22 24 26 29 31 34 36 39 41 44 46 48 49 51 53 54 56 57
45 44 43 43 44 42 41 40 37 35 34 34 34 34 34 34 36 36 35 33 31 29 28 26 26 26 26 28 29 29 30 31 33 35 37 39 41 42 44 46 47 48
48 46 46 45 45 43 41 40 40 41 41 41 40 40 38 38 40 41 41 40 38 36 35 33 32 31 30 30 30 30 30 30 30 31 33 34 35 36 37 38 39 40
48 47 47 47 46 45 43 41 41 42 44 45 44 44 42 42 43 45 45 43 41 40 40 39 38 36 34 33 32 32 32 32 31 31 32 33 34 35 36 37 37 38
50 49 48 47 47 46 45 43 42 43 45 46 47 47 47 47 48 49 49 47 45 43 43 43 41 40 38 36 35 35 35 35 34 34 33 33 34 35 36 36 37 38
54 52 49 48 48 48 47 46 45 46 47 48 49 50 51 52 52 52 52 50 48 47 47 46 45 43 41 40 38 38 38 38 38 37 37 36 37 37 38 38 39 40
56 54 52 50 49 49 49 49 49 50 50 50 52 54 55 56 56 56 55 53 51 50 50 49 48 46 44 43 42 41 41 41 41 42 42 42 41 41 41 41 42 42
58 58 56 54 53 52 51 51 53 54 54 54 54 56 58 59 59 59 59 58 56 55 53 52 51 49 47 46 45 45 45 45 46 46 47 48 47 46 46 45 45 45
60 61 61 60 58 57 55 54 56 57 58 59 59 59 60 60 61 61 61 60 59 57 56 54 54 52 51 49 48 48 47 47 47 49 51 52 52 50 49 48 48 48
61 63 65 64 63 62 61 60 60 60 61 62 64 64 64 63 63 62 61 60 59 57 57 56 55 54 53 51 51 50 49 47 50 54 56 56 55 52 51 51 50 51
63 64 66 68 67 66 66 65 65 65 65 65 66 67 67 67 65 64 62 60 59 58 58 58 57 56 55 54 53 52 51 52 57 60 59 58 56 54 53 52 52 52
62 61 63 66 68 69 70 70 69 68 67 67 66 67 67 66 66 64 63 62 62 62 61 61 60 60 59 58 56 55 55 59 62 62 60 58 57 55 54 53 53 54
56 54 54 59 64 68 70 71 71 70 69 68 66 66 66 66 66 67 67 67 67 66 64 64 63 63 64 64 63 61 62 63 63 61 59 58 57 57 56 55 55 55
57 55 55 59 64 69 71 72 72 72 71 71 70 69 68 67 68 68 68 68 68 68 67 65 64 63 63 64 64 64 64 63 62 60 59 58 57 57 56 56 55 56
65 64 64 67 69 71 72 74 74 74 74 74 73 71 70 69 69 68 68 68 68 68 67 65 65 63 61 61 63 64 65 64 63 62 60 59 58 57 56 56 57 57
72 71 71 71 71 71 72 73 74 75 76 76 75 73 71 72 72 73 72 71 71 69 67 66 65 63 62 65 68 67 66 66 65 62 59 57 56 56 56 57 58 58
75 75 74 74 74 73 72 71 71 72 73 74 74 74 74 74 74 74 74 74 74 74 73 71 68 66 68 72 72 69 68 68 65 62 59 57 55 55 55 55 55 55
73 74 75 76 76 75 74 72 70 69 69 70 70 71 71 72 73 73 73 75 76 76 76 74 73 74 77 77 74 73 72 70 67 64 62 61 59 56 53 49 48 49
74 73 72 72 73 74 73 72 71 70 68 67 68 70 70 70 71 72 72 74 74 75 75 75 75 78 79 78 77 75 72 69 67 65 64 64 62 59 55 52 51 52
77 75 73 72 72 73 72 71 69 66 64 61 60 62 66 68 69 71 71 72 73 75 76 75 75 76 76 75 75 73 70 68 67 67 67 66 65 63 60 59 58 58
77 77 76 76 76 76 76 74 71 69 68 65 63 64 68 70 72 73 73 74 75 75 75 75 74 74 75 75 74 73 72 71 71 72 71 70 68 67 67 66 65 64
75 76 75 75 76 76 76 76 75 74 74 74 75 76 77 77 78 78 77 77 76 75 75 75 75 75 75 76 76 76 75 75 75 75 75 74 72 71 72 73 72 72
73 74 74 74 74 74 74 74 74 74 74 75 77 78 79 79 79 79 79 78 77 76 76 76 75 74 74 76 77 78 78 78 78 78 78 77 75 73 74 74 75 76
72 73 73 73 73 73 73 73 74 75 74 75 76 77 78 78 79 79 79 79 78 78 78 78 76 76 76 78 80 80 81 81 80 80 80 79 78 76 75 75 75 74
73 74 74 74 74 74 73 73 74 74 75 75 75 76 77 78 79 79 79 80 80 80 81 80 80 80 82 84 84 84 85 84 82 80 77 75 75 75 73 72 71 70
74 74 74 75 75 75 74 73 73 74 75 75 75 76 77 78 79 80 80 81 81 82 82 82 81 81 80 81 81 81 82 81 78 75 70 67 67 66 64 65 66 66

ECMWFNIL_250_spd_039.txt.gz
Wind_Speed
46 44 43 44 45 45 44 44 45 45 46 46 46 46 46 46 44 42 41 39 38 38 36 35 33 30 28 27 27 26 24 24 24 25 27 30 33 36 38 40 42 44
47 46 45 46 47 48 49 49 49 48 47 47 47 47 46 46 46 45 45 44 43 42 41 40 38 35 33 32 32 32 31 29 28 26 27 28 30 32 34 36 38 40
50 50 51 51 51 52 52 52 51 50 49 48 49 50 49 49 48 47 46 45 44 43 42 41 40 39 38 37 37 37 36 34 31 30 29 29 30 31 32 34 35 37
51 53 54 54 54 54 54 54 53 52 51 49 49 49 50 50 49 48 46 45 45 44 43 42 42 42 41 40 40 40 40 38 36 34 33 33 32 33 33 34 35 36
47 49 51 52 53 54 54 55 56 55 54 52 50 49 49 49 49 48 48 47 46 46 45 45 45 45 44 44 43 43 43 43 41 40 38 37 36 35 35 36 36 37
42 43 45 47 49 51 53 55 56 57 57 56 54 53 51 50 49 49 49 49 48 48 49 49 49 49 48 48 47 47 46 46 46 45 43 41 39 38 38 39 39 39
40 41 41 42 45 48 50 53 55 57 57 57 57 56 55 53 52 51 51 51 52 52 53 53 53 53 52 51 51 51 50 50 50 49 47 45 43 42 41 42 42 43
34 36 37 38 41 44 47 50 52 55 57 57 58 59 59 58 57 55 55 54 55 55 55 55 55 55 54 54 54 54 54 54 53 53 52 49 47 45 45 45 46 47
30 36 43 47 47 47 48 50 52 55 57 58 59 60 60 60 60 59 59 58 58 57 57 56 56 56 56 56 56 57 57 57 57 57 55 52 50 50 49 49 49 50
32 34 42 49 53 56 58 58 57 58 59 60 61 61 62 62 62 63 63 63 63 62 60 59 58 58 57 56 56 56 57 58 59 58 56 55 54 53 52 53 53 54
38 35 36 40 45 48 49 51 53 55 57 59 61 62 63 64 63 64 65 65 65 65 63 62 61 59 59 58 57 57 58 59 59 58 58 57 57 56 55 57 57 58
43 43 43 42 40 38 37 40 45 49 52 55 58 60 61 62 62 63 64 64 65 64 63 62 61 60 59 59 59 59 60 61 61 61 60 60 58 57 57 58 59 60
47 50 51 48 45 44 42 41 43 47 52 55 58 60 60 61 61 61 62 63 63 63 63 62 62 62 62 62 62 62 63 63 64 63 63 62 60 59 59 59 60 61
50 53 57 57 57 55 50 46 46 49 53 55 56 58 60 60 60 60 60 60 61 62 63 64 65 65 66 67 68 68 68 69 68 68 67 66 65 65 65 64 63 62
52 51 53 58 61 61 59 58 60 59 57 56 53 52 54 55 57 59 60 62 64 65 66 66 67 68 69 70 71 71 72 72 72 71 71 71 70 70 70 69 67 66
54 54 54 57 62 65 67 68 64 59 55 54 53 52 51 53 57 60 63 65 67 67 67 68 68 69 69 70 71 71 72 72 72 73 73 73 72 71 71 71 71 71
59 62 62 63 66 68 67 62 56 52 51 51 52 54 55 56 58 60 63 65 66 67 68 68 69 70 71 72 72 72 73 73 73 74 74 73 72 71 72 72 72 72
63 65 62 60 60 56 50 46 45 49 52 52 52 55 57 58 60 61 63 65 64 65 65 66 68 71 72 73 74 75 75 75 75 74 73 72 71 71 72 72 72 72
64 64 60 56 54 49 46 46 48 53 57 57 57 59 61 63 65 66 67 67 67 66 65 66 69 70 72 73 74 74 74 73 73 71 70 70 69 70 71 72 73 73
66 65 63 60 58 56 56 58 60 63 66 67 67 69 72 73 73 71 70 69 69 69 68 69 70 71 72 73 73 72 71 69 68 68 69 70 70 71 71 71 71 71
70 69 68 68 67 66 67 68 70 73 76 78 80 81 82 81 80 78 75 74 74 74 74 74 74 74 74 74 74 72 70 69 69 70 71 72 72 72 71 69 69 70
77 77 77 77 78 78 79 80 81 83 84 86 87 87 86 85 84 83 81 80 79 79 79 78 78 77 76 75 74 72 72 72 73 74 74 74 73 73 73 72 72 72
79 79 79 79 80 81 82 83 84 85 86 87 88 88 88 87 86 85 84 82 81 80 80 79 78 76 75 74 74 75 75 76 76 76 76 75 75 74 74 74 74 75
77 77 77 77 78 78 79 80 81 82 83 84 84 84 85 84 84 83 83 81 80 80 80 78 77 76 75 75 76 77 77 77 77 77 77 77 77 76 76 76 77 78
74 75 75 76 77 77 78 79 79 80 80 80 80 80 81 81 81 80 80 79 79 79 78 77 77 77 76 77 77 77 78 79 79 79 79 80 80 80 79 80 81 82
75 75 76 77 77 78 78 78 78 79 79 79 79 79 79 79 79 79 79 79 78 78 78 78 79 79 79 79 80 80 81 81 82 82 83 84 84 84 83 83 84 84

ECMWFNIL_250_spd_042.txt.gz
Wind_Speed
48 48 49 47 44 42 42 43 45 45 44 44 43 42 42 41 40 39 38 38 38 38 38 38 38 38 39 40 40 38 36 35 33 32 31 30 29 28 28 29 29 29
50 51 51 51 49 49 49 49 50 50 49 48 47 47 46 45 43 41 39 37 37 37 38 39 40 40 41 41 39 38 37 37 36 35 35 34 32 30 30 30 31 32
49 50 51 52 53 54 53 53 54 54 53 51 49 47 46 45 44 43 40 38 37 37 38 39 40 41 41 40 39 38 38 38 38 37 37 37 36 35 34 34 35 35
46 48 50 51 53 54 55 56 57 58 57 54 50 47 44 42 42 41 41 40 40 39 39 40 40 40 40 40 40 40 40 39 39 39 39 39 38 38 37 37 38 38
45 48 50 51 51 52 53 55 56 57 56 53 49 46 44 42 41 40 40 41 42 42 42 42 42 42 42 42 42 41 41 41 40 40 40 40 40 40 39 40 40 40
47 50 51 51 51 51 51 51 51 50 48 45 43 43 42 41 40 40 40 41 42 43 43 43 43 43 44 44 44 44 43 43 42 42 42 42 42 42 42 42 42 43
44 48 50 50 50 49 47 46 44 43 41 39 38 38 38 38 39 40 41 42 42 43 44 44 45 46 47 47 47 47 47 46 46 46 46 45 45 45 45 45 45 45
36 41 44 45 45 42 39 38 38 39 39 39 38 39 39 39 39 40 41 42 43 44 46 47 48 49 50 50 50 51 51 51 50 50 49 49 48 48 48 48 48 48
38 41 40 38 37 35 35 37 40 41 41 41 41 42 43 43 43 43 45 46 47 48 49 50 51 52 52 53 53 53 53 53 53 52 51 51 50 50 50 50 50 50
42 44 39 35 34 35 36 39 42 45 47 47 47 47 47 48 49 51 52 53 54 54 55 56 56 55 55 54 54 54 54 54 53 53 53 52 52 51 51 51 51 51
45 48 45 41 41 42 42 43 43 45 47 48 48 50 50 51 53 54 55 55 56 57 57 57 55 53 52 52 53 54 55 56 56 55 54 52 51 51 51 52 53 54
47 50 51 49 50 50 50 49 47 45 46 46 46 46 47 49 53 55 55 55 55 55 54 53 52 52 53 55 57 57 57 57 56 53 51 51 52 53 54 55 55 56
49 51 52 52 53 55 55 54 52 49 49 49 49 48 48 48 50 52 53 53 52 54 55 56 57 59 61 61 61 59 57 55 53 52 53 54 56 56 57 57 57 57
53 54 53 54 56 57 57 57 57 56 56 55 55 54 53 53 54 53 51 50 51 51 53 55 57 58 58 58 57 55 55 54 54 55 57 57 58 58 59 60 60 60
52 53 54 56 57 58 58 58 59 61 61 60 59 60 60 60 61 59 55 53 52 52 52 53 54 55 55 54 54 54 54 56 57 58 59 59 60 60 61 62 63 63
51 52 54 57 58 58 59 59 61 63 64 63 62 64 65 65 65 65 62 59 58 58 58 58 57 57 57 57 56 56 56 56 57 59 60 60 61 62 62 63 64 64
53 52 53 55 57 58 58 59 62 65 66 65 65 65 66 66 67 68 68 65 64 64 64 64 64 63 62 60 58 56 55 56 58 58 59 60 63 65 66 66 67 67
55 51 50 51 52 52 54 56 59 62 63 64 64 62 62 63 64 66 68 68 67 67 68 69 69 68 65 62 59 57 57 59 61 62 64 67 70 72 73 72 72 71
55 54 53 53 52 52 53 56 59 61 62 64 64 62 62 63 64 64 67 69 71 72 73 73 70 67 65 63 62 62 63 65 68 71 74 76 77 77 76 75 74 72
59 60 60 61 61 62 62 64 65 66 67 69 70 68 67 68 69 71 74 75 75 74 73 72 70 68 66 66 67 68 69 72 75 78 79 79 78 77 76 74 72 69
67 67 67 67 69 70 71 72 73 73 73 74 74 74 72 72 74 75 74 73 72 71 70 69 70 70 71 72 73 74 77 79 81 82 80 79 78 76 73 71 68 63
73 73 74 74 74 75 75 75 75 76 75 75 75 77 76 75 76 75 72 69 69 70 71 72 73 75 76 78 81 83 84 85 84 82 79 77 75 72 69 67 66 63
78 79 79 79 78 77 77 76 76 76 76 75 75 77 78 79 79 79 77 75 76 77 79 80 80 82 83 86 87 88 87 85 82 79 77 74 71 67 65 64 65 65
83 83 82 81 80 78 78 77 77 77 77 77 76 77 79 81 83 84 84 83 84 85 86 87 88 89 90 90 90 88 85 83 80 77 75 72 68 64 63 63 65 66
84 84 83 82 82 81 80 79 78 78 78 78 79 79 80 82 83 85 87 88 89 90 90 91 91 90 90 89 87 85 83 81 79 77 75 73 70 68 67 67 68 71
84 83 83 83 82 82 82 81 80 79 79 79 79 80 80 81 82 83 84 85 86 87 87 87 86 86 85 85 84 83 82 81 80 78 77 76 74 72 72 72 73 74

ECMWFNIL_250_spd_045.txt.gz
Wind_Speed
46 46 45 43 43 45 46 47 47 46 45 44 43 42 42 42 43 43 43 43 43 42 41 40 38 37 36 34 32 31 30 30 29 27 26 26 27 28 28 28 27 26
46 47 48 46 45 47 49 49 50 49 48 47 47 46 46 46 46 46 46 45 45 44 43 40 38 36 35 34 32 31 31 31 30 29 28 27 28 28 29 29 29 29
48 49 49 49 49 49 50 51 52 52 50 49 47 47 46 46 46 46 46 46 45 44 42 40 38 36 35 34 33 33 33 32 32 32 31 30 30 30 30 31 32 32
47 49 50 51 50 50 50 50 51 52 51 49 48 47 47 46 46 46 45 45 45 45 43 41 39 37 36 35 34 35 35 35 34 33 33 32 32 33 33 34 35 36
49 50 51 51 51 50 49 49 49 48 48 47 46 45 45 44 44 44 44 45 45 45 44 42 40 38 37 36 37 37 37 36 35 35 35 35 35 36 37 38 39 40
52 52 52 52 51 50 49 48 46 46 45 43 42 42 43 43 43 43 44 44 44 43 42 41 40 38 38 38 38 38 37 36 36 36 37 37 38 39 40 41 42 43
52 52 51 51 51 50 49 48 47 47 46 45 45 45 45 45 44 44 43 42 42 41 40 40 39 38 37 37 37 37 37 37 38 38 39 41 42 43 44 44 44 43
51 51 50 50 51 51 51 51 50 50 49 48 47 47 46 46 44 43 42 41 40 40 40 39 39 38 38 39 39 40 40 41 42 43 45 46 48 48 47 44 43 44
49 48 48 48 49 49 48 47 46 47 48 48 46 46 46 45 43 42 40 40 40 40 41 41 41 42 42 43 43 44 45 47 47 48 49 49 49 47 44 42 45 49
45 45 46 45 46 46 45 44 44 45 45 44 43 43 44 43 42 42 41 41 41 42 43 43 44 44 45 46 47 48 48 49 49 49 48 47 45 43 43 47 51 53
42 44 45 45 45 45 45 45 45 46 46 44 41 40 41 41 41 41 42 42 43 43 43 45 46 47 47 48 48 49 48 48 48 47 46 46 46 46 50 54 55 53
41 42 43 44 44 44 45 46 46 47 48 48 46 44 45 46 45 44 45 45 45 45 46 47 48 48 49 49 48 48 48 48 48 48 48 50 51 53 55 55 52 50
43 42 43 44 43 43 46 47 47 49 51 51 51 49 49 50 51 51 51 51 51 51 51 51 51 51 52 52 52 52 52 51 51 51 51 52 53 54 53 51 49 48
38 39 41 43 43 44 46 47 49 52 54 54 54 53 53 54 55 55 55 54 54 55 55 55 55 56 56 57 57 56 56 55 54 53 52 52 53 53 52 50 49 49
41 42 44 46 48 49 50 50 51 53 54 54 54 54 54 55 56 56 55 55 56 57 57 58 59 59 60 60 60 59 58 57 56 54 54 54 54 54 53 52 52 53
48 49 49 49 51 53 53 54 54 54 54 54 54 55 55 54 54 55 56 56 57 58 59 60 61 61 61 61 61 60 59 58 57 57 56 56 56 57 57 57 58 59
51 51 50 50 53 55 56 56 57 57 58 58 57 57 56 55 55 56 58 58 58 59 60 60 59 58 58 58 58 58 58 59 60 60 60 60 60 61 62 63 63 63
55 54 53 54 56 57 58 59 59 60 60 60 60 58 57 58 58 59 59 59 59 59 60 60 59 57 57 58 59 59 60 61 61 62 63 64 65 66 66 66 65 65
58 58 57 57 58 58 59 61 61 61 61 61 60 59 58 58 59 59 60 60 61 61 62 62 61 60 60 61 62 62 63 63 63 64 66 67 69 69 68 68 67 68
61 61 61 61 60 60 61 61 62 63 63 63 63 62 60 59 60 61 62 63 65 65 66 66 66 66 67 68 68 68 68 68 69 70 71 72 72 71 71 70 70 71
63 63 63 63 63 63 63 63 64 65 66 67 68 67 65 64 65 66 67 68 69 69 70 70 71 72 73 75 76 76 76 75 75 75 74 73 71 70 70 71 73 75
63 63 63 64 64 65 65 66 66 67 68 69 69 69 69 69 70 71 72 74 75 75 75 74 74 74 75 76 77 78 78 78 77 76 73 71 71 72 73 76 79 81
63 63 64 65 65 66 67 68 68 68 69 70 70 71 71 72 74 76 78 79 79 79 79 78 77 76 76 76 77 78 78 78 78 77 77 77 78 79 81 83 85 85
65 65 66 66 67 67 68 69 69 70 71 72 73 74 75 77 80 82 83 82 82 82 81 80 79 78 77 76 77 78 79 80 80 80 81 83 84 84 85 83 81 80
70 70 70 70 70 71 71 72 73 75 76 77 78 80 81 83 84 85 85 85 85 85 84 82 81 80 79 78 78 79 80 81 81 79 79 81 83 84 82 77 73 73
75 75 76 76 77 77 78 79 80 81 82 83 84 85 85 86 86 87 88 88 88 88 87 85 83 83 82 82 81 82 82 82 82 81 80 81 82 82 80 76 74 76

ECMWFNIL_250_spd_048.txt.gz
Wind_Speed
48 46 44 42 42 43 43 42 41 41 41 41 41 40 39 39 39 39 40 41 42 41 40 39 38 37 37 36 35 34 33 32 31 29 28 28 28 27 26 25 25 25
48 49 48 46 44 43 42 41 41 41 42 43 44 44 43 41 41 42 43 44 44 44 43 41 40 39 38 37 36 35 34 33 31 29 27 27 28 29 28 27 27 27
42 43 45 47 48 47 46 44 43 42 42 43 43 43 43 42 41 42 43 44 45 45 45 44 42 41 39 37 36 35 33 32 29 27 27 28 29 30 29 28 28 29
41 43 45 46 48 49 49 47 45 44 43 42 42 41 41 41 42 43 44 45 45 45 44 43 41 39 38 36 35 34 32 29 26 26 27 29 31 31 31 30 30 31
44 44 44 44 44 45 46 47 46 45 43 42 41 41 41 42 42 43 43 43 42 42 41 40 39 38 37 36 35 32 29 27 26 28 30 32 32 33 32 32 32 33
42 39 39 41 42 43 43 44 44 44 43 42 42 42 43 43 43 43 42 41 40 40 40 40 39 39 38 37 35 32 30 30 31 32 32 33 33 33 34 35 36 37
37 35 36 38 38 38 39 41 42 43 44 44 44 44 45 45 44 43 41 41 41 41 41 41 41 40 40 38 36 35 34 34 35 34 34 34 35 35 37 38 39 39
37 36 38 39 38 38 40 42 43 44 45 45 45 46 45 45 44 43 42 42 42 42 42 41 40 40 39 38 37 36 36 36 36 35 35 35 37 38 39 40 40 40
42 41 41 42 42 42 43 44 44 45 46 46 46 45 44 44 43 43 43 43 43 43 43 41 40 39 38 37 37 37 37 36 36 36 36 37 38 39 40 41 41 40
50 49 47 46 45 45 44 43 42 43 43 43 43 43 41 41 42 42 43 43 43 43 42 41 40 39 39 38 38 38 37 37 37 38 39 40 40 41 42 42 42 42
52 53 52 51 49 47 44 42 41 41 40 39 40 40 39 39 39 40 42 42 42 41 40 40 40 40 40 40 39 39 38 38 39 40 41 42 43 43 44 44 44 44
49 49 49 49 49 46 44 42 42 43 43 44 45 44 43 43 42 42 43 43 42 40 40 40 41 42 42 42 42 41 41 41 42 43 44 44 45 46 47 47 47 47
47 46 45 45 45 45 46 45 45 46 47 49 50 49 49 49 47 46 46 44 43 42 42 43 44 45 45 45 45 45 45 44 44 45 45 46 48 49 49 49 49 48
47 45 45 44 44 45 47 47 47 47 48 49 50 51 52 51 49 48 47 46 46 46 46 47 47 47 48 49 49 48 47 46 46 46 46 48 49 49 49 49 49 49
51 48 46 45 44 46 48 48 48 49 49 48 47 48 51 52 50 49 49 49 50 49 49 50 50 51 50 50 49 48 46 46 46 46 47 48 50 50 50 50 51 51
55 53 51 49 47 47 48 48 49 50 49 47 46 46 49 51 51 50 50 50 50 50 49 50 50 51 50 48 47 46 46 46 46 47 49 50 51 52 51 51 51 51
54 54 54 53 52 49 46 44 45 46 46 47 48 49 51 51 51 51 50 49 49 49 49 49 48 48 48 46 45 45 46 47 48 49 50 51 52 53 52 52 52 53
53 53 53 53 54 53 51 49 47 48 49 49 50 51 52 51 51 50 50 51 51 51 51 51 50 49 48 47 47 47 48 49 50 51 52 53 54 55 55 57 59 60
52 53 53 53 53 54 54 55 55 56 56 56 55 55 54 54 54 55 55 55 55 55 55 55 53 52 51 51 51 51 52 52 53 53 54 56 57 58 60 62 64 65
52 54 55 55 55 55 55 56 58 58 59 58 58 57 57 58 59 59 59 59 59 59 59 59 58 57 56 55 54 53 53 54 55 56 58 59 61 62 64 66 67 67
55 56 57 58 59 59 59 59 60 61 61 61 60 60 61 61 62 62 62 62 63 63 63 63 63 63 62 61 60 59 59 60 61 62 63 65 67 68 70 71 71 70
58 59 61 62 63 63 62 63 63 64 65 64 64 64 64 65 66 66 66 66 66 67 67 67 67 68 68 68 67 67 67 67 67 68 69 71 73 75 75 75 74 73
60 61 63 64 65 66 66 66 66 67 68 68 67 67 67 68 69 69 69 69 70 70 71 71 71 71 71 71 72 72 71 71 72 73 74 76 78 79 78 77 76 74
61 62 63 64 65 66 67 68 69 70 71 71 70 69 69 71 71 70 70 71 71 72 73 73 73 74 74 74 74 74 75 75 75 77 78 80 81 81 80 79 78 76
62 63 64 65 65 66 67 69 70 71 72 73 72 72 72 73 73 73 72 73 73 74 75 75 76 76 76 77 77 77 78 79 80 81 82 83 84 83 83 82 81 79
66 66 67 68 68 69 69 70 71 72 73 74 74 74 74 75 75 75 75 75 76 76 77 78 78 79 79 80 81 82 83 85 86 86 87 87 88 87 87 87 85 83

ECMWFNIL_250_spd_051.txt.gz
Wind_Speed
32 34 35 37 41 44 46 43 40 38 37 37 37 37 38 37 36 35 34 33 33 32 31 31 32 32 32 32 32 32 32 32 32 32 32 31 30 26 21 17 18 18
33 33 35 36 38 40 43 42 41 40 40 40 38 36 35 35 35 35 35 34 33 33 33 32 32 33 32 32 32 32 32 32 32 32 31 31 28 24 20 18 19 20
37 36 38 37 34 34 36 37 38 38 37 37 37 36 36 36 36 37 37 36 34 33 33 32 32 32 31 31 31 31 31 32 32 32 31 29 26 23 20 20 21 22
44 42 40 37 34 32 33 34 35 35 35 37 38 38 38 37 37 38 37 36 35 34 33 33 32 32 31 30 30 31 32 33 33 32 30 27 25 24 23 24 24 24
46 42 39 37 36 35 35 36 37 37 37 38 39 39 39 38 37 36 36 35 35 35 34 33 32 32 31 31 32 33 34 34 33 32 29 27 26 26 27 28 27 26
43 40 39 39 38 38 39 39 39 40 40 39 40 41 41 39 37 36 35 34 34 34 34 33 33 34 34 34 35 35 35 35 34 32 29 28 28 29 29 29 28 28
47 44 42 41 40 39 40 42 43 44 45 43 41 41 40 38 37 36 35 35 35 36 36 37 38 38 38 37 37 37 36 36 35 33 31 30 30 30 30 30 29 29
49 48 46 45 44 42 41 43 44 43 43 41 39 38 37 37 37 37 38 39 39 41 43 44 43 42 40 38 38 37 37 36 34 33 32 31 31 31 30 31 31 31
48 49 48 46 46 44 42 42 42 40 39 38 38 39 39 39 40 41 43 44 46 47 47 46 44 42 39 38 38 38 37 36 34 34 33 32 32 32 32 32 32 32
47 48 48 47 45 44 43 42 41 41 41 41 41 42 43 44 44 46 47 48 49 48 46 44 42 40 39 38 38 37 37 36 35 35 34 34 34 34 34 34 34 34
48 46 46 45 45 44 44 44 43 43 43 44 45 45 47 48 49 50 50 50 49 46 44 41 39 38 37 37 37 37 37 37 37 37 37 37 36 35 35 35 35 36
52 49 47 45 45 45 46 47 47 46 46 46 47 47 47 47 47 46 46 46 44 41 39 37 37 38 38 38 39 39 39 39 39 39 39 37 37 37 37 37 37 38
54 54 53 51 50 50 50 51 52 51 50 49 48 46 44 43 43 43 44 43 42 41 40 41 41 42 42 42 42 41 41 41 41 41 40 39 39 39 40 40 41 41
55 57 56 54 53 52 51 52 54 54 54 52 50 48 46 46 46 46 47 47 47 46 46 46 46 46 46 44 43 42 43 43 43 42 42 41 42 42 43 43 43 43
56 56 55 52 51 51 51 49 49 51 53 55 54 54 53 52 51 50 51 52 53 51 50 50 49 47 45 44 44 44 45 45 45 44 44 44 45 45 45 45 45 46
56 55 53 51 50 52 54 52 49 48 51 54 56 57 57 55 54 53 53 55 56 55 52 51 49 47 47 47 49 49 48 48 48 48 47 47 47 47 47 47 47 48
57 55 52 51 51 53 55 56 56 55 54 55 55 56 56 55 54 54 53 54 56 54 51 50 50 50 51 52 52 51 50 50 49 49 49 49 50 50 49 49 49 49
56 55 52 51 52 54 56 58 60 60 59 59 58 58 58 57 57 56 55 54 54 53 50 51 52 52 52 51 51 50 50 50 50 51 52 52 52 51 50 49 49 48
53 52 51 50 51 54 57 59 61 62 62 61 60 59 59 58 57 55 54 52 52 52 52 52 52 51 51 51 51 51 52 53 54 54 54 53 53 51 50 50 49 49
50 50 49 49 49 52 54 57 59 60 62 62 62 60 59 57 56 55 54 53 54 54 54 54 54 54 54 55 55 56 56 57 57 57 56 55 54 53 52 52 52 53
51 50 49 49 49 50 51 53 54 55 56 58 59 59 59 59 58 58 58 58 59 59 59 59 59 60 60 60 60 60 60 61 61 61 60 60 60 59 59 59 60 61
54 53 53 52 51 50 51 53 55 56 56 56 56 56 57 57 58 59 59 60 60 61 62 62 62 62 63 63 63 63 64 64 65 65 65 66 66 66 66 66 67 68
58 58 58 57 55 54 54 56 58 59 60 60 60 60 61 61 62 63 63 63 63 64 65 65 66 66 66 67 67 68 68 69 69 69 70 70 70 70 71 71 71 72
60 61 62 62 61 60 60 60 60 61 62 62 63 65 65 67 69 70 69 69 70 70 70 71 71 71 71 71 71 71 72 72 72 72 72 73 73 73 73 74 74 75
61 62 63 64 64 65 64 63 63 63 63 64 65 66 67 69 72 74 73 72 73 73 73 73 73 73 74 74 74 75 75 75 75 76 76 76 76 76 76 76 77 78
62 62 63 64 65 65 66 66 65 65 65 65 66 66 67 68 70 72 73 73 73 73 74 74 74 75 76 76 77 77 77 78 78 78 79 79 79 79 79 79 80 81

ECMWFNIL_250_spd_054.txt.gz
Wind_Speed
37 36 35 34 31 30 31 31 28 28 30 31 32 32 30 28 28 29 28 29 29 29 29 29 29 29 30 30 30 30 29 28 27 26 25 23 23 23 23 24 25 24
38 38 37 36 33 32 33 33 30 28 29 30 31 31 29 28 28 28 29 28 27 26 27 27 28 29 31 31 31 31 30 29 28 27 26 25 25 24 25 26 25 24
39 37 36 36 35 32 33 34 32 29 27 27 28 27 26 26 27 28 28 28 27 28 29 30 31 31 32 33 32 31 30 29 29 29 28 27 27 27 28 27 26 24
38 37 36 37 36 34 35 37 37 33 30 27 27 26 26 26 28 29 29 30 32 33 35 35 35 35 34 34 32 31 30 30 31 30 29 29 31 32 31 29 27 25
39 39 38 37 36 36 38 40 40 37 34 30 28 28 27 28 29 31 33 35 36 37 38 38 38 37 36 34 33 32 32 32 31 31 33 35 36 35 32 30 28 26
42 41 39 38 38 39 40 42 43 41 38 34 33 32 31 32 33 34 36 37 37 37 39 39 38 37 37 36 35 35 33 32 33 36 40 41 38 35 32 31 29 27
45 44 41 38 38 40 42 43 44 43 41 38 35 34 34 35 35 36 37 38 38 38 38 37 38 37 37 37 36 35 34 35 39 43 44 42 38 35 33 32 29 28
46 47 43 39 38 40 41 42 42 41 40 38 36 35 36 37 39 39 39 39 40 40 40 39 38 38 38 38 38 38 39 42 45 46 43 40 37 35 34 33 30 30
45 47 45 42 40 40 41 41 40 39 38 38 38 38 38 40 41 42 41 41 41 42 42 41 40 39 40 40 41 43 44 46 47 45 41 38 37 36 35 33 32 31
41 44 45 44 42 41 40 40 39 39 39 38 37 36 36 38 39 41 42 42 42 41 41 41 41 41 42 43 45 47 48 48 46 42 39 37 37 37 35 33 33 33
41 43 45 45 44 43 42 42 41 41 41 40 37 35 35 35 37 40 41 41 41 40 40 42 43 44 45 47 49 49 48 46 43 40 38 38 39 37 35 35 35 36
42 44 46 46 46 46 46 46 46 45 44 43 41 39 38 38 39 41 41 41 41 41 42 44 46 47 49 50 50 49 47 44 41 40 39 40 40 39 38 37 37 38
42 42 44 46 47 48 48 48 48 47 46 45 44 42 41 41 43 44 45 46 47 47 49 50 51 52 51 50 49 47 44 42 41 41 42 43 43 42 41 40 40 41
43 44 45 46 47 49 50 50 49 48 47 46 46 46 46 46 48 49 51 51 52 53 53 53 52 51 49 47 45 44 42 42 43 44 45 45 45 45 44 43 43 44
46 48 48 46 46 47 49 51 51 51 51 52 52 53 53 53 53 53 54 53 53 53 51 50 49 48 47 46 45 45 46 46 47 48 48 47 47 46 45 45 46 47
47 48 48 47 46 46 46 46 47 47 49 50 52 53 54 55 54 54 54 53 52 52 51 50 51 51 51 50 51 51 51 51 51 51 50 49 48 47 47 48 49 48
50 50 49 47 47 47 46 45 43 43 45 45 46 47 50 53 55 56 56 56 55 55 54 54 54 54 54 54 56 56 55 54 54 53 51 49 48 49 50 51 50 49
54 54 53 51 50 50 51 50 49 48 48 48 48 49 50 52 53 54 55 55 55 54 53 53 53 53 53 54 57 58 57 55 55 54 52 51 51 51 51 50 49 48
53 54 54 54 55 55 55 53 52 51 50 50 50 52 53 54 54 54 54 54 53 51 51 51 52 52 53 54 56 58 58 56 55 55 53 53 52 51 49 48 48 49
52 52 51 50 51 52 52 51 49 47 47 47 48 50 53 55 56 56 56 55 55 54 54 55 55 55 56 55 55 56 57 56 54 53 52 52 51 50 50 51 53 55
50 50 49 46 46 47 48 47 46 45 44 44 46 49 52 55 57 58 58 57 57 57 57 58 58 57 56 55 53 53 54 55 55 54 53 54 54 55 57 58 60 61
48 49 49 48 47 47 47 47 46 45 44 45 46 48 51 53 55 57 57 58 58 58 58 58 57 57 56 55 55 55 56 57 58 59 59 60 61 62 63 63 64 65
53 52 52 51 50 50 49 48 47 47 47 47 48 50 52 53 54 55 55 55 55 55 55 54 55 55 55 56 57 58 59 59 60 61 62 63 64 65 66 67 68 70
54 54 54 54 54 53 51 50 50 50 50 51 52 53 53 54 55 56 57 58 58 58 57 57 57 57 57 58 59 60 62 63 64 65 66 68 69 71 73 74 75 76
56 56 56 56 55 55 54 53 53 53 53 54 55 56 56 57 58 60 61 62 63 64 65 65 65 65 65 65 66 67 68 69 70 71 72 73 74 76 77 77 78 78
59 59 58 58 58 58 59 59 59 58 57 57 57 57 59 61 62 63 64 65 66 68 69 70 71 72 72 72 73 73 73 73 74 74 75 76 76 77 78 79 79 80

ECMWFNIL_250_spd_057.txt.gz
Wind_Speed
44 43 40 37 35 33 33 35 35 34 32 28 24 24 27 26 26 26 25 23 22 20 19 19 19 19 19 19 20 20 19 20 21 24 25 27 28 27 26 23 23 24
43 40 38 36 36 35 35 37 36 35 34 29 25 26 28 27 27 27 26 24 22 21 21 21 21 21 20 20 20 19 20 22 24 26 27 29 29 28 26 24 23 24
44 41 38 35 36 37 37 39 39 40 39 36 33 31 31 30 28 26 26 25 24 23 23 24 24 23 22 22 23 24 25 26 27 27 29 30 29 27 26 25 24 25
46 43 38 32 32 36 39 40 41 43 42 40 37 34 34 34 30 27 26 26 25 25 25 26 26 26 26 27 28 29 30 30 28 27 29 31 30 29 28 27 27 30
47 45 38 33 34 38 40 41 42 42 42 40 35 33 34 37 35 30 28 26 26 26 27 28 28 28 30 31 31 31 32 31 29 26 28 31 31 31 30 29 31 35
45 44 40 39 41 42 42 43 43 41 40 39 37 36 37 40 40 37 33 30 30 30 31 31 31 32 32 32 32 33 34 32 29 27 28 30 32 32 30 32 35 37
42 43 43 44 45 45 44 44 44 42 41 40 40 39 40 41 43 43 40 39 37 36 35 34 34 34 34 35 36 37 37 34 31 30 30 31 32 32 33 36 38 38
42 43 44 47 48 48 47 46 44 43 42 41 39 39 41 43 46 46 45 44 42 39 37 35 35 36 37 39 40 40 39 35 33 32 32 33 33 34 36 39 40 38
43 44 45 48 50 50 50 49 46 44 43 41 40 40 42 45 47 47 46 43 40 38 37 37 38 40 42 43 42 41 39 36 34 34 35 35 36 37 39 41 40 38
43 45 46 47 49 50 51 50 48 46 44 43 42 41 42 44 44 43 43 42 41 41 41 41 43 44 44 43 42 41 38 36 36 37 38 38 38 40 42 41 39 37
45 45 46 47 48 49 50 51 50 49 47 46 45 44 44 43 42 41 41 42 43 43 42 42 42 42 42 42 41 39 38 37 38 39 39 40 42 44 44 42 40 37
45 44 43 45 47 49 50 50 50 50 49 48 47 46 45 44 44 43 43 43 43 42 41 40 40 39 39 39 38 37 37 38 40 41 43 45 47 47 45 42 40 37
46 44 42 42 43 45 48 48 49 49 49 49 49 47 46 46 45 45 45 43 42 41 40 39 39 39 38 39 39 40 41 43 45 47 48 49 49 47 45 43 40 37
48 47 45 42 41 41 43 45 47 48 48 49 50 49 49 49 49 49 48 47 46 46 45 44 45 45 44 44 45 47 49 51 52 52 51 50 48 47 46 44 42 40
46 45 42 40 40 41 42 43 44 46 46 47 47 48 49 50 51 50 49 48 48 49 49 49 50 51 50 50 52 54 55 56 55 53 50 49 49 48 48 46 45 43
45 42 40 40 43 45 46 46 46 46 46 46 45 45 46 47 49 49 49 49 50 51 51 52 53 54 55 55 55 56 56 55 53 50 49 50 50 50 49 48 47 46
47 45 44 47 50 50 50 49 49 49 49 49 49 48 48 49 50 50 50 51 51 52 53 53 54 55 55 55 54 53 52 51 50 50 51 51 50 50 50 51 50 50
51 50 51 53 54 54 53 52 52 53 53 54 53 52 52 52 52 53 53 53 53 53 54 54 55 55 54 52 51 50 50 50 51 51 50 49 49 50 52 54 55 54
53 54 54 54 54 55 55 55 56 57 58 58 56 54 53 53 53 53 54 54 54 54 55 56 56 56 54 51 50 50 51 52 52 52 52 52 52 54 56 57 57 54
55 56 56 55 56 56 56 58 59 60 61 60 57 54 53 52 52 53 53 53 53 53 52 53 52 52 51 51 51 52 53 53 54 54 55 55 56 55 55 56 57 55
54 56 56 56 56 56 56 57 58 58 59 58 55 53 54 54 54 54 54 53 51 49 49 50 50 51 51 51 52 54 55 56 57 57 57 56 55 54 53 54 57 59
53 54 54 55 56 56 56 56 56 56 57 57 56 55 54 53 52 51 51 50 49 48 48 49 50 51 52 53 54 55 56 57 57 57 56 55 54 54 53 54 56 58
55 55 56 57 58 58 58 58 58 58 58 58 57 56 55 53 50 49 48 48 48 47 46 47 48 49 51 52 53 54 55 56 56 57 57 58 58 58 58 58 58 59
59 59 60 61 62 62 61 62 62 61 59 58 56 55 54 53 52 51 51 50 49 48 46 47 48 49 51 52 53 54 54 55 56 57 59 60 60 61 61 61 62 63
58 59 59 60 60 60 60 60 60 60 59 58 58 57 57 57 56 56 56 55 53 50 49 49 50 52 53 54 56 57 57 58 59 60 61 61 61 63 64 65 66 68
56 56 56 57 57 56 57 57 57 58 59 60 61 61 61 61 60 60 59 57 55 53 53 53 53 54 55 57 58 60 62 64 65 66 68 69 70 71 73 74 75 76

ECMWFNIL_250_spd_060.txt.gz
Wind_Speed
50 46 44 44 44 44 43 42 40 38 37 38 39 40 38 35 34 31 26 22 20 21 21 19 19 19 19 18 18 18 18 18 19 21 22 23 22 23 24 26 29 33
49 46 45 45 45 45 44 42 41 42 41 39 39 39 38 36 35 31 26 24 23 22 21 20 20 21 20 21 21 21 21 21 20 21 21 22 23 24 25 26 28 33
47 46 46 45 45 45 44 43 43 44 42 40 40 40 38 37 36 32 28 26 25 23 22 22 23 23 23 24 24 24 24 23 23 22 23 25 26 28 29 28 28 31
49 47 46 46 45 45 44 44 44 45 44 41 41 41 41 41 38 35 32 30 27 25 25 25 25 26 26 26 26 26 25 25 25 26 27 28 30 31 32 32 29 28
49 47 47 48 49 50 50 49 47 47 46 43 42 43 45 45 42 38 37 35 32 31 30 28 27 28 28 27 26 26 26 27 28 29 30 31 32 33 34 33 31 29
48 46 48 50 53 55 57 56 51 47 46 43 41 44 47 46 45 44 42 39 37 36 35 33 31 29 28 27 27 28 28 29 30 31 32 33 34 36 36 35 32 30
47 45 47 49 51 53 56 56 52 48 46 43 41 44 46 46 46 47 45 42 40 38 37 36 35 33 32 31 31 31 31 30 32 33 34 34 37 39 38 36 34 32
49 44 45 46 48 50 51 52 51 49 48 45 43 44 45 45 45 45 44 43 42 40 38 38 39 38 38 38 38 36 34 33 34 35 35 38 40 40 39 37 35 34
52 46 45 46 47 49 50 50 51 51 50 47 46 46 45 44 43 42 41 42 42 41 40 40 41 41 42 42 41 40 38 37 36 36 38 41 42 41 40 38 37 38
55 50 47 47 49 50 50 51 52 52 51 50 49 49 47 45 44 43 42 42 42 41 41 42 43 43 44 44 44 42 40 38 38 39 41 42 42 42 41 41 42 41
57 54 51 48 49 51 52 53 53 53 53 52 52 52 50 49 47 46 45 45 44 43 43 44 45 45 45 45 44 43 41 40 40 40 41 42 42 43 44 45 45 43
58 57 54 51 50 51 52 52 53 52 52 52 53 52 52 52 52 51 50 49 48 46 45 46 47 46 45 45 44 43 43 42 40 40 41 42 43 44 46 47 46 43
58 57 55 53 51 51 51 52 52 52 51 52 52 51 51 52 53 53 52 51 50 50 49 48 48 48 47 46 46 46 45 44 42 42 43 44 44 46 46 46 45 44
51 53 53 50 47 48 50 50 51 51 51 52 51 50 50 50 51 52 52 51 51 51 51 51 51 51 50 49 49 49 48 46 45 45 46 46 46 46 46 46 47 49
45 47 48 47 47 48 50 51 51 51 52 52 51 50 50 51 51 51 51 51 51 51 51 51 52 52 51 50 50 49 48 48 47 47 47 48 48 49 49 50 52 54
48 49 48 49 50 51 52 52 53 53 54 53 52 51 51 51 51 51 52 52 52 52 52 52 53 53 53 51 50 48 48 47 47 47 48 49 51 51 51 53 55 56
47 49 50 52 54 54 53 53 53 54 55 55 55 54 53 53 52 52 52 52 52 53 54 54 54 54 54 53 52 50 49 48 48 49 50 52 53 53 55 56 56 54
46 46 47 49 52 53 53 53 53 53 54 55 55 54 54 54 54 53 51 51 52 52 52 52 52 52 53 53 52 52 52 52 52 52 53 54 56 56 56 55 52 49
49 48 48 49 50 50 50 51 52 52 51 51 52 51 51 50 50 51 51 52 52 53 52 52 51 52 52 53 54 55 55 55 56 56 56 57 56 55 53 50 48 46
50 51 51 51 50 49 50 51 52 52 51 50 50 50 49 49 51 52 53 54 56 56 57 57 56 56 56 57 59 58 57 57 56 56 55 53 51 50 49 48 47 47
49 51 51 51 51 52 52 52 53 53 52 51 51 51 52 54 56 57 58 59 60 60 60 61 61 61 61 61 61 59 58 56 53 51 50 49 49 50 49 48 48 48
50 51 50 50 50 52 52 53 55 57 56 55 55 56 58 61 61 62 62 62 62 62 63 63 62 62 62 61 60 58 55 52 49 48 48 49 50 50 49 48 48 48
54 54 53 53 53 53 53 53 56 59 60 60 59 60 62 64 65 65 64 63 64 64 64 63 62 60 59 57 56 54 51 49 48 48 49 50 51 50 49 48 48 47
57 57 57 56 57 58 57 56 58 60 61 62 63 63 63 64 65 66 66 65 65 64 63 62 61 59 58 57 55 54 52 51 52 52 52 53 52 51 49 49 49 49
57 57 57 58 59 60 60 60 61 62 63 64 65 65 64 64 65 66 67 66 65 64 63 62 61 60 59 59 58 57 57 57 58 58 58 57 55 54 52 52 53 53
57 57 58 59 60 61 61 62 63 65 66 68 69 67 66 66 66 66 67 66 65 64 64 64 64 64 63 62 61 62 62 63 64 64 63 61 59 58 57 57 57 58

ECMWFNIL_250_spd_063.txt.gz
Wind_Speed
53 52 51 50 48 47 47 48 48 49 49 47 45 45 44 43 41 40 38 36 36 37 36 31 27 26 25 25 25 25 25 24 23 23 22 22 22 22 22 22 21 21
52 52 52 51 50 49 49 49 50 51 51 49 48 47 47 46 44 42 40 37 38 40 39 36 32 29 28 28 28 27 27 26 25 24 24 24 25 25 25 24 24 24
50 50 51 51 50 50 50 49 49 51 51 50 49 49 48 47 46 44 41 38 39 42 42 40 38 34 32 31 29 28 27 27 27 26 27 28 28 28 28 27 27 28
49 48 49 50 51 51 51 51 50 50 50 49 48 49 48 47 45 44 42 40 41 43 43 42 39 37 36 34 32 30 30 29 29 29 30 31 30 30 29 29 30 31
49 47 45 46 51 52 52 53 52 51 50 48 47 47 47 46 45 44 43 42 43 44 43 42 40 38 38 37 36 34 33 32 32 32 32 32 32 31 31 32 33 33
49 45 42 41 46 50 52 53 53 51 49 47 47 47 46 45 46 46 46 45 45 44 43 42 41 40 40 40 39 37 36 36 36 35 34 33 33 32 33 34 34 34
45 42 42 41 43 47 51 53 54 52 49 47 47 47 47 46 46 48 49 48 48 46 45 44 44 43 43 42 41 39 39 39 38 37 35 35 34 35 36 36 36 36
40 39 41 43 45 47 50 54 55 54 52 50 49 50 50 49 49 50 50 50 50 49 48 47 47 47 47 46 45 44 42 41 39 38 37 37 38 38 39 38 38 38
40 41 41 44 48 49 50 54 56 56 54 51 50 51 52 53 53 53 52 52 52 52 51 50 49 50 50 50 49 48 46 44 42 41 40 41 42 42 42 41 41 41
44 44 42 43 47 49 49 52 54 54 52 50 49 51 53 54 54 54 53 53 53 52 52 50 50 50 51 51 51 50 48 47 45 44 44 45 45 44 44 44 43 43
43 44 44 44 45 48 50 52 52 49 47 47 49 51 52 52 52 53 53 53 52 51 50 49 49 50 50 49 49 49 48 48 47 46 46 46 46 45 45 45 45 44
44 46 48 48 48 49 51 54 53 49 46 48 51 53 52 51 51 51 53 54 55 54 52 50 49 48 47 47 48 48 48 49 49 48 47 47 47 47 46 46 46 45
47 47 49 52 55 55 54 56 57 54 51 51 54 54 52 52 51 51 52 53 54 55 54 53 51 50 50 50 50 49 49 49 49 49 48 48 48 47 46 46 46 45
46 48 49 52 55 55 54 56 59 59 57 55 55 54 54 53 52 52 53 53 53 53 53 52 52 53 53 53 53 51 50 50 49 49 48 48 48 48 47 47 46 45
46 49 49 49 50 52 52 53 55 59 60 59 57 55 55 54 53 53 54 54 53 52 51 51 52 53 53 53 52 51 50 49 49 48 48 48 48 48 48 47 46 45
50 50 49 48 49 51 52 51 53 57 59 59 58 56 56 55 55 55 56 55 54 52 51 51 52 51 51 50 49 48 48 48 48 48 49 48 48 49 49 47 46 45
51 52 52 51 51 51 51 52 54 56 58 59 59 57 56 56 55 56 55 54 53 52 51 51 51 50 49 49 48 48 47 47 48 48 48 48 48 48 48 47 46 46
50 50 51 51 51 51 51 52 54 56 57 59 59 57 55 54 53 53 53 53 52 52 53 53 53 52 51 51 51 51 50 50 50 49 49 49 48 47 47 47 47 49
49 48 48 48 47 48 51 53 54 55 55 57 59 59 57 55 53 53 54 54 55 55 55 56 56 55 55 55 54 54 54 53 53 51 50 49 48 49 50 50 51 53
48 47 46 45 45 47 51 54 55 54 54 55 57 59 58 57 57 56 57 57 57 58 58 58 58 57 57 56 55 55 54 54 53 52 51 51 51 52 53 55 56 57
50 47 45 45 46 48 51 53 54 54 53 54 54 55 55 55 55 56 56 57 57 57 57 57 56 56 54 53 53 53 54 54 54 54 53 54 55 56 58 60 61 61
52 50 48 48 49 49 49 50 51 51 52 52 53 53 53 53 53 54 55 55 54 55 55 54 53 52 51 51 52 53 55 55 56 56 56 57 58 59 61 61 61 60
54 54 53 52 53 54 52 50 49 50 51 51 53 54 54 53 53 54 54 54 53 53 53 52 51 51 51 53 54 56 57 58 58 59 59 59 60 60 60 60 59 58
56 57 56 56 56 57 57 54 53 52 51 52 55 57 57 56 57 57 57 57 55 53 52 51 51 52 54 55 57 59 60 61 61 60 60 60 60 60 59 59 58 58
58 58 59 58 58 58 58 57 56 54 53 55 59 60 60 60 60 60 60 59 58 56 55 54 54 55 56 57 59 60 61 62 61 61 60 61 61 60 60 59 60 60
60 61 61 61 60 59 59 58 57 56 56 58 61 62 62 63 63 62 62 61 60 59 59 58 58 59 59 59 60 61 61 62 63 62 62 61 61 61 62 62 63 64

ECMWFNIL_250_spd_066.txt.gz
Wind_Speed
49 48 50 52 52 50 47 45 46 47 46 42 39 38 39 40 40 41 42 42 40 38 37 37 36 36 35 34 33 32 31 30 31 31 30 27 26 25 24 23 22 23
52 50 50 51 52 52 50 49 49 49 48 45 43 41 41 42 43 45 47 47 44 41 39 38 38 38 37 35 35 34 34 32 31 32 32 30 28 27 26 25 25 26
53 51 51 51 51 52 51 51 52 51 49 47 45 44 43 42 43 46 48 49 46 44 41 40 39 39 38 37 37 37 37 36 34 34 34 33 31 29 28 27 27 29
52 50 52 52 51 51 51 52 53 53 52 51 49 47 45 42 42 45 48 47 46 45 43 41 41 40 39 39 38 38 39 39 37 37 37 36 34 31 30 30 30 31
48 48 50 51 50 49 48 49 51 53 54 54 53 51 49 45 44 48 51 49 47 46 44 43 42 41 40 39 39 39 40 41 41 40 40 39 37 34 32 32 32 32
49 48 48 48 47 43 42 42 45 49 51 52 53 53 53 51 49 50 51 50 48 47 45 43 41 41 40 39 40 40 40 41 42 41 41 40 38 36 35 35 35 34
53 50 48 47 45 43 42 40 41 45 47 47 49 48 48 51 52 50 50 50 49 47 44 42 40 40 40 40 41 41 41 41 41 41 41 41 40 38 38 38 38 37
52 51 50 49 46 44 42 39 38 41 42 43 43 40 40 46 50 49 49 49 48 46 44 41 40 40 40 41 42 41 41 41 41 41 42 43 42 42 42 42 41 39
49 50 51 50 48 45 40 37 38 39 38 38 38 39 43 47 49 49 49 49 48 47 45 43 42 41 40 42 43 42 42 43 42 43 44 45 45 46 46 46 45 44
46 48 48 49 49 45 39 38 40 39 34 32 37 44 48 49 49 49 50 50 48 47 45 44 44 43 43 44 45 45 45 45 44 45 46 47 48 48 48 49 48 46
41 44 44 44 45 42 41 40 39 38 36 35 43 50 50 49 50 50 49 49 48 47 47 46 45 45 45 46 46 45 45 44 43 45 46 47 48 49 49 49 47 46
38 40 39 39 41 40 40 40 38 38 40 43 49 52 49 49 52 52 50 49 48 47 47 45 44 44 44 44 44 43 43 43 43 44 45 46 47 48 48 47 46 46
37 37 34 36 39 39 39 38 38 40 42 47 54 54 50 52 55 54 52 49 47 46 44 43 42 42 43 43 43 44 44 44 45 46 47 47 47 47 46 47 47 48
37 34 31 34 38 39 38 38 41 43 44 50 55 53 51 53 54 54 53 50 48 45 43 41 41 42 43 43 44 45 45 45 46 47 48 48 48 48 48 49 49 49
39 37 36 37 37 38 40 42 45 47 47 50 52 49 49 53 53 51 52 52 51 49 46 45 44 43 44 45 45 45 45 45 46 47 48 49 49 50 51 51 50 48
45 45 45 41 38 40 43 44 47 50 50 49 48 47 48 51 52 51 52 53 53 52 51 50 49 48 47 47 47 47 47 47 48 48 48 48 48 49 50 50 49 48
51 52 49 44 42 44 46 46 47 51 53 50 47 47 47 48 51 52 54 55 55 55 55 54 54 53 51 50 50 50 50 50 50 49 50 49 49 49 49 49 49 49
55 55 53 48 46 48 50 50 50 53 55 53 51 51 50 51 52 53 54 54 55 55 56 56 55 55 54 54 54 53 53 52 51 51 51 50 49 49 49 50 50 51
57 57 55 50 49 50 51 52 53 55 56 55 55 57 56 55 56 56 56 55 55 55 55 54 54 55 55 56 56 55 54 53 52 52 51 51 51 51 51 52 52 52
55 54 52 50 50 50 50 51 54 55 54 53 56 58 58 57 57 58 58 57 56 55 55 54 54 55 55 56 56 56 55 54 52 52 52 52 53 53 53 53 53 53
50 49 49 48 48 50 52 53 56 56 55 54 56 57 57 58 60 61 60 58 57 56 57 57 57 56 56 55 55 54 53 53 52 53 53 54 55 56 56 55 55 55
49 50 50 50 50 53 56 56 57 58 56 54 55 57 58 58 60 61 61 60 59 59 59 58 56 55 54 53 53 53 53 54 55 55 56 57 57 58 57 57 56 57
50 51 53 54 55 57 58 58 57 56 54 52 53 57 60 60 59 60 61 61 61 60 59 57 55 54 53 53 53 53 53 54 55 56 56 56 57 57 57 57 57 57
53 53 55 56 58 59 59 58 58 56 55 53 52 54 58 59 58 58 59 59 58 58 57 57 57 56 56 55 54 54 53 53 53 53 53 54 55 56 56 57 57 58
55 56 56 57 58 59 59 58 57 56 57 57 55 55 56 56 56 57 57 56 55 55 56 56 57 57 58 57 57 56 55 54 54 54 54 54 55 55 56 57 58 59
57 59 59 58 57 58 58 58 58 58 59 58 57 57 56 55 55 56 56 56 55 56 56 57 58 58 58 58 58 58 56 56 56 57 57 57 56 56 57 58 59 60

ECMWFNIL_250_spd_069.txt.gz
Wind_Speed
50 46 48 49 47 49 50 49 48 47 46 45 41 34 29 32 37 39 38 38 36 37 37 36 36 36 35 35 35 36 34 32 32 33 33 32 31 30 29 29 29 29
53 46 44 45 45 46 48 50 48 46 46 46 46 40 31 32 39 40 38 37 36 38 41 41 41 40 38 38 38 38 37 34 33 33 33 33 33 32 30 29 30 30
54 48 42 42 44 45 47 48 48 47 46 45 46 45 41 40 44 44 41 39 38 39 41 43 44 41 39 38 37 38 37 36 35 34 34 33 34 34 33 32 32 32
54 50 46 46 47 47 47 46 46 48 48 46 46 47 46 45 46 46 44 42 39 36 33 36 40 40 39 38 37 38 37 36 35 35 35 34 34 35 36 36 35 34
58 54 51 48 46 46 48 47 47 48 49 47 46 47 49 48 46 45 44 43 42 35 31 34 38 40 41 41 40 41 39 37 36 36 36 35 34 35 36 38 38 37
64 59 54 50 47 44 45 46 45 44 46 47 46 47 50 51 48 46 45 44 43 39 38 42 44 44 43 42 42 42 41 39 38 37 37 36 35 34 35 37 38 38
65 62 58 54 53 51 47 45 44 41 41 43 45 47 49 49 48 45 44 43 42 42 44 46 46 45 43 42 43 43 42 41 40 39 38 37 35 34 34 36 37 38
60 61 59 56 56 55 51 48 46 42 38 39 43 47 48 48 46 43 41 42 41 42 44 44 43 43 42 43 44 43 42 42 41 40 39 38 36 34 34 35 36 38
55 57 57 57 58 57 53 49 47 43 39 40 43 45 46 46 45 41 39 40 41 43 45 44 43 43 43 43 43 42 42 42 41 41 40 38 37 36 35 37 38 40
54 54 54 55 57 56 51 48 47 45 44 44 45 44 43 42 42 40 37 38 39 42 43 43 43 43 42 41 41 41 42 43 42 41 41 40 38 38 38 39 39 40
54 51 52 51 51 52 52 50 49 47 47 47 47 45 43 40 40 40 39 38 40 41 39 39 42 44 44 43 42 42 43 44 43 43 42 40 39 39 39 38 37 38
59 53 50 47 46 48 50 51 50 49 48 48 48 45 43 41 41 41 40 40 43 44 44 44 46 47 46 44 43 43 43 45 45 45 44 41 39 38 37 36 36 37
61 60 54 48 48 47 45 45 47 47 46 46 45 43 43 44 43 41 40 41 44 47 48 49 50 49 46 44 43 44 45 46 47 47 45 42 39 37 36 36 37 37
57 61 54 44 43 45 45 44 44 44 45 46 44 43 44 45 43 42 42 43 45 48 50 52 53 53 51 48 46 47 48 48 48 47 45 41 39 37 37 38 38 38
50 54 49 41 41 45 46 45 44 43 44 46 47 46 46 45 43 43 45 45 47 50 53 55 56 54 52 50 50 51 51 50 47 44 42 40 39 38 39 40 40 40
45 47 45 42 43 46 48 47 46 46 45 45 47 48 47 45 45 45 46 46 48 50 53 55 55 53 52 51 51 52 51 50 47 44 42 42 42 42 42 43 43 42
43 45 44 44 44 44 45 46 45 46 45 44 45 46 46 44 45 45 45 46 48 50 52 54 54 54 53 51 51 52 51 50 49 46 46 46 46 46 47 47 47 46
41 42 45 46 45 43 44 43 41 42 42 43 44 45 45 44 45 45 45 47 50 51 52 54 55 55 53 51 51 51 50 49 49 49 49 51 52 52 51 51 50 49
43 43 45 45 44 45 44 43 41 40 40 43 47 46 45 46 46 48 49 49 51 53 53 53 53 53 53 52 52 52 50 50 51 52 54 55 56 55 54 53 53 52
46 46 46 46 46 46 46 45 44 43 43 46 48 47 47 49 50 52 53 52 51 52 53 53 52 52 53 53 52 52 52 52 53 54 55 55 55 55 54 54 54 54
48 49 50 51 50 49 49 49 49 49 50 49 47 48 50 51 52 54 55 54 52 52 53 54 54 52 51 50 51 51 51 52 52 53 53 52 53 54 54 54 54 54
49 51 53 55 54 53 53 53 53 54 54 52 50 51 53 54 54 54 55 55 55 55 55 56 57 55 52 50 51 51 51 51 52 52 52 52 53 54 55 54 53 53
51 53 55 55 56 56 53 52 53 53 53 53 53 53 54 56 57 57 57 58 58 59 59 60 61 61 58 56 54 53 53 53 52 52 52 53 53 53 53 52 51 51
51 53 55 55 56 55 52 49 50 52 52 53 54 54 55 57 59 59 59 58 59 60 61 62 64 64 63 62 59 58 56 55 54 53 53 53 53 53 53 54 53 53
48 51 54 54 52 52 52 50 48 50 53 54 56 57 58 59 60 60 58 57 58 58 60 62 65 66 66 65 64 63 61 59 58 58 57 56 55 56 56 57 56 56
49 51 53 53 50 48 50 49 47 47 51 54 56 57 58 59 60 60 59 59 59 60 60 62 64 66 67 67 67 66 65 64 63 63 62 61 60 60 60 59 59 58

ECMWFNIL_250_spd_072.txt.gz
Wind_Speed
50 50 50 51 54 54 52 49 44 45 47 45 43 40 38 38 38 37 36 32 29 28 29 29 29 29 27 25 25 25 25 28 29 29 29 29 30 31 31 30 29 28
48 48 50 53 57 57 55 51 45 43 47 47 46 44 41 39 36 34 34 34 33 33 32 31 31 32 31 30 30 30 31 33 33 32 31 30 30 31 31 31 30 29
46 48 50 53 57 57 55 52 46 42 43 45 45 45 43 42 39 36 35 35 35 34 34 34 33 32 32 32 31 31 33 34 33 32 31 30 30 31 32 32 31 30
46 46 47 50 55 56 54 51 47 45 45 45 45 43 40 39 40 40 39 38 37 38 40 39 36 33 33 33 32 30 32 33 30 30 31 30 32 33 33 33 32 32
44 45 44 46 50 53 54 51 46 44 43 44 44 44 41 39 40 42 42 41 39 40 44 44 43 41 40 40 36 31 34 36 33 32 34 34 34 35 34 33 33 33
37 40 41 43 45 49 54 52 47 44 41 41 43 43 42 41 40 42 43 43 42 43 45 46 48 47 44 42 39 34 37 39 36 35 37 36 36 35 34 34 34 33
32 33 37 40 42 46 53 54 49 46 45 43 42 42 41 39 39 40 42 44 44 44 45 46 46 46 43 41 39 37 40 42 39 39 40 38 36 36 35 36 35 34
37 35 36 39 42 45 50 53 50 47 48 46 43 42 41 40 41 41 41 43 44 43 44 44 43 43 41 41 41 41 43 45 44 45 44 39 36 37 37 36 35 34
46 44 41 41 42 44 46 50 52 51 52 51 45 42 40 39 40 41 40 42 43 43 44 43 43 44 43 43 44 43 44 46 47 46 43 39 38 39 37 36 35 34
50 49 47 44 44 45 47 50 51 52 53 52 46 42 39 38 38 37 37 39 40 42 43 44 46 47 46 46 46 45 44 45 45 43 41 41 41 39 37 36 35 35
50 50 49 46 43 43 47 50 51 52 54 54 49 43 40 37 37 37 37 39 40 42 44 46 48 49 49 49 48 45 45 45 44 42 42 42 41 39 38 37 36 36
49 51 50 48 43 41 43 47 50 53 55 56 53 49 46 44 42 42 42 42 42 43 44 46 48 48 48 48 46 44 44 45 44 42 42 42 41 41 39 38 37 36
45 50 52 51 47 45 45 46 48 51 53 54 53 51 49 49 49 48 47 45 44 44 45 45 45 45 45 45 45 43 43 43 42 41 42 43 44 43 40 38 37 38
40 45 48 50 48 48 48 48 48 50 52 52 52 52 51 50 51 51 51 48 46 45 45 46 45 45 45 44 43 40 39 39 41 42 44 45 45 44 41 40 41 41
37 40 43 47 49 49 50 50 49 49 49 49 50 51 51 51 53 52 51 49 47 46 46 47 47 46 46 44 42 39 38 40 44 46 47 47 47 46 46 45 44 44
33 36 39 43 49 52 53 52 50 48 46 44 45 47 48 49 51 51 49 48 47 47 47 47 47 46 46 45 44 42 41 43 47 49 50 51 50 50 49 48 46 46
29 31 34 38 43 50 54 55 55 52 48 44 43 45 45 45 47 48 48 48 47 47 47 47 47 47 46 47 47 46 46 46 49 51 52 53 53 51 49 48 47 46
29 29 31 34 36 41 47 52 55 56 54 51 48 46 46 47 46 47 49 50 49 48 47 47 48 48 48 48 49 50 50 50 51 52 53 54 53 51 50 49 47 46
29 31 31 32 34 37 40 44 47 49 52 53 51 49 49 49 48 47 48 49 50 50 49 49 50 51 51 51 52 52 52 53 53 54 55 55 53 52 52 51 49 48
27 30 32 32 34 38 41 41 42 44 46 47 48 48 47 47 47 49 49 49 50 51 52 53 53 53 53 52 52 52 52 52 53 54 55 56 55 55 55 53 51 50
28 29 31 33 34 39 43 43 43 43 43 42 43 43 44 45 48 51 51 51 52 52 52 53 53 52 52 51 50 50 51 52 52 54 55 56 57 57 56 55 53 52
34 30 30 32 35 39 43 45 45 45 44 43 40 39 42 46 50 52 51 50 51 50 49 49 50 51 51 51 50 51 52 53 54 55 56 57 57 58 57 56 55 54
40 36 33 31 34 39 44 46 46 46 47 48 46 42 42 46 50 50 49 48 49 49 49 50 51 52 53 53 53 54 55 55 56 57 57 57 58 59 59 57 56 55
44 42 39 36 35 38 43 47 49 49 49 50 51 49 48 49 51 50 48 49 50 50 51 52 53 54 54 54 54 55 55 55 55 56 56 56 57 59 59 57 55 53
50 47 45 43 41 41 41 43 48 52 53 53 53 53 52 51 51 50 48 48 48 49 51 53 55 56 56 56 55 55 54 55 56 56 57 58 59 59 59 57 54 52
54 52 50 49 48 48 46 45 46 51 55 56 56 56 56 53 51 48 46 45 46 47 50 52 54 56 58 58 58 58 57 57 57 58 58 60 60 60 59 57 55 54

ECMWFNIL_250_spd_075.txt.gz
Wind_Speed
54 50 46 44 41 39 45 51 52 53 56 58 59 58 54 47 40 37 37 38 37 36 35 33 33 34 32 32 35 37 36 34 31 30 31 32 30 29 28 27 27 27
57 54 49 47 44 39 41 50 54 54 54 55 56 56 57 54 48 43 42 44 45 43 41 38 36 35 34 34 38 38 35 32 30 30 32 32 31 29 28 29 29 30
56 57 52 47 46 40 37 45 54 56 54 54 55 55 54 52 50 46 44 45 47 47 45 41 37 34 34 35 39 40 38 35 33 33 33 34 34 32 31 32 33 33
52 56 55 49 45 39 36 41 50 55 56 54 55 57 55 52 51 48 45 44 44 46 47 44 39 36 35 37 40 42 42 41 39 39 38 39 40 37 34 34 35 33
48 49 50 48 42 37 36 39 46 51 55 56 56 58 57 56 55 52 48 46 44 44 45 45 43 40 38 39 41 43 44 45 44 42 41 42 42 38 33 33 35 33
46 42 42 42 40 38 36 38 43 48 53 57 57 58 58 56 56 54 51 48 47 47 46 45 45 45 43 42 44 44 43 45 45 43 41 40 41 39 35 34 36 36
50 44 40 39 40 40 38 37 41 45 50 55 55 56 56 54 53 54 53 51 50 51 51 49 48 48 46 43 45 47 45 45 45 44 43 42 43 44 41 38 38 38
52 50 46 43 41 41 39 38 40 43 47 50 53 54 54 52 50 51 52 53 53 52 50 47 46 47 47 46 46 48 48 48 48 47 47 48 48 48 46 42 40 40
48 50 48 45 42 42 41 39 40 43 45 48 52 54 55 54 52 50 50 50 51 51 49 47 46 47 49 49 49 49 49 50 51 50 51 51 50 49 48 45 42 42
41 45 47 46 44 43 43 42 40 42 44 45 49 54 56 55 54 51 51 52 52 52 51 49 47 48 50 51 51 50 50 50 51 51 51 51 50 50 50 47 44 44
36 39 43 46 45 44 44 43 42 42 42 43 46 52 55 54 53 52 51 52 53 50 49 47 46 48 50 51 52 51 51 51 51 49 49 50 51 52 52 49 46 45
32 34 38 41 43 42 43 44 44 44 43 43 44 50 54 53 52 52 51 50 50 49 49 49 48 49 50 51 52 51 52 51 49 48 48 49 50 53 53 50 47 47
30 31 34 37 39 40 42 45 46 45 45 44 43 47 53 53 51 52 52 52 51 49 48 48 48 49 49 50 51 51 52 51 49 48 49 49 49 51 53 50 47 47
28 29 32 34 37 39 41 46 48 47 45 45 44 45 50 53 54 53 51 51 52 50 48 48 48 47 47 48 50 52 53 53 51 49 49 49 48 50 52 50 46 45
27 27 29 31 34 37 40 45 51 51 48 47 46 46 47 51 54 55 53 52 52 50 48 48 47 46 46 48 50 52 53 53 50 49 48 47 47 48 49 48 47 47
28 26 26 28 29 32 37 43 50 51 49 48 47 46 47 48 51 54 56 56 54 52 51 49 47 47 48 49 51 52 53 51 49 47 46 45 45 46 48 48 49 48
30 26 25 25 25 27 32 39 46 49 47 46 44 43 44 45 45 48 51 54 55 56 56 55 54 53 52 51 52 52 52 50 48 47 46 45 46 48 49 49 50 49
31 27 24 23 23 24 27 33 41 47 48 47 45 44 44 45 45 45 46 49 52 54 56 56 56 56 54 53 53 53 53 51 48 48 48 48 49 49 49 49 49 49
33 28 24 23 24 24 25 28 35 43 48 50 50 49 48 48 48 48 48 49 51 53 54 54 55 56 55 54 55 55 54 53 51 50 50 50 50 50 49 49 50 51
37 32 27 24 24 25 25 25 29 37 46 52 53 52 52 52 51 50 49 49 50 51 50 49 51 53 54 54 55 55 55 54 52 51 51 51 51 51 50 50 51 53
42 39 34 28 26 25 25 25 26 31 41 51 55 55 54 53 51 49 48 48 49 50 49 49 50 51 51 52 53 54 53 53 51 51 51 52 52 53 53 53 54 55
45 44 41 37 31 27 25 26 27 28 35 45 53 55 55 54 52 50 48 48 50 50 49 50 52 52 50 51 53 53 53 52 52 52 53 53 54 55 56 57 58 58
47 46 45 43 39 33 28 26 28 30 32 38 44 48 50 53 54 53 52 51 52 51 50 49 50 52 51 52 53 53 53 53 53 53 54 55 56 58 59 60 61 61
49 48 47 47 45 41 35 30 28 31 33 37 41 43 43 45 47 49 51 51 49 49 49 48 48 50 52 54 55 55 55 56 56 56 55 56 57 59 60 61 62 62
52 51 50 49 49 47 43 38 33 32 33 37 42 46 47 45 44 44 48 50 47 45 46 47 48 51 55 57 56 56 58 59 60 60 59 58 58 58 58 59 60 61
53 54 52 51 51 51 49 46 41 37 35 37 42 48 51 51 48 46 47 50 48 45 46 48 51 56 59 59 57 58 59 60 61 61 60 59 58 58 59 59 60 61

ECMWFNIL_250_spd_078.txt.gz
Wind_Speed
44 42 43 48 54 57 55 53 51 48 47 49 53 57 58 57 54 51 49 46 44 42 39 37 37 37 39 38 37 39 39 36 37 37 34 32 35 39 40 39 37 34
47 45 43 44 50 57 59 57 54 51 49 49 49 53 56 57 55 52 51 49 47 45 41 38 38 39 40 40 40 42 40 36 36 37 35 34 36 41 43 40 37 34
47 45 43 43 46 53 59 61 58 55 52 50 49 50 55 58 57 54 52 50 49 48 44 41 40 41 42 42 44 45 43 38 36 36 37 38 39 43 45 42 37 34
44 42 42 42 43 48 55 60 62 59 54 51 50 49 52 57 59 57 54 51 50 49 47 45 44 44 44 42 43 45 44 41 38 36 38 39 41 43 44 42 39 36
40 38 38 40 42 44 49 55 61 62 56 51 48 48 50 56 60 62 60 55 51 49 49 49 48 46 44 43 42 43 42 40 39 37 37 38 40 40 41 41 40 37
35 33 34 38 40 41 44 49 55 60 58 52 47 45 48 55 60 63 65 62 58 53 52 51 50 47 44 44 44 44 42 40 40 40 39 39 41 41 42 43 42 40
31 31 33 37 41 41 42 44 47 52 56 53 48 45 46 52 59 62 63 63 62 60 57 54 51 49 46 45 46 46 45 43 42 43 43 44 44 44 45 46 45 45
28 29 32 36 41 43 44 44 43 45 51 52 49 47 47 49 54 60 61 60 60 61 63 61 56 52 49 48 48 49 49 48 48 47 47 47 46 46 47 46 46 47
26 27 29 33 39 43 46 46 42 41 47 51 50 50 51 48 49 55 60 60 59 59 62 65 63 58 52 50 50 50 51 53 54 54 52 49 48 49 49 47 45 46
25 25 26 29 33 39 44 47 43 40 44 51 54 54 53 47 46 50 56 59 60 59 59 61 64 62 56 52 51 51 52 54 56 57 54 52 52 53 52 50 48 47
25 24 25 25 28 32 38 43 44 42 42 48 51 52 50 44 42 46 53 57 60 61 60 60 63 62 58 55 53 52 53 54 56 56 54 53 53 52 51 52 52 51
27 24 23 23 24 26 29 35 40 42 45 47 48 49 47 42 38 42 49 55 58 61 61 61 62 62 60 58 57 56 56 55 55 54 52 53 53 52 51 51 54 55
29 26 24 22 21 22 24 28 32 37 42 47 48 47 46 42 38 39 45 51 56 59 61 62 62 62 62 62 61 60 59 57 55 53 53 54 56 54 52 51 54 57
31 28 25 23 22 21 22 24 28 32 36 41 45 46 45 42 40 39 42 48 52 56 59 60 60 59 60 62 63 62 61 59 59 58 56 57 59 59 56 54 56 57
32 30 27 25 25 24 23 23 25 29 33 37 41 43 44 43 41 40 42 46 50 55 58 59 59 59 59 60 60 59 59 59 60 60 59 59 60 61 60 59 58 57
33 33 30 28 28 27 26 24 23 26 32 36 39 41 43 44 43 42 43 45 48 53 58 60 60 60 60 60 57 55 57 60 60 60 60 60 60 61 61 60 58 56
33 35 34 31 30 30 28 27 25 24 28 34 39 42 44 45 46 45 45 47 48 51 57 61 60 59 60 59 57 57 60 62 62 62 61 61 62 63 62 61 59 57
35 36 36 34 33 32 30 29 28 27 26 30 36 42 46 48 48 48 47 47 48 51 56 59 58 57 58 57 56 57 60 62 61 60 59 59 61 62 63 62 60 59
37 37 38 37 36 35 34 31 30 29 28 28 31 37 45 50 51 50 49 48 48 51 56 59 58 55 54 55 55 56 58 60 60 59 58 59 59 60 61 60 59 58
39 38 39 40 38 37 37 34 32 31 31 31 30 32 38 47 52 53 51 49 48 50 55 59 59 56 52 51 53 54 54 56 57 57 58 59 59 59 58 57 57 57
41 39 40 42 42 40 39 37 34 32 32 33 33 33 35 40 49 54 53 51 49 49 52 57 59 58 55 53 53 53 53 55 57 58 58 59 60 60 60 59 58 58
43 41 41 42 44 44 42 40 38 35 34 34 35 35 35 37 44 51 53 51 50 48 49 52 54 55 55 55 55 55 55 58 62 63 62 62 62 63 63 62 60 59
46 43 42 42 45 46 45 44 42 39 36 36 36 36 36 37 41 48 52 51 48 48 48 48 48 50 52 54 56 56 56 59 63 65 66 66 65 64 63 62 61 60
50 46 43 42 44 47 48 47 47 45 41 38 38 37 37 36 39 44 51 53 51 50 49 49 49 51 54 56 57 58 58 60 62 64 65 66 65 63 61 59 59 59
53 50 46 43 43 46 50 50 50 50 48 44 40 39 38 38 37 40 48 55 57 54 51 51 52 54 56 57 58 59 60 61 61 60 61 62 62 61 59 58 58 59
54 53 50 46 43 44 49 53 52 52 53 51 47 43 41 40 39 39 44 52 58 57 52 50 51 54 56 56 57 59 60 60 61 62 62 62 61 59 59 60 60 61

ECMWFNIL_250_spd_081.txt.gz
Wind_Speed
45 44 43 42 39 37 38 40 43 40 39 48 56 54 52 54 54 53 60 66 64 59 56 54 54 52 48 46 45 45 43 40 39 39 36 35 36 37 38 38 38 38
46 45 44 43 41 39 37 37 44 47 44 50 60 61 54 53 52 48 51 60 66 65 61 57 55 54 51 48 46 45 44 42 41 40 37 35 34 37 39 39 38 39
46 45 45 45 43 40 38 36 40 49 53 54 58 63 59 52 50 47 42 49 62 69 67 61 57 55 52 50 48 47 46 45 44 42 40 37 38 41 43 42 40 40
46 46 46 47 46 43 39 37 37 43 51 55 55 59 61 54 49 47 41 40 52 67 71 66 60 57 53 51 50 49 47 46 46 45 43 41 41 45 46 43 42 41
47 47 48 48 47 44 40 37 35 36 43 51 54 55 59 58 51 48 45 40 44 58 70 70 66 60 55 52 52 50 49 46 45 47 47 44 44 45 45 42 42 41
47 48 48 48 47 43 39 36 34 34 39 46 50 53 57 59 55 50 48 44 41 48 59 66 68 66 59 55 53 53 51 49 46 47 48 47 47 45 42 42 42 42
47 48 48 47 45 41 38 35 32 32 37 44 49 53 57 60 57 51 48 45 42 43 51 59 66 69 65 60 57 55 54 52 49 48 49 50 50 46 43 43 43 43
47 47 47 45 42 38 36 34 31 31 35 42 49 55 58 60 58 53 48 44 41 39 43 50 60 68 70 65 61 58 56 55 54 51 50 50 50 48 46 45 44 44
47 47 46 43 39 36 35 33 31 31 34 40 46 52 58 63 62 59 54 48 42 39 38 41 48 58 68 69 64 61 60 57 57 55 53 52 52 50 48 46 45 46
47 46 45 42 37 34 33 32 30 31 34 38 42 47 54 62 64 65 63 55 47 43 38 34 35 44 59 69 67 63 62 59 57 57 56 54 53 51 49 48 47 48
48 46 44 42 37 33 31 31 29 30 33 38 41 44 49 57 62 66 67 61 52 47 40 33 32 37 49 63 68 66 64 62 59 58 57 56 55 53 50 49 48 49
48 46 43 42 39 34 30 29 29 29 32 37 42 44 45 51 58 64 67 64 56 50 42 35 35 38 43 54 66 69 66 62 60 58 57 56 57 57 54 51 49 49
48 46 43 41 40 36 31 29 28 28 30 34 40 45 47 48 53 60 65 65 61 55 46 38 35 39 43 49 59 68 68 64 60 58 56 55 56 57 57 56 52 51
49 47 44 42 40 38 34 29 28 28 28 31 35 42 47 49 51 56 61 65 65 61 55 47 40 40 45 49 52 59 65 66 63 59 56 54 55 55 56 57 56 54
51 49 46 42 40 39 36 32 29 28 28 28 31 35 42 48 51 55 59 64 66 64 62 57 49 44 46 49 49 51 57 63 65 63 59 57 57 56 55 55 56 55
54 51 48 44 41 39 37 35 32 30 29 29 29 31 35 41 47 53 58 63 65 65 63 59 53 48 47 49 50 50 52 58 62 62 61 60 60 59 57 57 57 56
55 54 50 47 43 41 38 36 34 32 31 31 30 31 33 36 42 48 54 60 65 67 65 59 53 50 49 49 51 52 53 56 58 57 56 58 59 59 58 58 58 57
57 56 53 50 46 43 41 38 36 34 34 34 33 32 33 35 38 43 48 55 61 65 66 62 55 51 51 51 53 55 57 58 59 57 53 53 53 55 56 57 57 58
57 57 56 53 50 47 44 41 37 35 35 36 36 35 35 35 37 40 44 50 56 61 63 63 58 54 53 52 52 55 58 60 62 60 57 53 48 49 53 55 57 61
58 58 58 56 53 50 47 44 40 37 36 37 39 39 37 37 37 39 42 46 51 56 59 61 60 56 54 53 51 52 55 59 60 61 63 60 54 51 53 56 59 64
60 59 59 58 56 53 50 47 44 40 37 38 40 42 41 39 38 38 41 44 48 52 55 58 59 57 54 53 51 51 52 55 57 58 60 62 59 57 56 57 60 64
62 60 60 59 59 57 54 50 47 44 40 38 40 43 44 43 40 40 40 42 46 50 53 56 57 57 54 52 52 53 54 55 56 57 57 58 57 55 54 56 57 59
64 63 62 61 60 58 57 55 51 47 44 40 40 42 46 46 44 43 42 42 44 48 52 56 57 57 55 53 53 56 57 58 59 58 55 55 55 55 55 57 59 60
66 65 64 63 61 60 58 58 56 52 47 43 41 42 45 49 48 46 45 44 44 46 50 54 58 58 57 55 55 57 60 62 62 59 57 57 58 58 58 58 60 62
68 67 66 64 63 61 59 59 59 57 52 47 43 42 44 49 52 50 48 47 46 45 46 50 55 59 59 58 57 58 60 63 63 60 59 60 60 60 60 59 61 62
69 68 67 66 64 63 62 61 61 61 58 52 47 43 43 47 52 54 51 49 49 48 46 46 50 56 60 61 59 57 58 62 64 61 59 59 60 60 61 62 63 64

ECMWFNIL_250_spd_084.txt.gz
Wind_Speed
51 50 50 49 48 46 44 42 40 39 39 42 45 48 50 49 46 46 47 46 47 49 49 48 48 54 58 57 50 47 47 47 48 51 51 50 46 42 41 41 40 41
51 51 50 49 48 46 45 43 41 40 41 42 44 48 51 50 50 50 49 50 50 50 51 52 51 53 59 63 59 54 52 50 49 50 50 49 48 46 45 43 42 44
52 51 50 49 48 47 46 44 43 42 42 42 41 45 50 51 52 54 53 52 53 54 55 54 54 55 58 63 65 64 60 54 52 52 50 48 48 47 47 45 43 45
52 51 50 49 48 48 47 45 43 42 42 41 40 41 47 52 53 55 56 56 55 57 58 56 54 56 57 59 65 68 65 59 55 54 53 51 50 48 46 45 44 45
52 51 49 49 49 48 47 45 43 42 42 42 40 38 42 50 55 54 53 56 58 59 59 57 54 56 57 56 58 65 68 65 59 57 55 53 52 50 47 45 44 46
52 51 50 49 50 48 46 44 43 42 42 42 41 38 38 45 54 57 55 56 60 60 59 58 54 55 57 54 53 58 65 67 65 61 56 53 52 51 49 47 46 47
51 51 50 50 50 48 45 44 43 42 42 43 43 40 38 40 49 58 61 60 61 62 61 58 53 52 55 53 52 56 60 63 66 64 59 55 52 51 50 49 48 49
52 51 51 51 50 47 45 43 43 42 42 43 43 41 38 38 43 52 61 64 62 59 60 60 55 52 53 52 50 52 56 61 64 65 63 57 52 51 52 51 50 50
52 51 51 51 50 47 44 43 42 42 42 42 42 40 38 37 39 45 54 63 61 52 50 56 58 54 51 50 47 46 50 57 62 65 65 60 54 52 52 52 52 52
52 52 52 51 50 47 44 42 42 42 41 41 41 39 38 35 37 42 47 55 59 51 41 43 52 55 54 51 48 45 46 51 57 61 62 60 56 53 52 53 53 52
53 53 52 51 50 48 45 42 41 42 41 40 40 39 37 35 35 40 44 49 54 53 45 39 42 51 58 57 53 49 47 49 52 56 58 58 57 55 55 56 55 54
54 53 52 51 51 49 46 43 41 41 40 39 39 38 37 35 34 38 43 47 50 51 51 48 44 48 58 62 56 50 48 49 48 50 54 56 57 58 58 57 56 57
54 54 53 52 51 50 48 45 42 40 39 39 39 38 37 35 34 36 41 47 51 51 51 54 54 54 58 60 56 50 47 46 46 46 46 48 53 60 63 60 57 58
54 54 53 52 52 51 50 48 44 41 39 38 38 38 37 36 34 36 40 45 51 54 53 56 60 61 60 59 56 53 47 42 44 46 44 43 47 56 64 65 62 60
55 54 53 53 53 52 51 50 48 44 40 39 38 37 37 36 35 35 38 44 50 54 55 56 62 66 66 62 58 56 51 44 43 47 45 42 43 48 57 66 68 63
56 55 54 54 54 54 53 52 50 47 43 40 39 38 37 36 35 35 37 42 48 53 55 56 62 67 69 67 62 59 56 50 48 50 48 44 44 46 51 61 66 63
57 56 55 55 55 55 54 54 53 50 47 44 41 39 38 36 35 35 37 41 46 52 55 57 61 66 70 70 67 63 59 54 53 55 54 50 48 47 50 57 60 58
58 57 57 56 56 56 56 56 55 52 51 48 45 41 39 38 36 35 36 40 44 50 55 57 61 65 68 70 70 66 61 57 55 56 57 57 55 52 51 55 60 59
60 59 59 58 57 57 57 58 57 55 53 52 49 46 42 40 38 36 36 38 43 48 53 58 61 65 66 68 70 69 65 61 58 56 56 58 59 57 55 55 59 62
62 61 60 59 59 59 59 59 58 57 55 54 52 50 47 44 41 39 37 38 41 47 52 56 61 65 66 66 68 71 71 68 64 62 61 60 59 59 58 57 59 62
63 63 62 62 61 61 61 61 60 59 57 56 55 53 51 48 45 42 39 38 40 44 51 55 59 63 66 66 66 71 75 75 71 67 64 63 61 60 59 59 60 61
65 65 65 64 64 64 63 63 62 61 60 59 57 56 54 52 50 46 43 40 40 42 48 55 58 60 64 66 65 67 73 79 79 74 68 63 61 61 60 59 60 59
67 67 67 67 67 66 66 65 64 64 63 62 60 59 57 56 53 50 47 43 42 42 45 52 58 60 61 64 64 64 68 75 80 81 75 66 61 60 59 60 62 60
69 69 70 70 69 69 68 68 67 66 65 64 63 61 60 59 56 54 51 47 44 43 45 49 55 60 61 62 63 64 65 69 75 80 80 73 65 61 60 61 63 62
71 72 72 71 71 71 70 70 69 68 67 66 65 64 63 61 60 57 55 52 47 45 45 47 52 57 61 62 62 62 63 66 71 76 80 78 71 64 62 62 62 63
73 73 73 73 73 73 72 72 71 70 69 68 67 66 65 64 63 61 58 56 52 48 46 47 50 53 59 62 63 61 61 64 67 72 77 79 75 69 64 61 60 61

ECMWFNIL_250_spd_087.txt.gz
Wind_Speed
58 58 57 57 56 55 55 55 56 57 55 54 54 53 53 52 51 49 47 47 49 51 50 50 49 44 40 43 49 49 47 46 47 46 42 39 40 41 42 44 44 43
60 59 58 57 56 55 55 54 56 56 55 54 54 54 53 52 50 49 48 47 48 50 51 50 50 46 40 42 50 51 48 48 48 45 42 40 39 39 39 40 43 46
59 60 60 59 58 56 55 55 55 55 54 54 53 54 53 52 50 49 48 47 47 49 51 51 50 50 45 44 50 52 48 48 50 48 46 45 43 41 41 39 40 45
56 57 58 59 58 56 55 54 54 53 53 53 53 53 53 52 51 49 48 47 47 47 50 52 51 52 51 48 50 54 52 49 52 51 49 49 48 46 45 43 40 41
54 54 55 56 55 55 54 54 53 52 52 52 52 52 53 53 51 50 48 47 46 46 47 50 51 52 54 53 52 54 55 53 53 54 52 51 51 50 50 47 43 41
52 52 52 52 52 53 53 53 52 51 51 50 50 51 52 52 52 50 49 47 46 46 45 46 49 51 53 56 55 54 56 57 56 55 55 54 53 54 54 52 47 44
50 50 50 50 50 50 51 52 51 51 50 49 49 50 51 51 51 50 49 47 45 45 44 43 45 50 52 54 57 56 56 58 57 56 57 56 57 58 58 57 54 51
48 49 49 49 49 49 50 51 51 50 50 49 49 49 50 50 51 50 49 47 45 44 44 42 42 46 50 52 56 58 58 58 56 56 57 56 56 58 58 59 60 59
48 48 49 49 48 49 50 50 51 51 50 49 49 49 49 49 50 50 48 47 45 44 42 42 40 42 47 52 55 57 59 60 57 56 58 57 55 55 54 54 57 60
49 48 49 49 49 49 50 50 51 51 50 50 50 49 49 48 48 49 48 46 45 44 41 40 40 40 44 50 55 56 57 59 59 58 59 58 56 55 55 53 53 55
49 49 49 50 50 50 50 50 51 51 50 50 50 50 49 49 48 47 47 46 45 44 41 39 39 40 41 46 52 56 56 56 57 59 59 58 56 56 57 57 56 55
50 50 51 51 51 50 50 51 51 51 51 51 51 51 50 49 48 47 46 46 44 43 42 40 39 39 40 43 47 53 56 56 57 58 58 57 56 55 56 57 57 57
52 52 52 52 52 51 51 51 52 52 52 52 52 52 51 50 49 47 45 45 44 43 42 40 40 40 39 40 43 48 53 56 57 58 58 58 57 56 56 56 56 56
53 53 53 54 53 53 53 53 53 53 53 53 53 52 52 51 50 48 46 44 43 43 42 40 40 41 40 38 40 45 51 55 55 56 57 58 58 56 54 55 54 53
54 54 54 54 54 54 54 54 54 54 54 54 53 53 53 53 51 50 48 45 44 43 42 41 39 41 42 39 38 42 50 55 54 53 56 59 60 56 54 55 55 52
55 55 55 55 55 55 55 55 56 56 55 55 54 54 54 54 53 52 50 47 45 43 42 42 40 40 41 41 39 40 46 54 56 54 55 60 62 59 56 56 56 54
56 56 56 56 56 57 57 57 57 57 56 56 56 55 55 55 54 54 52 49 47 45 43 42 42 40 40 41 41 40 43 50 56 57 55 58 62 61 59 58 57 55
57 56 57 57 58 58 58 58 58 58 58 57 57 57 56 56 56 55 54 52 50 48 46 44 43 42 41 41 42 42 42 47 54 59 59 58 60 61 62 61 58 57
58 57 57 58 59 59 60 60 60 60 60 59 59 59 58 58 57 57 56 55 53 50 48 46 44 44 43 41 42 43 44 46 51 57 62 63 61 61 63 64 61 58
59 58 58 59 59 60 61 61 62 62 62 62 61 61 61 60 59 59 58 57 56 54 52 49 47 45 45 44 43 43 45 47 50 54 60 66 67 65 65 66 65 61
60 60 60 60 60 60 61 62 63 63 64 64 63 63 63 62 61 61 60 59 58 56 55 53 51 48 47 45 45 45 45 47 50 53 57 64 69 71 69 68 68 66
61 61 61 61 61 62 62 63 63 64 65 65 65 65 64 64 63 63 62 61 60 59 57 56 54 52 50 48 46 46 47 48 50 52 56 60 67 72 74 72 70 69
63 62 62 63 63 63 64 64 65 66 66 66 67 67 66 66 66 65 65 64 63 61 60 59 57 55 53 50 49 48 49 49 50 52 55 58 63 68 74 76 75 71
65 65 65 65 66 66 66 66 66 67 67 67 68 69 69 69 68 68 67 66 65 64 62 61 60 58 56 54 51 50 50 50 51 52 54 57 61 65 70 75 78 75
69 69 69 69 70 70 71 70 70 70 69 69 70 70 71 71 71 70 70 69 67 66 65 63 62 61 59 57 55 53 52 52 52 52 54 56 60 63 66 71 76 78
73 73 73 73 73 73 74 74 74 74 73 73 73 74 73 73 73 72 71 71 70 68 67 66 64 63 62 60 58 56 55 54 53 53 54 56 58 62 65 67 71 76

ECMWFNIL_250_spd_090.txt.gz
Wind_Speed
60 60 60 59 58 58 58 58 59 58 58 58 59 60 60 60 59 59 58 58 57 56 55 53 51 50 49 47 44 43 44 43 38 35 36 39 40 40 43 44 43 41
58 58 58 57 56 56 56 56 56 56 56 56 57 58 59 59 59 59 58 57 56 55 54 52 51 50 49 47 43 41 42 42 40 37 38 42 42 41 43 46 44 43
57 57 57 56 55 54 54 54 54 54 55 55 55 56 57 57 58 58 57 56 54 53 52 52 51 50 49 46 43 41 40 41 41 40 41 43 44 44 44 45 44 42
56 57 57 56 55 53 52 52 52 52 53 53 53 54 55 55 55 55 55 54 52 51 51 51 51 51 49 46 43 41 40 40 41 41 42 44 46 47 45 46 47 45
57 57 57 56 54 52 51 51 51 51 51 51 52 53 53 53 53 53 52 51 50 50 50 50 50 51 51 47 43 41 40 40 41 42 43 45 47 49 49 49 50 48
57 57 56 54 53 52 51 50 50 49 49 49 50 51 52 52 52 51 51 50 49 48 48 49 49 50 51 49 46 42 40 40 40 41 43 45 48 51 52 53 54 51
56 55 54 53 53 53 52 50 50 49 48 48 48 49 50 51 51 51 50 49 48 47 47 48 49 49 49 50 48 45 42 40 40 41 43 44 48 52 53 54 57 56
55 54 53 53 53 53 52 51 50 50 49 48 48 48 49 50 50 50 50 49 49 48 47 47 49 49 48 49 49 47 45 42 41 40 42 44 47 52 55 55 57 57
54 53 53 54 53 52 52 52 51 50 49 49 49 49 49 49 50 50 50 50 49 48 47 47 49 49 48 48 48 48 47 44 42 41 40 42 46 51 55 56 57 58
53 53 53 54 53 53 52 51 50 50 50 50 50 50 50 50 50 51 51 51 50 49 48 47 49 49 48 47 47 48 48 46 44 41 40 41 44 49 54 56 57 59
52 53 54 55 56 55 54 52 50 50 51 51 51 51 51 51 51 52 52 52 52 50 49 48 49 49 49 48 47 47 47 47 45 43 40 40 42 47 52 55 56 58
53 55 55 57 58 58 57 55 53 53 53 52 52 52 52 52 52 53 53 53 52 51 50 49 49 49 49 48 48 47 47 47 46 44 41 40 40 45 52 55 56 56
54 56 57 59 60 61 60 59 57 57 56 54 53 53 53 54 54 54 54 54 53 52 51 51 50 50 50 49 48 48 48 47 47 46 43 41 40 43 50 56 57 56
55 58 59 61 62 63 63 62 61 60 57 56 55 54 54 54 54 54 54 54 54 53 53 52 51 51 51 50 49 49 48 48 48 47 45 43 40 41 46 54 58 59
57 60 62 63 64 65 64 64 64 61 58 56 56 55 55 55 55 55 55 55 55 55 54 54 53 53 52 51 51 50 49 49 48 48 47 46 43 41 43 50 56 59
58 61 63 64 65 66 66 66 65 62 58 57 56 56 56 56 56 56 56 57 57 57 56 56 55 55 54 53 51 51 51 50 49 48 48 47 45 43 42 47 54 56
59 61 63 65 66 67 67 66 64 62 60 58 57 57 56 56 57 57 57 58 58 58 58 58 57 57 56 55 53 51 51 51 51 50 49 48 47 45 43 45 51 56
62 63 65 66 67 68 67 66 64 63 61 59 58 57 57 57 57 57 58 58 59 59 59 59 59 58 58 57 55 53 52 52 52 52 51 50 49 48 46 44 47 55
64 65 66 67 68 69 67 66 65 64 63 61 59 58 58 57 57 58 58 59 59 60 60 60 60 60 60 59 58 56 55 53 52 52 52 52 52 51 49 46 45 51
65 66 67 68 68 68 68 67 66 66 65 63 61 60 59 58 58 58 59 59 60 60 61 62 62 62 61 61 59 58 57 56 54 53 53 53 53 53 52 50 47 47
66 67 67 68 68 68 68 68 68 67 67 67 66 64 63 62 61 61 61 60 60 61 61 62 63 63 63 63 61 60 59 58 57 56 55 54 54 54 54 54 51 47
67 67 68 68 68 68 69 69 69 69 69 70 70 69 68 67 66 65 64 64 63 63 63 63 63 64 64 64 64 62 61 60 60 59 57 56 56 56 55 55 54 52
67 68 68 68 68 68 69 70 70 71 72 73 74 74 73 72 70 69 68 67 67 67 67 66 66 66 65 65 65 64 63 63 62 61 61 60 58 57 57 56 56 55
69 69 68 68 68 69 70 72 73 75 76 77 77 77 77 76 74 72 71 70 70 70 70 70 69 68 68 67 66 65 65 64 64 64 63 63 61 59 58 58 57 56
70 69 69 69 71 72 74 75 77 78 79 80 80 81 80 79 77 76 75 75 74 74 73 73 72 72 71 70 68 67 66 66 66 66 66 65 64 62 60 59 59 57
69 69 71 72 74 76 77 79 80 81 82 82 83 82 82 81 80 80 80 79 78 77 76 75 75 74 73 72 71 70 69 69 69 68 68 67 65 63 62 61 60 59

ECMWFNIL_250_spd_093.txt.gz
Wind_Speed
60 60 60 60 61 60 60 60 60 59 59 57 56 55 55 54 54 53 53 52 52 51 51 51 51 51 51 52 52 52 51 50 48 46 44 41 39 37 36 36 36 38
58 58 58 58 58 58 58 57 57 57 56 55 54 54 54 54 53 53 52 51 50 50 49 50 50 51 51 50 50 50 50 48 47 46 44 41 39 37 35 35 36 38
56 56 56 56 56 56 56 55 55 55 55 54 54 54 54 53 53 52 51 50 50 49 49 49 50 50 50 50 49 49 48 47 46 45 44 41 38 36 35 34 36 39
54 54 54 54 54 55 55 54 54 54 55 55 54 54 53 53 52 51 51 50 49 49 48 48 49 50 50 50 49 48 47 46 46 45 44 42 39 36 35 33 35 39
54 53 53 53 54 54 55 54 54 54 55 55 55 54 53 52 51 51 50 50 49 49 49 48 48 49 49 49 49 47 47 46 47 46 44 42 40 37 35 34 33 36
54 54 54 54 54 55 55 55 55 56 56 56 55 54 53 52 52 51 50 49 49 49 49 49 48 48 48 49 48 47 47 47 47 47 45 43 41 38 36 34 33 34
55 55 55 55 56 56 55 55 56 57 57 57 57 55 54 53 52 51 50 49 48 48 49 49 49 48 48 49 49 48 47 47 48 47 46 44 43 40 37 35 34 34
57 56 56 57 57 57 56 56 57 58 59 59 58 56 55 54 52 51 50 48 48 48 49 50 49 49 49 49 49 49 48 48 48 48 47 46 44 42 39 36 34 34
58 58 58 58 59 58 58 59 60 60 60 60 59 58 56 54 53 51 50 48 48 48 49 50 50 50 50 49 49 49 49 49 48 48 48 47 45 44 42 39 36 35
58 59 59 59 60 60 61 61 62 62 61 61 60 59 57 56 55 54 51 49 49 49 50 51 51 51 51 51 51 50 51 50 49 49 48 48 47 45 44 42 38 37
59 60 60 60 61 62 62 63 63 62 61 61 61 59 58 57 57 56 54 51 50 51 52 52 51 51 52 52 52 52 51 51 51 50 49 48 48 47 45 44 42 39
59 60 60 60 61 62 62 62 62 61 61 62 61 59 57 57 58 58 58 56 54 54 54 53 52 51 52 53 53 53 53 52 52 51 51 50 49 48 46 45 44 42
57 57 58 58 59 60 60 60 61 62 61 61 60 58 58 57 58 60 61 60 58 57 56 54 53 52 52 53 54 54 54 53 53 52 52 51 50 49 48 46 45 44
56 56 57 57 58 59 60 60 61 61 60 59 59 58 57 58 60 62 63 63 62 61 59 56 54 53 52 52 54 55 55 55 54 54 54 53 52 51 50 48 47 46
56 56 57 57 58 58 59 60 60 60 60 60 59 58 57 59 62 64 64 64 64 64 62 58 56 55 53 53 53 54 55 56 56 55 55 55 55 54 52 50 49 48
56 57 58 58 59 59 59 59 59 60 61 60 59 58 60 62 64 65 66 66 66 66 65 62 59 57 55 54 53 54 56 57 57 57 57 56 57 57 55 53 51 49
56 57 59 60 61 61 61 61 61 61 61 59 59 60 63 65 66 66 67 68 68 68 67 66 63 60 57 55 54 54 55 57 58 59 59 58 57 58 58 57 54 52
58 59 60 61 61 62 63 63 63 62 61 60 61 64 66 68 68 69 69 70 70 70 69 68 67 64 61 58 56 55 55 56 58 59 60 60 60 59 59 59 58 56
61 61 62 62 62 62 63 62 62 62 62 62 65 67 68 69 70 71 72 73 73 72 71 70 68 67 65 63 61 59 57 57 59 60 61 62 62 62 61 61 61 60
62 63 63 63 63 63 63 63 64 64 65 66 68 69 70 71 73 74 75 75 75 74 73 71 70 69 68 68 67 65 63 61 61 61 63 63 63 63 63 63 62 62
62 62 63 63 64 65 66 66 67 68 68 70 71 72 73 74 76 77 78 77 76 75 74 73 73 72 72 71 71 70 69 67 65 64 64 64 64 65 64 64 64 64
60 61 62 63 64 66 67 68 69 70 71 72 73 74 75 76 78 79 79 79 79 78 77 76 76 76 76 75 75 74 73 72 70 68 66 66 66 65 66 65 65 65
59 60 62 63 64 65 66 68 69 71 72 74 75 76 77 78 79 80 80 80 80 80 79 79 79 79 79 79 78 78 77 76 74 71 69 68 68 67 67 67 67 67
59 60 61 63 64 65 67 68 70 72 73 74 76 77 78 78 79 80 80 81 81 82 82 83 83 83 83 82 82 81 80 78 77 74 72 72 71 70 69 69 69 68
60 61 62 63 64 66 67 69 70 71 72 74 75 76 77 78 79 80 81 81 82 83 84 85 85 85 85 85 84 83 82 80 78 77 75 74 74 73 72 71 70 70
60 61 62 63 64 65 67 68 69 71 72 73 74 75 77 78 79 80 82 83 84 85 85 86 87 87 87 86 85 84 83 81 79 77 76 75 74 74 74 72 71 72

ECMWFNIL_250_spd_096.txt.gz
Wind_Speed
54 55 55 56 56 57 57 57 57 57 57 57 57 57 56 56 56 57 56 55 54 52 52 51 51 51 50 49 48 47 47 46 45 45 45 44 44 43 42 41 41 40
55 55 55 55 55 55 55 55 56 56 55 56 55 54 54 54 55 55 54 53 52 51 50 50 50 50 50 49 48 47 47 47 46 45 45 44 44 43 42 41 40 40
55 55 55 55 55 54 54 55 55 55 54 54 54 53 53 53 53 54 54 53 52 51 50 50 50 50 50 49 49 48 48 47 47 46 45 45 44 43 42 41 40 39
56 56 56 56 55 55 55 55 55 54 54 54 54 54 54 54 54 54 54 53 52 52 52 51 51 51 50 50 50 50 49 48 48 47 46 46 44 43 42 42 41 40
57 57 57 57 56 56 55 54 54 54 54 54 54 55 55 55 54 54 54 53 53 53 53 52 52 52 51 51 50 50 50 49 48 47 47 47 46 44 43 42 42 41
59 58 58 57 57 56 56 55 55 55 55 56 55 55 55 55 54 55 55 55 54 54 54 54 54 53 52 52 51 50 50 49 48 48 48 47 47 46 44 43 43 42
59 59 59 58 57 57 57 58 58 58 58 58 57 57 57 56 56 56 56 56 56 56 56 56 56 55 54 54 52 51 50 50 49 48 48 47 47 47 46 44 44 43
58 58 59 59 59 59 59 60 60 61 60 60 59 59 59 59 58 58 58 58 58 58 59 59 58 57 56 56 55 53 51 50 49 48 48 48 48 47 47 46 45 45
57 57 58 58 59 59 60 61 61 61 61 61 61 61 60 60 59 59 59 59 59 60 61 60 59 58 57 57 56 55 54 51 50 48 48 48 48 48 48 48 47 46
56 57 57 57 58 58 58 59 60 60 60 60 60 60 60 60 60 59 60 60 60 60 61 60 59 59 58 57 57 57 56 53 51 49 49 48 48 48 48 49 49 49
56 56 56 56 57 57 58 59 59 60 60 60 60 60 60 60 60 60 59 59 59 59 59 59 59 58 58 58 58 59 57 55 52 51 50 49 49 49 49 50 50 50
55 56 56 56 56 57 57 58 59 60 60 60 60 60 60 60 59 58 58 57 57 58 58 58 58 58 58 59 59 59 58 57 55 54 52 51 50 50 50 50 50 51
55 55 55 55 56 56 57 58 59 60 60 60 60 60 59 59 59 58 58 57 57 57 57 58 58 59 59 60 60 60 60 59 58 57 56 55 53 52 51 51 51 51
54 55 55 55 56 57 57 58 59 60 60 60 60 60 60 60 60 60 59 58 58 58 58 59 60 61 62 62 61 62 62 62 61 61 61 59 57 55 53 53 52 52
55 56 56 57 57 58 58 59 59 60 60 61 61 61 61 61 60 59 59 58 59 60 60 62 63 63 63 63 63 64 65 64 64 64 63 63 62 59 57 55 54 53
57 58 59 59 59 59 59 59 60 60 60 61 62 63 63 62 61 60 60 60 61 61 62 63 64 65 65 65 65 66 67 67 67 67 67 66 65 63 61 59 56 55
59 60 61 61 61 61 61 61 61 61 61 62 62 63 63 64 63 63 63 63 64 64 64 64 65 66 66 67 67 68 68 69 70 71 71 70 68 66 64 62 60 58
59 61 62 62 62 62 62 62 63 63 63 63 63 63 63 64 64 65 65 65 66 66 66 66 67 68 69 70 71 71 72 73 73 74 74 73 71 69 67 66 64 62
59 61 62 62 62 62 62 63 64 65 65 64 64 64 64 64 64 65 65 66 66 67 68 69 70 71 72 73 75 76 76 76 76 76 76 75 74 72 71 69 67 66
60 61 61 62 62 62 63 65 66 66 66 65 64 64 63 64 64 65 66 67 68 69 70 72 73 74 76 77 77 78 79 79 78 78 78 77 76 75 73 72 70 68
60 61 61 62 62 63 64 66 66 66 66 65 64 63 63 64 65 66 67 68 69 71 72 74 75 76 78 79 80 80 80 80 80 79 79 78 77 76 75 74 73 72
60 61 61 62 63 64 65 67 67 67 66 64 64 63 64 64 65 66 67 69 70 71 73 74 75 77 78 79 80 81 81 81 81 80 80 80 79 78 78 77 76 75
60 61 62 63 64 65 67 68 68 66 64 63 63 63 64 65 65 66 68 69 70 72 73 75 76 77 79 80 81 82 83 83 84 83 83 82 82 81 81 80 79 78
60 61 62 63 65 67 68 67 66 64 63 62 63 64 64 65 66 67 69 70 72 73 75 76 78 79 80 81 83 84 85 86 87 87 87 86 85 83 82 81 80 79
61 62 63 65 66 67 66 64 63 62 63 63 64 65 66 67 68 69 71 72 74 75 77 78 79 81 82 83 85 86 87 88 89 89 88 87 85 82 80 78 77 77
62 63 65 65 64 63 62 62 62 62 63 64 66 67 68 69 70 71 72 74 75 76 78 79 81 82 84 85 86 86 87 87 86 86 86 84 82 79 77 75 73 73

ECMWFNIL_250_spd_099.txt.gz
Wind_Speed
58 59 59 60 60 60 60 59 58 58 57 57 56 56 55 55 54 54 53 53 52 52 51 51 50 50 50 49 48 47 48 48 48 47 46 46 46 45 44 43 42 42
61 61 61 62 62 62 61 61 60 60 59 59 58 57 56 56 55 55 54 54 53 52 51 50 50 50 50 50 49 49 48 48 48 48 47 47 47 46 45 44 43 43
62 62 62 62 62 62 61 61 61 60 60 60 59 58 57 57 56 55 55 54 53 51 50 50 50 50 51 51 51 50 50 49 49 49 49 48 47 47 47 46 45 44
61 60 60 60 60 61 61 61 60 60 60 60 59 59 58 58 57 56 55 54 53 52 52 52 52 52 52 53 53 52 51 51 51 51 50 50 49 48 48 48 48 47
58 57 57 57 58 58 58 59 59 60 60 60 60 59 59 59 58 58 57 56 56 55 55 55 55 55 55 55 55 55 54 54 53 52 52 53 52 50 50 49 49 49
57 57 56 56 56 56 56 57 58 58 59 59 60 60 60 60 59 59 59 58 58 58 58 58 58 58 57 57 57 57 57 56 55 54 54 55 54 53 51 50 50 50
57 56 55 54 54 54 55 55 56 57 57 58 59 59 59 60 60 60 59 59 59 59 60 60 60 59 59 58 58 58 58 57 56 56 56 56 55 54 53 52 51 50
57 56 55 54 54 54 54 54 55 55 56 57 58 58 59 59 59 59 59 58 59 59 59 59 59 59 59 58 58 58 58 58 58 57 57 56 56 55 55 54 53 52
57 57 56 55 54 54 54 54 54 55 56 57 57 57 58 58 58 58 58 57 57 58 58 58 58 58 59 59 59 59 59 59 58 57 57 56 56 56 56 55 54 54
55 55 55 55 55 55 55 55 55 55 56 56 56 57 58 58 58 57 57 57 57 57 58 58 58 59 59 59 59 59 59 59 58 58 57 56 56 56 56 56 56 56
54 54 54 54 55 55 56 56 56 56 56 56 56 57 58 58 57 57 57 57 57 57 58 58 58 59 59 59 59 59 60 60 59 59 59 58 57 57 57 57 58 58
54 54 54 54 55 56 57 57 57 57 56 56 56 57 58 58 57 58 58 58 58 58 59 59 59 59 60 60 60 60 60 60 60 60 59 59 59 58 59 59 60 60
56 56 56 55 56 56 58 58 58 57 56 56 56 57 58 58 58 59 59 60 60 60 60 61 61 62 62 62 62 61 61 60 60 59 59 59 60 60 61 61 62 62
59 58 58 58 57 57 58 58 58 57 56 56 57 58 59 60 60 60 61 61 62 62 63 63 63 64 65 65 64 64 63 62 61 61 61 61 62 62 63 64 64 64
61 61 60 60 59 59 58 58 58 57 57 57 58 59 60 61 61 62 63 64 64 65 65 65 65 65 66 67 67 67 66 65 65 65 65 65 65 65 65 65 65 65
63 63 62 62 61 60 58 57 57 57 57 57 58 59 61 62 63 64 64 65 66 67 67 67 67 67 67 67 67 68 68 68 68 68 68 68 68 68 68 67 67 67
65 64 63 63 62 60 57 56 56 56 56 57 58 59 60 62 63 64 65 66 67 68 68 68 68 68 68 67 66 66 67 68 69 69 70 70 71 70 70 71 71 71
65 64 63 62 60 57 55 54 54 55 55 56 58 59 60 62 63 64 65 66 67 68 69 69 69 69 68 66 65 64 65 66 67 69 70 71 71 72 72 73 74 74
66 63 62 59 56 54 54 54 54 54 55 56 58 59 60 62 63 65 66 67 68 69 70 71 70 68 66 65 64 64 65 66 67 68 69 70 71 73 73 74 75 75
68 65 61 57 54 53 53 54 54 55 56 57 58 59 61 63 64 65 66 68 69 71 71 70 68 67 66 65 65 65 66 67 68 69 70 71 72 73 74 75 76 76
68 65 60 55 53 52 52 53 54 55 55 57 58 60 61 63 64 66 68 69 71 71 70 68 67 66 66 66 67 68 68 69 70 71 72 72 73 74 75 75 76 77
64 61 58 55 53 52 52 52 53 54 55 57 58 60 62 64 66 68 70 71 70 69 67 66 66 67 67 68 69 70 71 72 73 74 75 76 76 77 77 77 77 78
59 57 56 54 53 53 53 53 54 55 57 58 60 62 64 66 68 70 70 69 68 66 66 67 68 69 70 71 72 73 75 76 77 78 79 80 81 81 81 81 80 79
56 55 54 54 53 54 54 55 56 58 59 61 63 65 67 69 70 70 68 67 66 67 68 69 70 72 73 74 76 77 79 80 82 83 84 85 85 85 83 82 80 78
55 54 54 54 54 55 56 57 59 61 62 64 66 68 69 70 69 67 66 67 68 69 71 72 73 75 76 78 79 81 82 84 85 85 85 85 85 84 82 80 78 75
54 54 54 55 56 57 58 60 62 63 65 67 69 69 68 67 66 66 67 69 71 72 74 75 76 78 79 81 82 83 84 84 84 83 83 82 81 80 79 78 76 74

ECMWFNIL_250_spd_102.txt.gz
Wind_Speed
48 49 50 51 53 54 56 58 59 60 60 59 58 58 58 58 58 58 58 58 59 59 59 58 58 57 57 56 55 54 53 52 51 50 49 48 48 47 47 47 46 45
53 54 55 56 58 59 60 61 62 63 63 62 60 59 58 58 58 58 58 58 58 58 58 58 58 57 57 56 56 55 54 53 51 51 51 50 50 50 49 48 48 47
58 59 60 61 61 62 62 63 64 65 65 63 61 59 58 58 58 57 58 57 57 57 57 57 57 57 57 56 56 55 55 54 53 53 53 53 53 53 52 51 50 50
59 60 61 62 63 63 64 65 65 65 64 62 61 60 59 59 58 58 57 57 56 56 56 56 56 56 56 56 56 56 55 55 55 55 55 55 55 55 55 54 53 53
59 61 62 63 64 65 65 66 65 65 63 61 61 61 60 60 60 59 59 57 56 56 56 56 56 56 56 56 56 56 56 56 56 56 56 56 56 56 56 56 55 55
62 63 64 65 67 67 67 66 64 63 61 60 60 61 61 61 61 62 61 60 57 56 57 57 56 56 55 55 55 55 55 55 55 55 55 55 55 55 55 56 56 56
65 66 66 67 68 68 67 65 61 60 59 59 59 59 60 61 62 63 63 62 60 58 58 57 56 56 55 55 54 54 55 55 55 55 55 55 55 55 55 56 56 56
67 67 68 69 69 68 65 61 58 57 57 57 58 59 59 60 61 62 63 63 62 61 60 59 57 56 55 55 55 55 55 55 55 55 55 55 55 55 56 56 56 57
68 68 69 69 67 65 62 59 57 57 56 57 58 59 59 60 61 61 62 62 62 62 62 60 59 58 57 56 56 56 56 56 56 56 56 56 56 56 56 56 57 57
68 68 69 68 66 63 61 59 58 58 58 59 59 60 60 61 61 61 62 62 62 63 63 62 61 59 58 58 58 58 58 58 58 58 58 58 58 58 58 58 58 58
68 68 68 67 65 62 61 60 60 60 61 61 62 62 62 62 62 62 62 62 63 63 63 62 62 61 60 59 59 59 59 60 60 60 60 61 61 61 61 61 61 60
68 68 68 66 64 63 62 61 62 62 63 64 64 64 64 64 64 63 63 63 63 63 62 62 62 62 61 61 61 61 61 62 62 63 63 63 64 65 65 65 65 64
68 68 67 66 65 64 63 63 63 64 65 65 66 66 66 66 66 66 65 65 63 62 62 62 62 62 62 62 62 63 63 63 64 64 65 66 66 67 67 68 68 68
69 68 67 66 66 66 65 65 65 65 66 67 68 68 68 68 68 68 67 65 62 61 61 61 62 62 63 63 63 64 64 64 64 65 66 67 68 69 69 70 70 70
69 68 68 67 67 67 66 66 66 67 67 68 69 69 69 69 69 69 66 63 61 60 60 60 61 62 63 63 64 64 64 64 65 67 68 69 70 71 71 72 72 71
68 68 68 68 68 68 68 67 68 68 68 68 69 69 70 70 70 68 64 61 60 60 60 60 61 61 62 62 63 64 65 66 68 69 70 71 72 73 74 73 73 71
68 68 68 68 69 69 69 69 69 68 68 68 69 69 70 70 68 65 62 60 59 59 60 60 60 60 61 62 63 64 66 68 69 71 72 73 74 74 74 73 72 71
68 68 69 69 68 69 70 70 69 69 69 69 68 68 68 67 64 61 59 58 57 57 58 59 59 60 61 63 64 66 68 69 70 72 73 74 75 74 72 71 71 71
68 69 69 69 69 69 70 71 71 71 70 69 67 66 65 62 58 56 55 55 55 56 57 58 59 61 62 64 66 67 69 71 73 74 75 74 73 72 71 71 71 71
68 69 69 69 69 69 70 70 71 71 70 69 67 64 61 57 54 53 54 54 55 56 58 59 61 63 64 66 68 70 72 74 74 75 74 73 72 71 71 72 72 72
67 67 67 68 68 69 69 69 69 70 69 68 65 61 57 54 53 54 55 56 58 59 61 63 65 67 68 70 72 73 74 74 73 73 72 72 73 73 73 73 73 74
66 66 66 66 66 67 67 68 68 67 66 63 60 57 55 54 55 56 58 59 61 63 65 67 69 71 72 73 73 73 72 72 72 72 73 74 74 75 75 76 76 76
64 64 64 64 65 65 65 65 65 63 61 58 56 55 55 56 57 59 61 63 65 66 68 70 72 72 72 72 71 71 72 73 73 74 75 77 78 79 80 80 79 78
62 62 62 63 63 63 62 61 59 57 56 55 54 55 57 59 61 62 64 65 67 69 70 71 71 70 70 71 72 73 74 75 76 77 79 80 82 83 82 81 79 77
60 60 60 61 60 59 58 56 54 53 53 53 55 57 59 61 62 64 66 67 69 69 69 69 69 70 71 72 74 75 76 78 79 81 82 83 84 83 82 80 79 77
58 59 58 57 56 54 52 51 51 51 52 54 56 58 60 62 64 66 67 68 69 69 69 69 70 71 72 74 75 77 79 81 82 83 83 83 82 81 80 79 78 76

ECMWFNIL_250_spd_105.txt.gz
Wind_Speed
50 50 50 51 51 51 52 53 54 55 56 57 59 59 61 62 63 65 66 67 67 68 69 70 69 68 64 60 57 57 56 56 56 55 54 54 54 53 52 52 51 51
51 51 51 52 52 53 54 55 56 57 57 58 59 60 63 64 66 67 67 67 67 68 69 69 68 65 61 58 57 56 56 56 56 56 55 55 54 54 53 53 52 52
50 51 51 52 53 54 55 56 56 57 58 59 61 64 65 67 68 68 67 67 67 67 67 67 64 61 58 57 56 56 57 57 57 57 56 56 55 54 54 54 53 53
52 52 53 53 54 55 56 57 58 59 61 63 64 66 67 68 68 68 68 67 66 66 65 64 61 59 57 57 56 57 57 57 57 57 57 57 56 55 55 54 54 53
55 55 55 55 56 57 58 60 61 63 64 65 67 67 68 68 68 68 68 67 65 65 63 61 60 59 58 57 57 58 58 58 58 58 58 58 57 57 56 55 54 54
56 56 57 57 58 60 61 63 64 66 67 68 68 69 69 69 69 69 68 66 65 63 62 61 60 59 59 60 60 60 60 60 59 59 59 59 58 58 57 56 55 54
60 60 61 61 62 63 64 66 67 68 69 70 70 71 70 70 70 69 68 66 64 63 62 60 60 61 61 62 62 62 62 63 63 62 61 60 59 59 58 58 57 56
64 64 64 64 65 67 68 69 70 71 72 72 72 72 72 71 71 69 67 65 64 63 62 61 62 62 63 64 64 64 65 65 65 65 64 62 60 59 59 58 58 58
65 66 67 68 69 71 72 73 73 74 74 74 73 73 72 72 71 69 68 66 64 63 62 63 63 64 65 65 66 66 67 67 67 67 65 63 61 60 59 59 59 59
68 69 70 72 73 74 74 75 75 75 75 74 74 73 73 72 72 70 68 66 65 64 64 64 65 66 66 67 68 68 69 69 68 67 64 63 61 60 60 60 60 60
71 72 73 73 74 75 75 75 75 75 75 74 74 74 74 74 73 71 69 68 67 66 66 66 67 68 68 69 70 70 70 70 68 64 62 61 60 60 60 61 61 62
73 74 74 75 75 75 75 74 74 74 74 74 75 75 75 75 73 72 70 69 69 69 69 69 69 70 70 71 71 71 71 69 66 62 60 59 59 60 61 62 63 63
75 75 75 75 74 74 74 74 74 74 75 76 76 77 76 75 73 72 71 70 70 70 70 70 70 71 72 72 72 72 70 67 64 61 60 59 59 60 61 62 63 64
75 74 74 74 74 74 74 75 75 76 77 77 77 77 76 75 74 73 72 72 71 71 71 71 72 72 72 71 71 70 67 64 62 60 60 60 60 61 62 62 63 64
73 73 73 74 74 75 75 76 76 77 77 78 78 78 77 76 75 74 73 73 72 72 71 71 71 71 71 70 69 67 64 62 61 60 60 60 61 61 62 63 64 66
72 73 74 74 74 75 75 76 77 78 78 77 78 78 78 77 75 74 74 73 72 71 70 70 69 69 69 68 66 64 62 61 60 61 61 61 61 62 64 65 66 67
73 74 74 74 74 75 76 77 77 78 77 77 77 78 78 77 76 75 74 73 71 70 70 69 68 67 66 64 63 61 61 61 61 61 61 62 63 64 66 68 70 71
73 73 74 74 75 75 76 77 78 78 77 77 77 77 77 77 77 76 74 73 71 70 70 69 67 65 63 62 61 61 61 61 62 62 63 64 66 68 69 70 72 72
72 73 74 74 75 75 76 77 77 77 77 77 77 77 76 76 76 75 74 73 71 70 68 67 65 63 62 62 62 62 62 63 64 65 66 68 69 70 70 70 70 70
72 73 74 75 75 75 75 76 76 76 76 76 76 75 75 74 74 73 72 71 70 68 67 65 63 63 63 63 63 64 65 66 68 69 70 71 71 71 71 70 70 70
73 74 75 75 75 74 74 75 75 75 75 75 74 74 73 72 71 70 70 69 68 66 64 63 63 63 63 64 65 66 68 70 71 72 73 72 72 71 71 72 72 72
74 74 75 74 74 74 74 75 74 74 74 74 73 72 71 70 69 68 67 66 65 63 62 62 63 63 64 66 67 69 71 72 73 73 73 72 72 72 72 74 75 75
74 74 74 74 74 75 74 74 74 73 73 72 71 70 69 68 67 66 64 63 62 62 62 63 64 65 66 68 70 71 73 73 73 73 73 73 73 74 75 76 77 77
74 74 74 75 75 74 74 73 72 71 71 69 68 67 67 66 65 63 61 61 61 62 63 64 66 67 69 70 72 73 74 74 74 74 74 74 75 77 78 78 78 77
74 74 74 74 73 73 72 72 70 69 68 66 66 65 64 63 61 60 60 61 62 63 64 66 67 69 71 72 73 74 74 74 74 74 75 77 78 79 80 79 77 76
73 73 73 72 72 71 71 69 68 66 65 64 64 63 61 60 59 59 60 61 62 64 65 67 69 70 71 72 73 74 74 74 75 76 78 79 80 79 78 77 76 74

ECMWFNIL_250_spd_108.txt.gz
Wind_Speed
55 56 57 58 58 59 60 60 62 63 63 64 64 64 64 65 66 67 68 69 70 72 73 75 77 78 79 79 80 80 79 78 75 72 69 67 65 63 61 59 58 57
57 58 59 60 60 61 62 63 63 64 63 63 63 64 65 66 67 68 69 70 72 74 75 76 78 79 79 80 80 79 78 76 74 71 68 66 64 63 61 60 59 59
59 60 61 62 62 63 63 64 63 63 63 63 64 65 66 67 68 70 71 73 74 76 77 78 79 80 81 81 80 79 77 75 72 69 67 65 64 63 63 62 61 60
60 60 61 61 61 62 62 62 62 63 64 65 66 68 69 70 71 73 74 76 77 78 79 80 81 82 82 82 81 79 77 75 71 69 67 66 65 64 64 64 63 62
63 62 62 62 62 62 63 63 64 66 67 68 69 70 72 73 74 76 77 78 79 80 81 82 83 84 83 82 81 79 77 74 71 69 67 67 66 66 66 65 65 64
67 66 66 65 66 66 67 68 68 69 70 71 72 73 75 76 77 78 79 80 81 82 83 84 85 84 83 82 81 79 76 74 72 70 69 68 67 67 67 67 66 66
70 69 69 69 69 70 71 71 72 73 73 75 76 77 78 79 79 80 81 82 83 85 85 85 85 84 83 82 80 78 76 74 72 71 70 70 69 68 68 68 68 68
72 72 72 72 73 74 74 75 76 76 77 78 78 79 79 80 81 82 84 85 86 87 86 85 85 84 83 82 80 78 76 74 73 72 71 70 70 69 69 69 70 69
73 74 74 75 76 76 77 77 77 78 78 79 79 80 81 82 84 86 87 87 87 87 86 86 85 84 83 81 79 77 76 75 74 72 71 71 70 70 70 70 70 70
75 75 76 76 77 78 78 78 79 79 80 80 81 83 84 86 87 87 87 87 87 86 86 86 85 84 82 80 78 77 76 75 73 72 71 71 71 70 70 70 70 70
77 77 78 78 79 79 79 80 80 80 81 82 83 85 85 86 86 86 86 86 86 86 86 86 84 82 80 79 78 77 75 74 73 71 71 71 70 70 70 70 70 69
75 76 76 76 77 78 79 80 81 82 82 83 83 84 84 85 85 86 86 86 87 87 86 85 83 80 79 78 77 76 74 73 72 71 70 70 70 70 69 69 68 67
75 75 75 76 77 78 79 80 81 82 81 82 83 83 84 85 86 87 87 87 87 86 85 83 81 79 78 77 76 75 73 72 71 70 69 69 69 68 68 67 66 66
74 75 76 76 77 78 79 79 80 80 81 82 84 84 85 87 87 88 88 87 86 84 83 82 80 79 78 77 75 73 72 71 69 69 69 69 68 68 67 66 65 64
72 73 73 74 75 76 77 78 80 81 82 83 84 85 86 87 87 87 86 85 84 83 82 81 81 80 79 77 75 74 73 72 71 70 70 70 69 68 67 66 65 64
70 71 72 73 75 76 78 79 80 81 83 83 84 85 86 86 86 85 84 83 82 82 81 81 81 80 79 77 76 75 74 73 72 72 72 71 70 68 67 66 65 65
71 72 74 75 76 77 78 79 80 81 82 83 84 84 85 85 84 83 82 81 81 81 81 81 79 78 77 76 75 74 73 73 73 73 72 71 70 69 68 68 67 67
72 73 74 75 76 76 77 78 79 80 81 82 83 83 83 82 82 81 81 81 81 81 80 78 77 76 75 74 73 73 73 73 72 71 70 69 69 69 69 70 70 70
73 73 74 74 75 75 76 77 78 80 81 81 81 81 80 80 80 80 80 80 80 79 77 77 76 75 74 73 72 72 72 71 70 69 68 68 69 70 71 72 72 73
71 71 72 73 74 76 77 78 79 80 80 80 79 79 79 79 79 79 80 79 78 77 76 75 74 73 72 72 72 71 70 69 68 68 68 69 70 72 73 73 73 73
68 70 72 74 76 77 78 79 79 78 78 77 77 78 78 79 79 79 78 77 76 75 74 73 72 71 71 71 70 69 67 67 67 68 69 70 71 72 73 73 72 72
70 72 74 76 76 77 77 77 76 75 75 76 77 77 78 78 78 77 76 75 74 73 72 71 70 70 70 69 67 66 66 67 68 69 70 71 71 72 72 72 71 72
73 74 75 75 75 75 74 73 73 73 74 76 76 77 78 78 77 76 74 73 72 71 69 69 69 69 68 67 66 66 67 68 69 70 70 71 71 71 71 72 73 74
72 72 72 72 72 71 70 71 72 73 75 76 76 77 77 77 76 74 73 71 70 69 68 68 68 67 66 66 66 67 67 68 69 70 70 70 70 70 71 73 75 76
69 70 69 69 68 68 70 71 73 74 75 76 76 77 76 75 74 72 71 70 68 68 68 67 66 65 65 65 66 67 68 68 69 69 69 69 70 71 73 75 75 75
67 67 66 67 67 69 70 72 74 75 76 76 76 76 75 73 72 71 69 68 67 67 67 66 65 65 65 65 66 67 68 68 68 68 69 70 72 74 75 75 75 74

ECMWFNIL_250_spd_111.txt.gz
Wind_Speed
49 51 52 53 56 59 62 64 66 67 68 68 68 68 68 67 67 67 66 67 67 68 69 71 73 75 77 78 79 80 81 83 84 85 85 86 87 87 87 87 86 85
53 54 55 57 59 62 64 66 67 68 69 69 68 67 67 67 67 67 68 69 70 72 74 76 78 79 79 80 81 83 84 85 85 86 86 87 88 88 88 87 86 85
57 57 58 59 61 63 65 66 68 69 68 68 68 68 69 70 71 72 73 75 76 78 79 80 80 81 81 83 84 85 86 86 86 87 88 88 88 88 88 87 87 85
59 60 61 62 64 65 66 67 68 69 70 70 71 72 74 75 76 77 78 79 80 80 81 82 82 83 84 85 86 86 86 86 87 88 88 88 89 89 89 88 86 84
62 63 64 66 67 69 70 71 72 72 73 74 75 76 77 77 79 80 80 81 81 82 83 84 85 86 87 87 87 87 87 88 88 88 88 89 90 90 89 88 85 83
65 65 67 68 70 71 72 73 74 74 75 76 76 77 78 79 81 81 81 82 83 84 85 86 86 87 87 87 87 88 88 89 89 89 89 91 91 90 88 86 84 82
64 65 66 68 70 71 72 73 73 74 75 76 77 78 80 81 81 82 82 83 84 85 85 86 86 86 86 87 88 89 89 89 89 90 91 91 91 89 86 84 83 82
64 65 67 68 70 71 72 73 74 75 76 77 78 79 80 81 81 82 83 83 84 84 84 84 85 86 87 88 89 89 89 90 91 92 91 90 89 87 85 84 83 82
66 67 68 69 70 71 72 73 74 76 77 78 79 79 80 81 81 82 82 82 82 82 84 85 86 87 88 88 89 90 91 92 92 91 90 88 87 85 85 84 82 80
65 66 68 69 70 71 72 73 75 76 77 78 78 79 79 80 80 80 80 81 82 84 85 86 86 87 87 89 90 92 92 92 91 90 88 86 85 84 84 82 80 77
64 66 67 69 70 71 72 73 74 75 75 76 76 77 77 78 78 79 80 82 83 84 85 85 86 87 89 90 91 92 91 91 89 88 87 85 85 84 82 80 77 74
63 65 66 67 68 69 70 71 72 72 73 73 73 74 74 75 77 78 79 81 82 83 84 85 87 88 90 90 91 91 90 89 88 87 86 86 85 83 80 78 75 72
62 63 64 65 66 67 68 68 69 69 70 70 71 72 74 75 76 77 79 80 82 83 85 86 88 89 89 90 90 90 89 88 88 87 86 85 83 80 78 75 72 70
61 62 62 63 63 64 64 65 66 67 68 69 71 72 74 75 76 78 79 81 83 84 86 87 88 89 89 89 89 89 88 88 87 87 85 83 80 78 75 72 71 70
61 61 62 62 63 63 64 65 66 67 68 70 71 72 74 76 77 79 80 82 84 85 86 87 88 88 88 88 88 87 87 87 87 85 82 79 77 75 73 71 70 71
62 62 63 63 64 65 66 67 68 69 70 71 72 73 75 77 78 80 81 83 84 84 85 86 87 87 87 86 86 86 87 86 84 82 79 77 75 73 71 71 71 71
63 63 64 65 66 67 68 69 70 70 71 72 73 75 76 78 79 80 81 82 83 84 85 86 86 85 85 85 86 86 85 83 81 79 77 75 73 72 72 72 71 70
63 64 65 65 66 67 68 69 70 71 72 73 74 75 76 77 78 79 80 82 83 85 85 84 83 83 84 84 85 84 82 80 78 76 75 74 73 73 72 72 71 70
63 64 65 66 66 67 68 69 70 71 72 73 73 74 75 77 79 80 82 83 84 83 82 82 82 83 83 84 83 81 78 77 75 74 73 73 73 73 72 71 70 70
62 64 65 66 67 68 69 70 70 71 72 73 73 75 77 78 80 81 82 82 81 80 80 81 82 82 82 82 80 78 76 75 73 72 72 72 72 72 71 70 70 70
63 64 65 66 67 68 69 70 71 72 72 73 75 76 78 79 79 79 79 78 78 79 80 81 81 81 81 79 77 75 74 73 72 72 72 72 72 71 70 70 69 69
64 65 66 67 68 68 69 70 70 71 72 73 75 76 76 76 76 75 76 76 77 79 80 81 81 80 78 76 75 73 73 72 72 72 72 71 71 70 70 69 68 68
65 65 66 66 67 67 67 68 69 70 71 71 72 72 72 72 73 73 75 76 78 79 80 80 79 78 76 74 73 72 71 71 71 71 70 69 69 69 69 68 68 68
64 64 64 65 65 66 66 67 67 67 68 68 69 69 70 71 72 74 75 77 78 79 79 78 77 75 74 72 71 70 70 70 70 70 69 68 68 68 68 68 69 70
62 62 63 63 64 64 64 64 65 65 66 67 67 68 70 71 73 75 76 77 78 78 78 76 75 73 71 69 69 69 69 69 69 68 67 67 67 67 67 68 70 71
60 61 61 62 62 62 62 63 64 65 66 67 68 69 71 73 74 76 77 77 77 77 76 74 72 70 68 67 68 68 68 67 67 67 67 68 68 68 68 70 70 70

ECMWFNIL_250_spd_114.txt.gz
Wind_Speed
55 54 53 53 52 51 50 49 48 48 49 51 53 55 56 58 60 63 65 67 69 70 72 73 74 75 77 79 81 82 83 84 85 86 87 88 89 89 89 88 87 87
53 53 52 52 52 51 51 50 50 51 53 54 56 58 60 61 63 65 67 69 70 72 74 76 77 79 80 82 83 84 84 86 87 88 89 89 89 89 88 87 87 86
51 51 51 51 51 51 52 52 53 54 55 57 58 60 62 63 65 67 68 70 72 74 76 78 79 80 82 83 84 85 86 88 88 89 88 88 88 87 87 87 87 87
49 51 51 51 52 53 54 55 56 57 58 59 60 61 63 64 66 68 70 72 74 76 77 79 80 81 83 84 85 86 87 88 88 87 87 86 86 86 87 87 87 88
49 51 52 52 54 55 56 57 58 59 60 61 62 63 64 66 68 69 71 73 75 77 78 79 81 82 83 84 85 86 86 86 85 85 85 86 86 87 87 87 89 90
48 50 51 53 54 55 56 57 58 58 59 60 61 63 64 66 68 70 72 74 76 77 79 80 81 82 83 83 83 84 84 84 84 85 86 86 87 87 88 89 90 92
47 48 50 51 52 53 54 55 56 58 59 60 62 63 65 67 70 72 73 75 76 77 78 79 80 80 80 81 81 82 83 83 84 85 86 86 87 88 89 90 91 92
46 47 48 50 51 53 54 55 57 59 60 62 64 66 67 69 71 73 74 74 75 76 76 77 78 78 79 80 81 82 83 83 84 85 86 87 88 89 90 90 91 91
47 48 49 50 51 52 54 56 58 60 61 63 65 66 68 69 70 71 72 73 73 74 75 76 76 77 78 80 81 82 82 83 84 85 87 88 88 89 90 90 91 90
50 50 50 51 52 53 54 55 57 59 61 62 63 64 66 67 68 69 70 71 72 73 74 74 75 77 78 80 81 82 83 84 85 86 87 87 88 89 90 90 90 90
51 52 52 53 53 54 54 55 57 58 60 61 62 63 65 66 67 68 70 71 71 72 73 75 76 78 79 81 82 82 83 84 85 85 86 87 89 90 90 90 90 90
52 53 53 54 54 55 56 56 58 59 61 62 63 64 65 66 67 69 70 71 72 73 75 76 78 79 80 81 82 82 83 83 84 85 87 88 89 89 89 89 90 90
54 54 55 55 55 56 57 58 59 61 62 63 64 65 66 67 68 69 70 72 73 75 76 78 78 79 80 81 81 82 82 84 85 86 86 87 87 87 88 89 90 90
56 57 57 57 57 58 59 60 61 62 63 64 65 66 67 68 69 70 71 73 74 75 76 77 78 79 80 81 81 82 83 84 84 84 84 84 85 87 88 89 89 88
57 58 58 58 59 60 61 62 63 64 64 65 66 67 68 69 69 71 72 73 74 75 76 77 78 79 80 81 81 82 82 82 82 82 82 83 85 87 88 88 86 84
58 59 59 59 60 60 61 62 63 64 65 65 66 67 67 68 69 70 71 72 74 75 76 78 79 79 80 80 80 80 80 80 80 81 82 84 85 86 86 85 83 80
58 58 58 58 58 59 60 61 63 63 64 64 65 66 67 68 69 70 71 73 75 76 77 77 77 77 77 77 77 77 78 78 80 81 83 84 85 85 84 82 79 77
55 55 55 55 57 58 59 60 60 61 62 63 64 65 67 68 70 71 73 74 75 75 74 74 74 74 74 75 75 76 77 79 81 82 84 84 84 83 81 79 76 74
53 53 53 54 56 57 58 59 59 61 62 64 65 66 68 69 71 72 72 72 72 71 71 71 71 72 73 74 75 76 78 80 82 83 83 83 81 80 77 75 73 72
52 53 54 56 57 58 59 60 62 63 64 65 66 67 69 70 70 70 69 69 68 68 69 69 70 71 72 74 75 77 79 81 82 82 82 81 79 76 74 73 72 71
54 55 56 57 58 58 59 61 63 64 65 66 67 68 68 68 67 66 66 66 66 67 68 69 70 71 73 74 76 78 80 81 81 81 80 78 76 73 72 71 71 70
56 57 57 57 58 59 61 62 63 64 66 66 66 66 65 64 64 64 64 65 67 68 69 70 71 72 73 75 77 78 79 80 80 79 77 75 73 71 70 70 70 71
57 57 58 58 60 61 62 63 64 65 65 65 64 63 62 62 63 64 65 66 67 68 69 70 71 73 75 76 77 78 78 78 78 76 73 71 70 70 70 70 70 71
57 58 59 60 60 61 62 63 64 64 63 62 61 61 61 62 63 64 65 66 67 68 69 70 72 74 75 76 76 77 77 76 74 72 70 69 69 69 70 70 71 71
58 59 59 60 61 62 62 62 62 61 60 60 61 61 62 63 64 65 66 67 68 69 70 71 72 73 74 75 76 76 75 73 70 68 67 67 68 69 69 70 70 70
59 59 60 60 60 61 61 60 59 59 60 60 61 62 63 64 65 65 66 67 68 69 70 71 72 73 73 74 74 73 71 69 67 66 66 67 68 68 68 68 69 70

ECMWFNIL_250_spd_117.txt.gz
Wind_Speed
49 48 48 49 49 50 51 52 53 54 53 52 51 51 51 51 51 51 52 53 55 56 57 58 60 62 64 66 68 70 71 72 73 74 75 77 79 82 83 84 84 84
45 45 45 45 46 47 48 48 49 50 50 50 50 51 51 51 52 53 54 56 57 58 59 61 62 64 66 67 69 69 70 72 73 75 77 80 81 83 83 83 83 83
41 41 41 42 43 44 45 46 46 47 48 49 50 51 52 53 54 55 56 58 59 60 62 63 64 66 67 67 68 70 71 73 75 77 79 80 81 82 82 82 82 83
39 39 39 39 40 41 42 44 46 47 49 51 52 52 53 54 55 56 58 59 61 62 63 64 64 65 66 68 70 72 74 75 77 78 79 80 81 81 81 82 83 83
39 38 39 39 40 41 42 44 46 47 49 50 51 52 53 54 55 56 58 59 60 61 62 63 64 65 67 69 71 73 74 75 76 77 78 79 80 80 81 82 82 82
41 40 41 41 42 42 43 44 45 46 47 48 49 50 52 53 54 55 57 58 59 60 62 63 65 67 68 70 72 73 74 75 76 77 78 78 79 80 80 81 81 81
43 43 43 44 44 44 44 44 45 45 46 47 48 49 51 52 53 54 56 58 60 61 63 64 65 67 68 70 71 73 74 75 76 77 77 78 78 79 80 80 81 82
46 45 45 45 46 46 46 46 46 46 47 47 49 50 51 52 53 55 57 59 61 62 63 64 66 67 69 70 72 73 73 74 75 76 76 77 77 78 80 81 82 83
47 47 47 47 47 48 48 48 48 48 49 49 51 52 53 54 56 57 59 60 62 63 64 65 67 68 69 70 71 72 73 73 74 75 75 77 78 79 80 81 81 81
48 48 48 49 49 50 50 51 51 51 51 52 53 55 56 57 58 59 60 61 63 64 65 66 67 68 69 70 70 71 71 72 74 75 76 78 79 79 80 80 80 80
50 50 50 50 51 51 51 51 51 52 53 54 55 56 57 58 59 60 61 62 63 64 65 66 67 67 68 69 69 70 71 73 74 76 77 78 78 78 78 78 78 79
52 52 52 52 52 52 52 52 53 53 54 56 57 58 59 60 61 61 62 62 63 64 65 65 66 66 67 68 69 70 72 74 75 76 77 77 76 76 76 77 78 79
54 54 53 53 53 54 54 54 55 56 57 58 59 60 60 61 62 62 62 62 63 63 63 64 64 65 67 68 70 72 73 74 75 75 75 75 75 75 76 78 79 81
53 54 54 55 55 56 56 57 56 57 58 59 59 60 61 61 61 61 61 62 62 62 62 63 65 66 68 70 71 72 72 73 72 73 73 74 75 76 77 78 80 82
53 53 54 55 56 56 57 56 56 56 57 58 58 59 59 60 60 60 60 60 61 62 63 65 66 68 69 70 71 71 70 70 71 71 73 74 76 77 79 80 81 83
51 52 53 54 55 55 55 54 54 54 56 56 57 58 58 58 59 59 60 61 62 63 65 66 67 69 69 70 69 69 69 69 70 72 73 75 76 78 79 81 82 82
50 50 51 52 52 52 51 51 52 53 54 55 56 57 58 58 59 60 61 62 63 64 65 67 67 68 68 68 67 68 69 70 71 73 74 75 77 79 80 81 81 81
48 48 48 50 51 51 50 51 52 53 55 56 57 58 58 59 60 61 61 62 64 65 66 66 66 66 66 66 67 68 69 71 72 73 74 76 77 78 79 79 80 80
47 47 47 50 52 52 52 53 54 55 56 57 57 58 59 60 60 61 62 63 64 65 65 65 65 65 66 67 68 69 70 71 72 73 75 76 77 77 78 78 79 79
46 48 48 51 53 53 54 55 55 56 56 57 58 59 59 60 61 61 62 63 64 64 64 64 64 65 66 68 69 70 70 71 73 74 74 75 75 76 77 78 78 77
44 45 46 50 53 53 55 56 56 56 57 58 59 59 59 60 61 62 62 63 63 63 63 63 64 66 67 68 69 70 71 72 72 73 73 74 74 75 76 76 76 75
44 44 44 48 52 54 56 58 58 57 58 58 58 59 60 61 61 61 62 62 62 62 63 64 65 66 67 68 69 70 71 71 71 72 72 73 74 75 75 75 74 73
46 46 48 51 53 55 57 58 58 57 57 58 59 60 61 61 61 61 61 61 61 62 63 65 66 66 67 68 69 70 70 70 71 71 72 72 73 74 73 72 72 71
48 49 51 52 54 56 57 58 58 58 58 59 60 60 61 60 60 60 61 61 62 63 64 65 65 66 67 67 68 69 69 69 70 70 71 72 72 72 71 71 70 70
49 50 50 51 53 56 57 57 57 57 58 59 60 60 60 60 60 60 61 62 63 64 64 65 65 65 66 66 67 67 68 69 69 70 71 71 71 70 69 69 69 70
48 50 51 52 53 55 56 56 56 57 57 58 59 59 59 60 60 61 62 62 63 63 64 64 64 65 65 65 66 67 67 68 69 70 70 70 69 68 68 68 68 68